     2              OBSERVATION DATA    GPS                 RINEX VERSION / TYPE
teqc 1999Jul19 19991123 02:45:27UTC                         PGM / RUN BY / DATE
                                                            COMMENT
Original Marker Name: 0210                                  COMMENT
Campaign Name: HPGN 1991                                    COMMENT
4-Character Station Name: 0210                              COMMENT
6-Character Antenna Code: TRMSST                            COMMENT
Vertical Measurement Point: BPA                             COMMENT
Vertical Offset to Rinex Ref. Point: 0.0000                 COMMENT
Radial Measurement Point: RRP                               COMMENT
Radial Offset to Rinex Ref. Point: 0.0000                   COMMENT
Antenna Height from Field Measurement: 2.2200 m             COMMENT
                                                            COMMENT
Original XYZ: -2457793.4838 -4111459.8490 4199209.2441      COMMENT
New XYZ position is based on association with SCEC monument COMMENT
E1P3D4P0+0011. Position of that monument is believed to be  COMMENT
valid to within 1 m horizontally; vertical accuracy         COMMENT
should be no worse than 3-times this value.                 COMMENT
                                                            COMMENT
Revised Rinex header created by UCSD GPS archive for        COMMENT
GSAC on 10-Mar-2000 (2000:070) 04:31:19 GMT                 COMMENT
For assistance contact dagnew@ucsd.edu or hjohnson@ucsd.edu COMMENT
                                                            COMMENT
HPGN CA 0210                                                MARKER NAME
0210                                                        MARKER NUMBER
-Unknown- CALIF DEPT TRANSPORTATION                         OBSERVER / AGENCY
484 TRIMBLE 4000 SST NP 4.30 / SP 4.20                      REC # / TYPE / VERS
18 TR 4000SST L1/L2 GEO                                     ANT # / TYPE
 -2457790.6579 -4111462.8048  4199211.7769                  APPROX POSITION XYZ
        2.2200        0.0000        0.0000                  ANTENNA: DELTA H/E/N
     1     1     0                                          WAVELENGTH FACT L1/2
     5    C1    L1    L2    S1    S2                        # / TYPES OF OBSERV
     0                                                      INTERVAL
  1991     6    19    15    56   15.000000                  TIME OF FIRST OBS
  1991     6    19    18    13   30.000000                  TIME OF LAST OBS
                                                            END OF HEADER
 91  6 19 15 56 15.0000000  0  5G18G 2G11G16G19
  20808406.883          -0.31018                        29.000
  24377331.891          -0.81615                         8.500
  24302400.156          -0.40915                        11.750
  24100842.117          -0.10615                        10.000
  20600422.805          -0.29417                        21.500
 91  6 19 15 56 30.0000000  0  5G18G 2G11G16G19
  20810834.195       12754.302 8        -0.17233        29.250           2.813
  24365415.109      -62612.952 5                         8.500
  24292617.898      -51410.292 6                        12.250
  24092612.500      -43257.387 5                         9.750
  20597616.500      -14758.236 7                        20.750
 91  6 19 15 56 45.0000000  0  5G18G 2G11G16G19
  20813284.352       25624.836 8     10028.80023        29.000           2.844
  24353507.672     -125187.574 5        -0.14331         9.250           0.469
  24282849.953     -102739.499 6        -0.44031        12.500           0.438
  24084403.258      -86394.022 5        -0.26531         9.500           0.375
  20594820.383      -29442.709 7        -0.38832        21.750           1.781
 91  6 19 15 57  0.0000000  0  4G18G 2G11G16
  20815753.555       38608.289 8     20145.75723        29.250           2.781
  24341608.586     -187727.439 5    -48732.47621         9.500           0.500
  24273098.508     -153990.484 6    -39936.23921        12.750           0.375
  24076217.617     -129412.490 5    -33521.15021         9.750           0.313
 91  6 19 15 57 15.0000000  0  5G18G 2G11G16G19
  20818248.273       51721.771 8     30364.05023        29.000           2.750
  24329715.742     -250214.900 5    -97423.96621         9.500           0.469
  24263361.828     -205145.563 6    -79797.30421        12.000           0.344
  24068059.047     -172295.502 5    -66936.46621         9.500           0.375
  20589274.172          -0.28617                        23.250
 91  6 19 15 57 30.0000000  0  5G18G 2G11G16G19
  20820764.531       64938.516 8     40662.80023        29.250           2.938
  24317832.289     -312676.696 5   -146095.45821        10.000           0.469
  24253642.109     -256231.163 6   -119604.23521        12.000           0.438
  24059918.070     -215069.933 5   -100267.18721         9.750           0.250
  20586522.508      -14465.223 7                        22.750
 91  6 19 15 57 45.0000000  0  5G18G 2G11G16G19
  20823296.195       78245.116 8     51031.57023        29.250           2.750
  24305948.023     -375126.076 5   -194757.29021         9.750           0.469
  24243929.055     -307260.314 5   -159367.18921        11.750           0.469
  24051797.266     -257748.653 5   -133523.31521         9.500           0.375
  20583777.680      -28882.709 7                        23.000
 91  6 19 15 58  0.0000000  0  5G18G 2G11G16G19
  20825848.953       91660.444 8     61485.05623        29.250           2.781
  24294070.648     -437543.566 5   -243394.27021         9.750           0.375
  24234234.977     -358213.265 6   -199070.76421        12.250           0.469
  24043694.586     -300312.050 5   -166689.59521         9.500           0.375
  20581047.766      -43233.571 7        -0.31932        22.750           1.781
 91  6 19 15 58 15.0000000  0  5G18G 2G11G16G19
  20828422.563      105185.221 8     72023.82923        29.500           2.906
  24282199.008     -499928.178 5   -292005.61621         9.500           0.344
  24224553.430     -409089.005 6   -238714.15321        12.000           0.375
  24035617.195     -342759.093 5   -199765.20521         9.750           0.313
  20578328.273      -57517.110 7    -11130.35022        22.500           1.719
 91  6 19 15 58 30.0000000  0  5G18G 2G11G16G19
  20831018.844      118830.362 8     82656.39623        29.250           2.813
  24270334.922     -562269.061 5   -340582.89121         9.250           0.438
  24214887.930     -459876.502 6   -278288.79721        12.500           0.531
  24027564.156     -385079.255 5   -232741.96721         9.500           0.313
  20575625.398      -71722.566 7    -22199.53722        22.500           1.750
 91  6 19 15 58 45.0000000  0  5G18G 2G11G16G19
  20833635.008      132573.825 8     93365.57923        29.500           2.875
  24258477.836     -624587.777 5   -389142.89521         9.750           0.438
  24205235.555     -510597.036 6   -317811.26621        12.000           0.531
  24019532.078     -427293.581 5   -265636.23621         9.250           0.375
  20572932.227      -85871.604 7    -33224.76022        22.750           1.656
 91  6 19 15 59  0.0000000  0  5G18G 2G11G16G19
  20836271.211      146431.281 8    104163.58223        29.750           2.750
  24246624.016     -686868.488 5   -437673.29521         9.500           0.500
  24195602.297     -561234.663 6   -357269.13121        12.500           0.531
  24011521.781     -469386.617 5   -298435.99521         9.250           0.281
  20570254.734      -99948.781 7    -44193.98922        22.500           1.656
 91  6 19 15 59 15.0000000  0  5G18G 2G11G16G19
  20838933.250      160414.446 8    115059.54323        29.500           2.656
  24234783.219     -749099.157 5   -486164.69621         9.500           0.375
  24185983.000     -611777.105 6   -396652.82221        12.250           0.406
  24003533.406     -511346.025 5   -331131.64221         9.000           0.250
  20567590.898     -113942.240 7    -55097.98322        23.250           1.719
 91  6 19 15 59 30.0000000  0  5G18G 2G11G16G19
  20841614.969      174507.099 8    126040.82523        29.500           2.781
  24222945.617     -811295.631 5   -534629.43421         9.250           0.281
  24176380.773     -662239.853 6   -435974.43021        12.500           0.469
  23995576.555     -553187.776 5   -363735.58421         9.250           0.438
  20564942.898     -127867.915 7    -65949.15822        22.500           1.688
 91  6 19 15 59 45.0000000  0  5G18G 2G11G16G19
  20844319.125      188721.012 8    137116.58923        29.250           2.688
  24211119.766     -873445.677 5   -583058.01521         9.250           0.344
  24166794.898     -712610.593 6   -475224.32121        12.500           0.438
  23987636.961     -594899.493 5   -396238.21821         9.500           0.344
  20562306.750     -141713.916 7    -76738.24922        23.000           1.688
 91  6 19 16  0  0.0000000  0  5G18G 2G11G16G19
  20847040.406      203025.730 8    148263.11923        29.000           2.688
  24199295.414     -935579.677 5   -631474.09221         9.250           0.406
  24157222.836     -762919.303 6   -514425.90121        12.000           0.500
  23979720.523     -636511.531 5   -428663.17421         9.750           0.281
  20559682.234     -155510.767 7    -87489.04022        23.000           1.656
 91  6 19 16  0 15.0000000  0  5G18G 2G11G16G19
  20849781.047      217423.601 8    159482.22323        29.000           2.781
  24187475.469     -997695.201 5   -679875.76921         9.750           0.406
  24147660.117     -813163.530 5   -553577.20421        11.500           0.438
  23971822.125     -678021.552 5   -461008.64621         9.750           0.469
  20557065.883     -169256.333 7    -98199.87422        23.250           1.656
 91  6 19 16  0 30.0000000  0  5G18G 2G11G16G19
  20852540.320      231919.019 8    170777.34123        29.250           2.750
  24175660.703    -1059787.546 5   -728259.38121        10.250           0.375
  24138112.781     -863338.235 6   -592674.35521        12.250           0.531
  23963942.578     -719424.779 5   -493270.89021         9.250           0.344
  20554461.094     -182946.177 7   -108867.28422        22.750           1.719
 91  6 19 16  0 45.0000000  0  5G18G 2G11G16G19
  20855315.203      246505.177 8    182143.16323        29.000           2.750
  24163848.320    -1121863.074 5   -776629.90421         9.750           0.344
  24128577.813     -913449.684 6   -631722.20221        12.250           0.531
  23956078.227     -760727.391 5   -525454.73521         9.250           0.469
  20551864.859     -196586.891 7   -119496.41222        23.250           1.656
 91  6 19 16  1  0.0000000  0  5G18G 2G11G16G19
  20858111.000      261196.146 8    193590.65723        28.750           2.750
  24152041.750    -1183907.187 5   -824975.94521         9.250           0.344
  24119056.953     -963483.121 6   -670709.26321        13.000           0.656
  23948238.273     -801914.509 5   -557548.60521         9.250           0.406
  20549281.289     -210164.173 7   -130076.11322        23.250           1.656
 91  6 19 16  1 15.0000000  0  5G18G 2G11G16G19
  20860924.500      275982.155 8    205112.20923        29.000           2.656
  24140236.805    -1245929.438 5   -873304.93921         9.000           0.375
  24109545.742    -1013447.958 6   -709642.87121        12.250           0.594
  23940425.172     -842995.827 5   -589560.00421         9.500           0.438
  20546707.602     -223687.632 7   -140613.87422        23.000           1.625
 91  6 19 16  1 30.0000000  0  5G18G 2G11G16G19
  20863757.492      290869.936 8    216713.06723        28.750           2.594
  24128443.344    -1307923.300 5   -921611.80721         9.250           0.500
  24100052.781    -1063337.336 6   -748517.68721        12.500           0.563
  23932628.234     -883965.102 5   -621484.11121         9.500           0.563
  20544146.969     -237150.961 7   -151104.78422        22.750           1.656
 91  6 19 16  1 45.0000000  0  5G18G 2G11G16G19
  20866609.383      305857.710 8    228391.84523        28.500           2.781
  24116649.609    -1369890.146 5   -969897.61721         9.750           0.344
  24090576.297    -1113152.347 6   -787334.55821        12.750           0.625
  23924858.922     -924823.418 5   -653321.74821         9.750           0.469
  20541594.195     -250555.787 7   -161550.10822        23.250           1.625
 91  6 19 16  2  0.0000000  0  5G18G 2G11G16G19
  20869483.711      320959.558 8    240159.50123        28.750           2.781
  24104866.609    -1431815.235 5  -1018150.90521        10.250           0.500
  24081111.664    -1162878.129 6   -826081.88121        12.750           0.656
  23917103.078     -965556.197 5   -685061.57021         9.500           0.469
  20539058.680     -263887.561 7   -171938.50022        22.500           1.625
 91  6 19 16  2 15.0000000  0  5G18G 2G11G16G19
  20872377.953      336167.246 8    252009.63123        28.500           2.750
  24093086.828    -1493706.573 5  -1066377.88421        10.500           0.563
  24071665.305    -1212522.523 6   -864765.79921        13.250           0.594
  23909372.563    -1006171.131 5   -716709.56321         9.000           0.438
  20536533.281     -277154.638 7   -182276.48722        22.500           1.656
 91  6 19 16  2 30.0000000  0  5G18G 2G11G16G19
  20875293.922      351484.946 8    263945.49323        29.000           2.750
  24081318.320    -1555559.984 5  -1114575.30521        10.500           0.500
  24062234.297    -1262081.047 6   -903382.79721        12.750           0.625
  23901668.461    -1046664.105 5   -748262.50521         9.250           0.469
  20534023.359     -290352.962 7   -192560.89722        22.250           1.625
 91  6 19 16  2 45.0000000  0  5G18G 2G11G16G19
  20878228.031      366908.407 8    275963.76423        28.750           2.781
  24069554.141    -1617379.436 5  -1162746.27021        11.000           0.656
  24052817.023    -1311557.495 6   -941935.85321        12.500           0.656
  23893984.570    -1087038.792 5   -779723.29421         9.250           0.500
  20531521.867     -303486.709 7   -202794.98522        23.000           1.688
 91  6 19 16  3  0.0000000  0  5G18G 2G11G16G19
  20881180.320      382425.593 8    288055.06023        28.250           2.656
  24057795.328    -1679176.497 5  -1210899.78521        11.250           0.688
  24043419.266    -1360963.342 6   -980433.88821        14.000           0.531
  23886326.914    -1127306.976 5   -811101.09421         9.250           0.500
  20529033.125     -316567.754 7   -212988.01322        23.000           1.688
 91  6 19 16  3 15.0000000  0  5G18G 2G11G16G19
  20884151.875      398045.125 8    300226.10623        28.000           2.688
  24046043.664    -1740942.466 5  -1259029.07821        11.000           0.531
  24034031.578    -1410289.372 6  -1018869.73621        13.750           0.563
  23878685.367    -1167459.910 5   -842389.09421         9.250           0.469
  20526554.984     -329587.338 7   -223133.14622        23.000           1.625
 91  6 19 16  3 30.0000000  0  5G18G 2G11G16G19
  20887143.883      413762.552 8    312473.44223        28.250           2.719
  24034293.266    -1802681.345 5  -1307137.25821        10.750           0.500
  24024659.398    -1459539.567 6  -1057246.48721        13.750           0.625
  23871067.164    -1207501.439 5   -873590.28121         9.500           0.344
  20524089.117     -342549.906 7   -233233.85322        23.250           1.594
 91  6 19 16  3 45.0000000  0  5G18G 2G11G16G19
  20890155.016      429586.141 8    324803.49823        28.500           2.719
  24022550.594    -1864384.400 5  -1355217.52121        10.750           0.438
  24015301.977    -1508705.113 6  -1095557.27021        13.500           0.594
  23863468.273    -1247423.211 5   -904698.15721         9.250           0.469
  20521635.336     -355446.843 7   -243283.41622        23.250           1.656
 91  6 19 16  4  0.0000000  0  5G18G 2G11G16G19
  20893193.531      445555.582 8    337247.20523        28.250           2.781
  24010824.070    -1926011.848 5  -1403238.87921        11.000           0.469
  24005972.883    -1557745.909 6  -1133770.85521        14.000           0.625
  23855899.781    -1287185.298 5   -935681.59221         9.750           0.438
  20519203.594     -368238.695 7   -253251.09522        22.000           1.594
 91  6 19 16  4 15.0000000  0  5G18G 2G11G16G19
  20896255.055      461642.204 8    349782.21823        28.250           2.813
  23999104.930    -1987592.104 5  -1451223.47621        11.000           0.594
  23996656.211    -1606690.140 6  -1171909.21621        13.250           0.656
  23848357.344    -1326815.687 5   -966562.42521         9.500           0.469
  20516781.000     -380953.955 7   -263159.09322        23.000           1.594
 91  6 19 16  4 30.0000000  0  5G18G 2G11G16G19
  20899334.258      477824.325 8    362391.64823        28.250           2.844
  23987389.195    -2049146.502 5  -1499187.90721        11.000           0.500
  23987358.258    -1655559.123 6  -1209988.89821        13.250           0.625
  23840838.305    -1366335.980 5   -997357.44721         9.500           0.375
  20514374.211     -393614.371 7   -273024.35622        21.750           1.625
 91  6 19 16  4 45.0000000  0  5G18G 2G11G16G19
  20902436.945      494128.721 8    375096.36623        28.000           2.844
  23975687.898    -2110647.763 5  -1547110.93921        10.750           0.500
  23978077.125    -1704325.262 6  -1247988.45821        13.750           0.688
  23833344.094    -1405718.825 5  -1028045.36121        10.000           0.313
  20511977.992     -406192.868 7   -282825.78722        22.750           1.563
 91  6 19 16  5  0.0000000  0  5G18G 2G11G16G19
  20905555.828      510519.510 8    387868.39823        28.000           2.781
  23963987.219    -2172131.724 5  -1595020.47521        11.000           0.531
  23968811.109    -1753024.210 6  -1285935.66721        14.000           0.688
  23825869.711    -1444999.898 5  -1058653.99821        10.250           0.500
  20509596.570     -418725.632 7   -292591.58222        21.500           1.625
 91  6 19 16  5 15.0000000  0  5G18G 2G11G16G19
  20908689.688      526988.037 8    400700.99823        28.000           2.719
  23952291.109    -2233606.640 5  -1642922.97421        11.250           0.594
  23959554.063    -1801663.980 6  -1323836.76321        13.500           0.750
  23818413.102    -1484187.507 5  -1089189.79721        10.750           0.438
  20507216.094     -431220.971 7   -302328.21022        23.000           1.594
 91  6 19 16  5 30.0000000  0  5G18G 2G11G16G19
  20911844.102      543569.212 7    413621.38023        27.750           2.750
  23940598.828    -2295037.383 5  -1690791.06221        11.500           0.531
  23950317.727    -1850209.219 6  -1361664.19521        13.000           0.688
  23810983.719    -1523246.627 5  -1119625.47921        11.000           0.375
  20504850.984     -443644.000 7   -312008.49822        22.500           1.594
 91  6 19 16  5 45.0000000  0  5G18G 2G11G16G19
  20915019.453      560249.795 7    426619.22723        27.750           2.844
  23928915.664    -2356437.064 5  -1738634.94521        11.750           0.438
  23941096.086    -1898672.829 6  -1399428.03221        13.000           0.531
  23803569.953    -1562190.204 5  -1149971.10821        11.000           0.438
  20502498.648     -456007.951 7   -321642.74622        22.500           1.531
 91  6 19 16  6  0.0000000  0  5G18G 2G11G16G19
  20918213.094      577030.704 7    439695.24623        27.750           2.781
  23917238.555    -2417804.455 5  -1786453.66521        11.750           0.531
  23931889.570    -1947053.390 6  -1437127.14521        12.500           0.656
  23796180.813    -1601017.219 5  -1180225.92821        11.000           0.406
  20500158.102     -468311.970 7   -331230.29622        22.250           1.594
 91  6 19 16  6 15.0000000  0  5G18G 2G11G16G19
  20921431.484      593944.266 8    452874.63123        28.000           2.750
  23905574.445    -2479106.670 5  -1834221.59621        11.500           0.531
  23922703.961    -1995317.940 6  -1474735.86521        12.500           0.625
  23788821.031    -1639694.850 5  -1210364.34221        11.000           0.406
  20497833.031     -480523.364 7   -340745.67322        22.500           1.594
 91  6 19 16  6 30.0000000  0  5G18G 2G11G16G19
  20924674.070      610985.355 8    466153.39223        28.000           2.813
  23893919.008    -2540348.595 5  -1881942.54421        10.750           0.469
  23913540.250    -2043471.064 6  -1512257.75421        12.500           0.594
  23781487.078    -1678227.842 5  -1240390.03921        11.250           0.406
  20495527.531     -492647.175 7   -350192.80022        22.250           1.563
 91  6 19 16  6 45.0000000  0  5G18G 2G11G16G19
  20927934.602      628126.345 7    479509.98923        27.750           2.844
  23882270.984    -2601557.663 5  -1929637.88921        10.500           0.563
  23904392.297    -2091540.117 6  -1549714.13921        12.500           0.656
  23774179.234    -1716643.449 5  -1270324.27621        11.000           0.469
  20493230.422     -504710.954 7   -359593.15622        23.000           1.563
 91  6 19 16  7  0.0000000  0  5G18G 2G11G16G19
  20931220.508      645387.776 7    492960.44223        27.750           2.875
  23870631.633    -2662713.162 5  -1977291.47921        10.250           0.563
  23895264.617    -2139503.931 6  -1587088.52921        12.500           0.563
  23766891.500    -1754920.653 5  -1300150.65421        11.000           0.375
  20490950.672     -516694.083 7   -368930.66322        22.500           1.688
 91  6 19 16  7 15.0000000  0  5G18G 2G11G16G19
  20934526.141      662759.115 7    506496.53623        27.750           2.844
  23859004.922    -2723825.163 5  -2024911.19021        11.000           0.531
  23886156.844    -2187372.445 6  -1624388.65921        12.750           0.688
  23759632.430    -1793069.618 5  -1329877.10121        10.750           0.500
  20488683.242     -528606.882 7   -378213.36922        22.750           1.531
 91  6 19 16  7 30.0000000  0  5G18G 2G11G16G19
  20937849.711      680223.187 7    520104.88323        27.500           2.781
  23847382.297    -2784910.578 5  -2072510.18721        11.250           0.531
  23877063.234    -2235162.470 6  -1661627.60921        12.750           0.656
  23752398.555    -1831107.603 5  -1359517.08321        11.000           0.438
  20486428.117     -540466.534 7   -387454.66522        22.250           1.656
 91  6 19 16  7 45.0000000  0  5G18G 2G11G16G19
  20941190.016      697779.413 7    533785.04823        27.250           2.781
  23835763.367    -2845969.595 5  -2120088.59821        11.250           0.438
  23867983.008    -2282874.051 6  -1698805.44321        13.250           0.656
  23745178.094    -1869034.777 5  -1389070.71921        11.000           0.375
  20484179.594     -552273.549 7   -396654.94122        23.000           1.500
 91  6 19 16  8  0.0000000  0  5G18G 2G11G16G19
  20944552.320      715448.369 7    547553.04923        27.250           2.781
  23824152.289    -2906981.225 5  -2167630.11321        11.250           0.469
  23858924.742    -2330485.879 6  -1735905.55321        14.000           0.625
  23737987.922    -1906830.114 5  -1418521.61921        10.500           0.438
  20481947.922     -564007.159 7   -405798.02022        22.500           1.563
 91  6 19 16  8 15.0000000  0  5G18G 2G11G16G19
  20947936.063      733229.190 7    561408.22023        27.250           2.844
  23812550.563    -2967946.147 5  -2215135.21021        11.000           0.438
  23849882.297    -2377998.458 6  -1772928.32221        13.500           0.594
  23730818.352    -1944494.208 5  -1447870.26521        10.500           0.438
  20479728.547     -575668.305 7   -414884.63222        23.000           1.531
 91  6 19 16  8 30.0000000  0  5G18G 2G11G16G19
  20951338.359      751112.544 7    575343.29123        27.000           2.844
  23800956.570    -3028873.518 5  -2262611.04821        11.750           0.500
  23840856.875    -2425420.673 6  -1809880.68521        14.000           0.656
  23723673.922    -1982035.706 5  -1477123.36821        11.000           0.531
  20477521.992     -587266.325 7   -423922.05922        22.250           1.500
 91  6 19 16  8 45.0000000  0  5G18G 2G11G16G19
  20954759.797      769092.246 7    589353.43523        27.000           2.813
  23789366.664    -3089769.030 5  -2310062.06221        11.750           0.656
  23831849.867    -2472758.172 6  -1846767.03021        14.000           0.531
  23716556.078    -2019460.705 5  -1506285.70221        11.000           0.469
  20475324.711     -598807.110 7   -432914.88922        22.750           1.594
 91  6 19 16  9  0.0000000  0  5G18G 2G11G16G19
  20958201.750      787171.352 7    603441.03823        27.250           2.750
  23777786.250    -3150629.738 6  -2357485.95121        12.000           0.688
  23822857.859    -2520007.725 6  -1883584.84821        14.000           0.563
  23709454.508    -2056766.376 5  -1535355.03721        11.000           0.438
  20473142.375     -610287.897 7   -441860.96622        22.000           1.563
 91  6 19 16  9 15.0000000  0  5G18G 2G11G16G19
  20961658.352      805340.561 7    617598.84623        27.250           2.813
  23766211.234    -3211464.314 6  -2404889.48021        12.250           0.563
  23813881.133    -2567177.776 6  -1920340.71021        14.000           0.594
  23702376.086    -2093961.176 5  -1564338.00321        10.500           0.406
  20470965.336     -621717.466 7   -450767.12922        22.750           1.625
 91  6 19 16  9 30.0000000  0  5G18G 2G11G16G19
  20965138.898      823629.876 7    631850.24323        27.250           2.719
  23754642.688    -3272242.686 5  -2452249.21421        11.750           0.531
  23804927.719    -2614237.922 6  -1957010.94021        14.750           0.656
  23695328.883    -2131014.821 5  -1593210.96121        10.500           0.469
  20468806.680     -633065.795 7   -459609.98922        22.500           1.594
 91  6 19 16  9 45.0000000  0  5G18G 2G11G16G19
  20968638.266      842023.647 7    646183.03623        27.000           2.781
  23743087.000    -3332979.884 6  -2499576.85921        12.250           0.500
  23795989.797    -2661203.193 6  -1993607.23521        15.000           0.688
  23688301.383    -2167942.567 5  -1621985.82521        10.750           0.469
  20466658.711     -644348.344 7   -468401.59222        22.500           1.656
 91  6 19 16 10  0.0000000  0  5G18G 2G11G16G19
  20972160.813      860527.073 7    660601.28723        27.500           2.688
  23731537.469    -3393670.267 6  -2546868.03821        13.000           0.625
  23787068.836    -2708067.885 6  -2030125.16421        14.000           0.625
  23681295.758    -2204738.999 5  -1650658.37921        10.250           0.563
  20464524.992     -655559.916 7   -477137.89622        22.250           1.531
 91  6 19 16 10 15.0000000  0  5G18G 2G11G16G19
  20975705.563      879160.411 7    675120.76323        27.250           2.781
  23720004.250    -3454293.381 6  -2594106.81221        13.000           0.594
  23778175.813    -2754811.269 6  -2066548.56621        13.750           0.688
  23674320.742    -2241383.572 5  -1679212.58721         9.750           0.469
  20462407.906     -666680.082 7   -485802.96522        23.000           1.594
 91  6 19 16 10 30.0000000  0  5G18G 2G11G16G19
  20979272.656      897897.131 7    689720.77823        27.500           2.625
  23708473.781    -3514875.713 6  -2641313.79021        12.500           0.531
  23769300.234    -2801459.471 6  -2102897.79521        14.250           0.563
  23667372.250    -2277902.502 5  -1707668.88521         9.500           0.469
  20460305.469     -677735.483 7   -494417.57222        22.750           1.563
 91  6 19 16 10 45.0000000  0  5G18G 2G11G16G19
  20982856.055      916732.651 7    704397.79423        27.250           2.656
  23696951.969    -3575421.655 6  -2688492.40621        12.250           0.625
  23760440.781    -2848016.827 6  -2139176.24321        14.250           0.781
  23660446.125    -2314299.975 5  -1736030.55721         9.500           0.469
  20458213.086     -688730.825 7   -502985.37622        23.000           1.594
 91  6 19 16 11  0.0000000  0  5G18G 2G11G16G19
  20986457.461      935662.854 7    719148.59423        27.250           2.688
  23685436.672    -3635934.947 6  -2735645.58521        12.250           0.531
  23751595.930    -2894486.770 6  -2175386.56021        14.250           0.688
  23653541.516    -2350580.259 5  -1764300.90121         9.750           0.469
  20456132.594     -699669.982 7   -511509.40622        22.750           1.656
 91  6 19 16 11 15.0000000  0  5G18G 2G11G16G19
  20990083.477      954717.015 7    733995.97623        27.500           2.688
  23673934.422    -3696385.746 6  -2782750.07621        12.250           0.594
  23742775.781    -2940839.433 6  -2211505.49821        14.250           0.750
  23646665.203    -2386713.446 5  -1792456.62821         9.750           0.594
  20454065.539     -710523.267 7   -519966.51422        22.750           1.500
 91  6 19 16 11 30.0000000  0  5G18G 2G11G16G19
  20993728.531      973868.778 7    748919.40823        27.500           2.781
  23662435.234    -3756800.077 5  -2829826.14621        11.500           0.688
  23733972.680    -2987100.530 6  -2247553.08321        14.000           0.781
  23639812.750    -2422725.301 5  -1820517.81121        10.000           0.563
  20452013.758     -721316.923 7   -528377.16822        22.500           1.531
 91  6 19 16 11 45.0000000  0  5G18G 2G11G16G19
  20997393.570      993130.977 7    763928.89623        26.750           2.719
  23650948.508    -3817165.094 5  -2876863.78821        11.250           0.656
  23725190.570    -3033256.915 6  -2283519.07821        14.500           0.688
  23632984.055    -2458603.046 5  -1848474.50121        10.000           0.500
  20449971.516     -732038.226 7   -536731.43522        22.750           1.625
 91  6 19 16 12  0.0000000  0  5G18G 2G11G16G19
  21001077.922     1012490.284 7    779014.05423        26.750           2.719
  23639468.531    -3877493.470 5  -2923872.85821        11.500           0.656
  23716422.195    -3079321.245 6  -2319413.33821        14.250           0.813
  23626186.797    -2494359.326 5  -1876336.53321        10.500           0.625
  20447942.672     -742700.226 7   -545039.49822        22.250           1.531
 91  6 19 16 12 15.0000000  0  5G18G 2G11G16G19
  21004784.539     1031970.734 7    794193.60923        26.750           2.750
  23627999.109    -3937761.091 5  -2970834.61421        11.250           0.781
  23707680.781    -3125269.307 6  -2355217.00021        14.500           0.938
  23619406.289    -2529970.177 5  -1904085.25321         9.750           0.500
  20445928.945     -753278.987 7   -553282.69422        23.000           1.594
 91  6 19 16 12 30.0000000  0  5G18G 2G11G16G19
  21008508.859     1051540.514 7    809442.77323        26.750           2.781
  23616536.320    -3997999.503 5  -3017773.59521        11.000           0.688
  23698954.570    -3171132.222 6  -2390954.30921        14.750           0.781
  23612651.422    -2565466.931 5  -1931745.05121         9.750           0.531
  20443926.781     -763806.176 7   -561485.70422        22.750           1.563
 91  6 19 16 12 45.0000000  0  5G18G 2G11G16G19
  21012250.828     1071199.094 7    824761.13323        26.750           2.844
  23605078.445    -4058208.823 5  -3064689.89521        11.250           0.750
  23690239.703    -3216910.001 6  -2426625.28021        13.500           0.906
  23605915.234    -2600849.794 5  -1959316.11521         9.500           0.625
  20441932.984     -774282.114 7   -569648.77722        23.000           1.594
 91  6 19 16 13  0.0000000  0  5G18G 2G11G16G19
  21016008.102     1090949.309 7    840150.89223        26.750           2.781
  23593627.438    -4118386.097 5  -3111581.24621        11.500           0.688
  23681548.883    -3262599.574 6  -2462227.52421        14.750           1.031
  23599203.680    -2636115.709 5  -1986796.04721        10.000           0.594
  20439950.469     -784704.164 7   -577769.86622        22.500           1.688
 91  6 19 16 13 15.0000000  0  5G18G 2G11G16G19
  21019786.055     1110805.072 7    855622.89623        26.500           2.813
  23582185.148    -4178517.194 5  -3158436.59921        11.250           0.688
  23672871.852    -3308186.454 6  -2497749.73621        14.500           1.000
  23592519.711    -2671250.599 5  -2014173.87521        10.250           0.531
  20437979.539     -795058.284 7   -585838.01722        23.250           1.594
 91  6 19 16 13 30.0000000  0  5G18G 2G11G16G19
  21023581.688     1130744.789 7    871160.31823        26.500           2.844
  23570748.367    -4238623.119 5  -3205272.35821        11.750           0.719
  23664212.219    -3353691.597 6  -2533208.25921        14.250           0.875
  23585857.992    -2706275.389 5  -2041465.92921        10.500           0.500
  20436017.859     -805365.677 7   -593869.75621        23.000           1.469
 91  6 19 16 13 45.0000000  0  5G18G 2G11G16G19
  21027395.289     1150793.528 7    886782.69423        26.500           2.781
  23559318.414    -4298678.312 5  -3252068.58621        11.750           0.656
  23655573.492    -3399089.308 6  -2568583.07521        14.500           0.875
  23579214.617    -2741164.860 5  -2068652.51821        10.500           0.438
  20434071.000     -815601.045 7   -601845.37322        22.750           1.563
 91  6 19 16 14  0.0000000  0  5G18G 2G11G16G19
  21031234.523     1170962.916 7    902499.08723        26.500           2.781
  23547901.195    -4358671.019 5  -3298816.12521        11.750           0.625
  23646957.711    -3444367.506 6  -2603864.75721        14.500           0.906
  23572605.984    -2775906.980 5  -2095724.30921        10.500           0.375
  20432138.883     -825752.924 7   -609755.93322        23.000           1.594
 91  6 19 16 14 15.0000000  0  5G18G 2G11G16G19
  21035087.789     1191213.818 7    918278.99323        26.250           2.906
  23536489.695    -4418639.788 5  -3345544.99421        11.750           0.531
  23638355.883    -3489564.644 6  -2639083.27821        14.500           0.875
  23566018.531    -2810540.580 5  -2122711.51721        10.750           0.406
  20430214.070     -835860.124 7   -617631.68222        23.000           1.563
 91  6 19 16 14 30.0000000  0  5G18G 2G11G16G19
  21038962.125     1211570.204 7    934141.08923        26.250           2.875
  23525086.594    -4478560.635 5  -3392236.54621        11.750           0.625
  23629775.219    -3534656.518 6  -2674219.77521        15.250           0.875
  23559452.539    -2845041.600 5  -2149595.42221        11.250           0.500
  20428305.438     -845898.811 7   -625454.04222        22.500           1.625
 91  6 19 16 14 45.0000000  0  5G18G 2G11G16G19
  21042854.789     1232031.137 7    950084.65323        26.000           2.844
  23513694.125    -4538434.417 5  -3438891.41121        11.750           0.563
  23621215.813    -3579643.754 6  -2709274.74521        15.500           0.875
  23552910.953    -2879410.993 5  -2176376.77121        11.500           0.375
  20426407.945     -855870.053 7   -633223.84322        22.500           1.563
 91  6 19 16 14 59.9990000  0  5G18G 2G11G16G19
  21046767.112     1252585.605 7    966101.10823        26.500           2.906
  23502307.659    -4598266.256 6  -3485513.58721        12.250           0.719
  23612675.542    -3624532.230 6  -2744252.75321        15.250           0.938
  23546394.503    -2913655.192 5  -2203060.56621        11.500           0.313
  20424520.956     -865782.313 7   -640947.69222        22.000           1.625
 91  6 19 16 15 14.9990000  0  5G18G 2G11G16G19
  21050698.464     1273248.410 7    982201.97823        26.000           2.781
  23490930.690    -4658051.879 6  -3532099.75021        12.250           0.625
  23604152.651    -3669315.545 6  -2779148.80021        16.000           0.844
  23539906.003    -2947766.528 6  -2229640.81921        12.000           0.375
  20422647.917     -875624.824 7   -648617.18322        22.500           1.656
 91  6 19 16 15 29.9990000  0  5G18G 2G11G16G19
  21054649.112     1294014.809 7    998383.56423        25.500           2.781
  23479564.511    -4717790.364 6  -3578649.18521        13.000           0.656
  23595649.198    -3713993.607 6  -2813962.84821        16.000           0.844
  23533434.901    -2981745.854 5  -2256118.21221        11.750           0.469
  20420787.956     -885400.345 7   -656234.47922        22.250           1.688
 91  6 19 16 15 44.9990000  0  5G18G 2G11G16G19
  21058620.558     1314880.935 7   1014642.86823        25.750           2.875
  23468205.620    -4777484.990 6  -3625164.44621        13.500           0.563
  23587167.972    -3758569.540 6  -2848697.31521        15.750           0.938
  23526994.886    -3015596.859 5  -2282495.62221        11.500           0.406
  20418939.284     -895112.371 7   -663802.29522        22.250           1.563
 91  6 19 16 15 59.9990000  0  5G18G 2G11G16G19
  21062607.503     1335823.394 7   1030961.64623        26.000           2.875
  23456849.995    -4837158.723 6  -3671663.43621        13.500           0.594
  23578698.589    -3803066.116 6  -2883369.93521        15.500           0.906
  23520572.487    -3049342.107 5  -2308790.59221        11.250           0.375
  20417098.948     -904784.158 7   -671338.75622        22.750           1.625
 91  6 19 16 16 14.9990000  0  5G18G 2G11G16G19
  21066610.081     1356864.898 7   1047357.60123        25.750           2.906
  23445502.667    -4896788.836 6  -3718128.42721        13.500           0.688
  23570252.628    -3847460.405 6  -2917962.86821        16.250           0.938
  23514177.823    -3082959.133 5  -2334985.68121        11.250           0.375
  20415269.761     -914392.972 7   -678826.14722        22.250           1.625
 91  6 19 16 16 29.9990000  0  6G18G 2G11G16G19G 6
  21070633.464     1378010.292 7   1063834.50923        25.750           2.813
  23434164.565    -4956370.160 6  -3764555.40421        14.000           0.813
  23561824.159    -3891747.046 6  -2952471.90921        15.500           0.969
  23507804.730    -3116442.845 5  -2361076.88221        11.000           0.469
  20413458.339     -923934.046 7   -686260.75822        21.250           1.563
  24362126.378          -0.26114                         6.750
 91  6 19 16 16 44.9990000  0  6G18G 2G11G16G19G 6
  21074675.433     1399245.653 7   1080381.52623        25.750           2.844
  23422832.487    -5015916.256 6  -3810954.92321        14.000           0.719
  23553415.300    -3935939.382 6  -2986907.46821        16.250           0.813
  23501455.300    -3149806.622 5  -2387074.62221        10.750           0.406
  20411649.245     -933420.997 7   -693653.18822        22.250           1.594
  24352313.487      -51566.291 4                         7.000
 91  6 19 16 16 59.9990000  0  6G18G 2G11G16G19G 6
  21078732.370     1420566.288 7   1096994.98823        25.500           2.719
  23411508.019    -5075431.286 6  -3857330.24521        14.000           0.688
  23545023.386    -3980041.454 6  -3021272.69421        16.500           0.906
  23495124.433    -3183054.519 5  -2412982.05721        10.500           0.406
  20409856.987     -942858.184 7   -701006.85222        21.250           1.563
  24342501.136     -103124.629 4                         6.750
 91  6 19 16 17 14.9990000  0  6G18G 2G11G16G19G 6
  21082815.651     1442025.131 7   1113716.14623        26.000           2.813
  23400197.737    -5134862.268 6  -3903640.07221        13.750           0.719
  23536659.503    -4024000.229 6  -3055526.25921        16.000           0.813
  23488834.261    -3216133.828 5  -2438758.12121        10.250           0.313
  20408076.917     -952192.960 7   -708280.70422        22.250           1.625
  24332703.847     -154622.500 4                         6.750
 91  6 19 16 17 29.9990000  0  6G18G 2G11G16G19G 6
  21086913.464     1463562.996 7   1130498.88123        26.000           2.750
  23388893.159    -5194267.931 6  -3949930.17021        14.000           0.688
  23528307.651    -4067874.130 6  -3089713.68221        15.250           0.781
  23482558.183    -3249103.361 5  -2464448.65121        10.500           0.313
  20406312.339     -961484.206 7   -715520.64322        21.000           1.625
  24322898.120     -206118.793 4        -0.26131         6.750           0.281
 91  6 19 16 17 44.9990000  0  6G18G 2G11G16G19G 6
  21091030.112     1485188.901 7   1147350.21723        26.000           2.719
  23377596.401    -5253639.071 6  -3996193.36221        14.250           0.750
  23519977.589    -4111653.664 6  -3123827.58221        15.250           0.688
  23476307.878    -3281953.638 5  -2490046.27621        10.500           0.500
  20404552.401     -970722.752 7   -722719.51822        22.000           1.500
  24313101.737     -257604.402 4    -40118.84521         6.500           0.313
 91  6 19 16 17 59.9990000  0  6G18G 2G11G16G19G 6
  21095170.065     1506946.410 7   1164304.10023        25.750           2.781
  23366313.526    -5312931.657 6  -4042395.34621        14.750           0.875
  23511672.456    -4155294.753 6  -3157833.60421        15.250           0.750
  23470089.190    -3314640.736 5  -2515516.70021        10.500           0.406
  20402811.401     -979864.897 7   -729843.26722        22.250           1.625
  24303316.042     -309035.512 4    -80194.98321         6.750           0.281
 91  6 19 16 18 14.9990000  0  6G18G 2G11G16G19G 6
  21099326.011     1528789.451 7   1181324.63023        26.000           2.781
  23355037.769    -5372191.420 6  -4088571.75221        15.000           0.875
  23503385.089    -4198843.005 6  -3191767.28521        14.750           0.781
  23463889.519    -3347210.459 5  -2540895.70321        10.750           0.469
  20401081.464     -988956.500 7   -736927.64022        22.000           1.625
  24293533.347     -360458.124 4   -120264.46621         7.250           0.313
 91  6 19 16 18 29.9990000  0  6G18G 2G11G16G19G 6
  21103500.620     1550723.102 7   1198415.77023        26.000           2.719
  23343767.331    -5431413.275 6  -4134718.62821        14.750           0.813
  23495116.253    -4242293.009 6  -3225624.39021        14.750           0.813
  23457715.776    -3379657.455 5  -2566179.06121        11.000           0.469
  20399362.722     -997992.557 7   -743968.73022        21.750           1.563
  24283749.448     -411867.273 4   -160323.47721         7.250           0.250
 91  6 19 16 18 44.9990000  0  6G18G 2G11G16G19G 6
  21107694.605     1572762.496 7   1215589.30123        26.000           2.656
  23332508.503    -5490581.654 6  -4180823.82121        14.500           0.844
  23486870.909    -4285629.001 6  -3259392.67121        14.750           0.781
  23451565.769    -3411966.438 5  -2591354.89521        10.750           0.406
  20397657.339    -1006957.807 7   -750954.64122        22.250           1.594
  24273978.386     -463247.431 5   -200359.89021         7.500           0.125
 91  6 19 16 18 59.9990000  0  6G18G 2G11G16G19G 6
  21111904.331     1594886.713 7   1232828.93723        26.000           2.625
  23321255.159    -5549716.962 6  -4226903.24621        14.250           0.844
  23478643.730    -4328871.274 6  -3293087.92121        15.500           0.906
  23445440.847    -3444158.088 5  -2616439.28921        10.500           0.500
  20395960.792    -1015872.940 7   -757901.49922        21.750           1.625
  24264202.050     -514619.239 5   -240389.83421         7.750           0.281
 91  6 19 16 19 14.9990000  0  6G18G 2G11G16G19G 6
  21116131.855     1617097.757 7   1250136.22823        26.000           2.563
  23310008.347    -5608816.914 6  -4272955.12121        14.500           0.875
  23470432.737    -4372017.384 6  -3326708.24221        15.750           0.688
  23439340.081    -3476229.822 5  -2641430.23921        10.750           0.438
  20394272.776    -1024735.908 7   -764807.70922        22.250           1.563
  24254421.058     -565980.654 4   -280411.62521         7.000           0.219
 91  6 19 16 19 29.9990000  0  6G18G 2G11G16G19G 6
  21120382.761     1639438.725 7   1267544.75923        25.750           2.656
  23298775.855    -5667838.297 6  -4318945.77521        14.250           0.844
  23462248.190    -4415023.862 6  -3360219.75421        15.750           0.781
  23433265.230    -3508138.306 5  -2666293.98721        10.750           0.469
  20392606.151    -1033503.389 7   -771639.51922        21.500           1.563
  24244659.386     -617288.425 5   -320391.64021         7.500           0.188
 91  6 19 16 19 44.9990000  0  6G18G 2G11G16G19G 6
  21124650.081     1661869.441 7   1285023.22223        25.750           2.563
  23287552.050    -5726820.697 6  -4364906.06221        13.750           0.781
  23454083.847    -4457930.107 6  -3393653.16721        16.250           0.781
  23427215.339    -3539923.202 5  -2691061.42621        10.250           0.406
  20390947.409    -1042215.295 7   -778428.02322        22.250           1.625
  24234898.542     -668582.515 5   -360360.99821         7.500           0.219
 91  6 19 16 19 59.9990000  0  6G18G 2G11G16G19G 6
  21128935.433     1684389.353 7   1302571.18823        25.750           2.594
  23276333.573    -5785764.291 6  -4410836.09521        13.500           0.875
  23445938.464    -4500736.257 6  -3427008.58221        16.500           0.813
  23421191.073    -3571584.823 5  -2715732.82121        11.000           0.531
  20389301.276    -1050872.054 7   -785173.55222        21.500           1.656
  24225139.230     -719863.318 5   -400319.99521         7.750           0.250
 91  6 19 16 20 14.9990000  0  6G18G 2G11G16G19G 6
  21133241.792     1707013.799 7   1320200.60923        25.750           2.688
  23265128.331    -5844653.763 6  -4456723.95821        13.250           0.875
  23437815.495    -4543426.618 6  -3460273.77321        16.250           0.781
  23415192.526    -3603107.926 5  -2740296.28021        10.750           0.563
  20387666.183    -1059458.396 7   -791864.21422        22.250           1.563
  24215387.636     -771115.698 5   -440256.84621         7.500           0.125
 91  6 19 16 20 29.9990000  0  6G18G 2G11G16G19G 6
  21137565.355     1729734.982 7   1337905.41423        26.000           2.656
  23253930.495    -5903496.512 6  -4502575.42121        13.500           0.844
  23429710.909    -4586008.590 6  -3493454.49521        16.000           0.813
  23409219.456    -3634500.054 5  -2764757.67321        11.250           0.563
  20386044.698    -1067981.968 7   -798505.95822        21.750           1.594
  24205634.675     -822347.087 5   -480177.35221         7.500           0.094
 91  6 19 16 20 44.9990000  0  6G18G 2G11G16G19G 6
  21141901.448     1752519.899 7   1355659.87423        25.750           2.500
  23242737.276    -5962324.999 6  -4548415.76021        13.750           0.813
  23421622.597    -4628514.556 6  -3526576.00821        16.250           0.844
  23403264.776    -3665793.691 5  -2789142.32521        11.250           0.500
  20384428.300    -1076475.622 7   -805124.39522        22.000           1.688
  24195884.573     -873590.281 5   -520107.04221         7.750           0.250
 91  6 19 16 20 59.9990000  0  6G18G 2G11G16G19G 6
  21146254.737     1775400.252 7   1373488.71023        25.500           2.563
  23231550.659    -6021107.310 6  -4594220.12521        14.000           0.906
  23413554.800    -4670912.148 6  -3559613.07121        16.250           0.938
  23397335.464    -3696956.656 6  -2813425.14421        12.000           0.531
  20382823.980    -1084907.371 7   -811694.59422        21.500           1.594
  24186141.276     -924813.373 5   -560021.07021         8.000           0.250
 91  6 19 16 21 14.9990000  0  6G18G 2G11G16G19G 6
  21150629.073     1798391.649 7   1391404.06722        25.250           2.469
  23220376.722    -6079827.693 6  -4639976.22921        14.000           0.844
  23405508.839    -4713185.486 6  -3592553.31021        16.000           0.906
  23391432.230    -3727973.138 6  -2837593.83021        12.000           0.375
  20381232.901    -1093261.806 7   -818204.54522        22.000           1.625
  24176398.847     -976000.738 5   -599907.26521         7.750           0.250
 91  6 19 16 21 29.9990000  0  6G18G 2G11G16G19G 6
  21155027.589     1821496.941 7   1409408.17523        25.250           2.656
  23209215.292    -6138482.854 6  -4685681.51521        14.000           0.906
  23397488.284    -4755331.057 6  -3625393.97821        16.000           0.844
  23385560.745    -3758840.134 6  -2861646.03721        12.250           0.469
  20379661.222    -1101535.742 7   -824651.76922        21.000           1.625
  24166665.831    -1027149.324 5   -639763.23721         8.000           0.281
 91  6 19 16 21 44.9990000  0  6G18G 2G11G16G19G 6
  21159437.964     1844673.719 7   1427467.98523        25.250           2.656
  23198057.995    -6197114.656 6  -4731368.59921        14.000           0.875
  23389486.120    -4797390.792 6  -3658167.77421        15.750           0.906
  23379703.862    -3789599.765 6  -2885614.57721        12.500           0.375
  20378090.331    -1109771.368 7   -831069.14522        22.000           1.563
  24156932.956    -1078301.265 5   -679621.83221         7.750           0.281
 91  6 19 16 21 59.9990000  0  6G18G 2G11G16G19G 6
  21163863.980     1867935.419 7   1445593.97323        25.250           2.563
  23186908.323    -6255709.641 6  -4777026.99321        14.000           0.906
  23381500.362    -4839351.198 6  -3690864.16321        16.000           0.813
  23373875.909    -3820238.189 6  -2909488.68521        12.000           0.500
  20376536.698    -1117955.478 7   -837446.38022        22.000           1.563
  24147201.308    -1129443.315 5   -719472.68121         8.000           0.281
 91  6 19 16 22 14.9990000  0  6G18G 2G11G16G19G 6
  21168304.222     1891271.514 7   1463777.92623        25.000           2.500
  23175762.526    -6314277.814 6  -4822664.49021        14.000           0.938
  23373535.308    -4881221.899 6  -3723490.66221        16.500           0.875
  23368065.136    -3850765.733 5  -2933276.37621        11.750           0.531
  20374984.511    -1126098.097 7   -843791.28122        21.750           1.656
  24137465.745    -1180585.552 5   -759323.71921         7.750           0.250
 91  6 19 16 22 29.9990000  0  6G18G 2G11G16G19G 6
  21172763.190     1914708.414 7   1482040.43023        25.000           2.500
  23164628.112    -6372792.544 6  -4868260.34221        14.250           0.906
  23365588.425    -4922976.186 6  -3756026.44821        16.250           0.688
  23362284.558    -3881155.734 6  -2956956.89221        12.250           0.500
  20373449.417    -1134172.834 7   -850083.28922        21.250           1.625
  24127742.058    -1231701.664 5   -799154.38421         7.500           0.344
 91  6 19 16 22 44.9990000  0  6G18G 2G11G16G19G 6
  21177241.597     1938241.415 7   1500377.82423        25.000           2.531
  23153501.089    -6431258.222 6  -4913817.97921        14.500           0.969
  23357661.651    -4964618.055 6  -3788474.62921        16.000           0.719
  23356528.050    -3911412.535 6  -2980533.62521        12.000           0.469
  20371924.300    -1142184.168 7   -856325.89122        22.000           1.719
  24118016.636    -1282795.964 5   -838968.05621         7.500           0.188
 91  6 19 16 22 59.9990000  0  6G18G 2G11G16G19G 6
  21181741.331     1961886.949 7   1518802.90223        24.250           2.594
  23142387.433    -6489657.985 6  -4959324.25621        14.500           1.031
  23349763.448    -5006130.622 6  -3820822.05821        16.250           0.719
  23350794.948    -3941519.578 6  -3003993.66021        12.500           0.563
  20370415.261    -1150115.723 7   -862506.32822        22.000           1.625
  24108298.440    -1333851.979 5   -878751.89921         7.750           0.281
 91  6 19 16 23 14.9990000  0  6G18G 2G11G16G19G 6
  21186265.956     1985654.225 7   1537322.84023        24.500           2.625
  23131289.050    -6547982.387 6  -5004771.80321        14.750           1.000
  23341891.808    -5047504.183 6  -3853061.17821        16.500           0.813
  23345100.230    -3971467.488 6  -3027329.67721        12.500           0.531
  20368921.651    -1157958.088 7   -868617.26522        21.500           1.594
  24098595.339    -1384860.454 5   -918498.69721         8.000           0.313
 91  6 19 16 23 29.9990000  0  6G18G 2G11G16G19G 6
  21190803.565     2009506.918 7   1555909.33223        24.500           2.594
  23120197.815    -6606267.525 6  -5050188.75921        14.750           0.906
  23334036.167    -5088774.747 6  -3885220.03421        15.750           0.750
  23339422.917    -4001292.164 6  -3050569.69521        12.000           0.563
  20367440.792    -1165747.405 7   -874686.87322        21.500           1.719
  24088889.565    -1435857.448 5   -958236.55721         8.250           0.250
 91  6 19 16 23 44.9990000  0  6G18G 2G11G16G19G 6
  21195360.355     2033447.694 7   1574564.45823        24.500           2.531
  23109114.776    -6664510.336 6  -5095572.73121        15.000           0.938
  23326204.245    -5129939.152 6  -3917296.16721        15.750           0.844
  23333771.745    -4030990.565 5  -3073711.29621        11.750           0.531
  20365968.315    -1173481.035 7   -880713.08322        22.250           1.719
  24079186.245    -1486840.270 5   -997963.35721         7.750           0.375
 91  6 19 16 23 59.9990000  0  6G18G 2G11G16G19G 6
  21199936.269     2057497.978 7   1593304.91923        24.500           2.531
  23098044.503    -6722688.705 6  -5140906.49221        15.000           1.000
  23318394.730    -5170974.941 6  -3949272.07821        16.000           0.813
  23328146.480    -4060540.476 6  -3096737.18921        12.000           0.500
  20364511.315    -1181136.783 7   -886678.60622        21.500           1.688
  24069494.659    -1537786.849 5  -1037661.93221         8.000           0.188
 91  6 19 16 24 14.9990000  0  6G18G 2G11G16G19G 6
  21204527.261     2081622.259 7   1612103.04523        24.750           2.531
  23086978.620    -6780838.026 6  -5186217.61221        14.750           1.063
  23310606.050    -5211917.383 6  -3981175.25321        16.000           0.688
  23322548.230    -4089977.494 6  -3119675.12621        12.000           0.531
  20363063.628    -1188750.349 7   -892611.25822        22.000           1.625
  24059797.058    -1588732.756 5  -1077359.96921         8.500           0.281
 91  6 19 16 24 29.9990000  0  6G18G 2G11G16G19G 6
  21209139.815     2105858.959 7   1630988.76423        24.500           2.500
  23075925.714    -6838919.723 6  -5231476.03721        14.500           1.000
  23302837.675    -5252727.687 6  -4012975.46521        15.750           0.750
  23316974.644    -4119262.987 6  -3142494.98621        12.250           0.500
  20361629.737    -1196283.233 7   -898481.04222        21.750           1.719
  24050112.409    -1639639.580 5  -1117027.57921         8.500           0.344
 91  6 19 16 24 44.9990000  0  6G18G 2G11G16G19G 6
  21213766.347     2130174.335 7   1649935.79323        24.750           2.563
  23064881.253    -6896966.941 6  -5276707.58921        15.000           0.938
  23295090.519    -5293439.083 6  -4044698.60521        16.000           0.750
  23311423.886    -4148430.279 6  -3165222.74321        12.000           0.406
  20360204.886    -1203769.032 7   -904314.13222        22.000           1.625
  24040421.987    -1690540.796 5  -1156690.79221         8.500           0.313
 91  6 19 16 24 59.9990000  0  6G18G 2G11G16G19G 6
  21218408.026     2154571.571 7   1668946.61123        24.750           2.563
  23053842.136    -6954976.541 6  -5321909.84421        15.250           1.031
  23287361.058    -5334047.994 6  -4076341.89021        15.750           0.563
  23305892.222    -4177476.176 5  -3187855.90021        11.500           0.438
  20358790.401    -1211204.432 7   -910107.95522        22.000           1.625
  24030741.167    -1741433.097 5  -1196347.07221         8.250           0.344
 91  6 19 16 25 14.9990000  0  6G18G 2G11G16G19G 6
  21223075.065     2179085.484 7   1688048.33923        24.750           2.500
  23042815.995    -7012913.295 6  -5367055.33621        15.500           0.969
  23279661.417    -5374518.983 6  -4107877.69721        16.000           0.625
  23300397.636    -4206365.488 5  -3210367.05621        11.500           0.469
  20357391.222    -1218554.446 7   -915835.24422        22.000           1.625
  24021064.050    -1792281.448 5  -1235969.09521         8.000           0.375
 91  6 19 16 25 29.9990000  0  6G18G 2G11G16G19G 6
  21227756.448     2203696.143 7   1707225.45023        24.500           2.563
  23031800.495    -7070796.575 6  -5412159.16321        15.500           0.969
  23271983.237    -5414871.401 6  -4139321.12121        15.500           0.750
  23294927.315    -4235117.666 5  -3232771.34121        11.500           0.469
  20356005.964    -1225838.577 7   -921511.19122        22.000           1.594
  24011392.261    -1843105.550 5  -1275572.23721         8.000           0.313
 91  6 19 16 25 44.9990000  0  6G18G 2G11G16G19G 6
  21232458.308     2228403.562 7   1726477.96922        24.500           2.438
  23020797.612    -7128626.103 6  -5457221.09821        15.750           1.031
  23264326.792    -5455104.851 6  -4170671.83021        15.750           0.781
  23289479.269    -4263732.520 5  -3255068.63821        11.000           0.406
  20354630.480    -1233056.927 7   -927135.89022        22.500           1.688
  24001726.550    -1893905.423 5  -1315156.49121         7.750           0.281
 91  6 19 16 25 59.9990000  0  6G18G 2G11G16G19G 6
  21237184.980     2253232.649 7   1745825.28822        24.750           2.438
  23009807.620    -7186376.670 6  -5502221.50421        15.250           0.906
  23256698.433    -5495193.995 6  -4201910.10121        16.250           0.813
  23284067.870    -4292184.985 5  -3277239.37521        11.250           0.406
  20353273.534    -1240184.530 7   -932689.86822        22.250           1.531
  23992062.933    -1944656.018 5  -1354702.32521         7.500           0.250
 91  6 19 16 26 14.9990000  0  6G18G 2G11G16G19G 6
  21241926.823     2278154.519 7   1765244.90422        24.250           2.406
  22998827.987    -7244076.894 6  -5547182.68421        15.500           0.969
  23249092.378    -5535167.116 6  -4233057.96521        16.250           0.844
  23278681.058    -4320503.643 5  -3299305.85421        11.500           0.500
  20351930.644    -1247250.049 7   -938195.47422        22.250           1.656
  23982416.690    -1995385.853 5  -1394232.02021         8.000           0.281
 91  6 19 16 26 29.9990000  0  6G18G 2G11G16G19G 6
  21246682.237     2303144.874 7   1784717.89723        24.250           2.500
  22987852.089    -7301750.683 6  -5592123.26621        15.500           1.000
  23241501.120    -5575048.107 6  -4264134.04321        16.000           0.844
  23273311.651    -4348712.419 5  -3321286.71921        11.750           0.531
  20350593.480    -1254277.622 7   -943671.51022        22.250           1.656
  23972757.019    -2046119.082 5  -1433764.33821         7.500           0.313
 91  6 19 16 26 44.9990000  0  6G18G 2G11G16G19G 6
  21251450.909     2328208.717 7   1804248.14623        24.500           2.500
  22976883.097    -7359392.833 6  -5637039.19821        15.250           0.969
  23233931.761    -5614831.577 6  -4295134.13021        16.750           0.781
  23267963.776    -4376805.831 5  -3343177.68821        11.250           0.531
  20349263.753    -1261262.037 7   -949113.92022        22.000           1.594
  23963104.323    -2096850.718 5  -1473295.42121         7.750           0.313
 91  6 19 16 26 59.9990000  0  6G18G 2G11G16G19G 6
  21256238.948     2353370.144 7   1823854.43423        24.500           2.531
  22965924.972    -7416978.952 6  -5681911.46821        15.250           1.000
  23226384.815    -5654492.891 6  -4326039.03021        16.500           0.844
  23262644.315    -4404759.911 5  -3364960.07721        11.500           0.594
  20347948.331    -1268179.133 7   -954503.87122        22.000           1.656
  23953457.378    -2147556.356 5  -1512806.22821         8.000           0.281
 91  6 19 16 27 14.9990000  0  6G18G 2G11G16G19G 6
  21261043.394     2378616.800 7   1843527.12523        24.750           2.563
  22954976.222    -7474520.753 6  -5726749.19921        15.500           1.031
  23218856.964    -5694043.828 6  -4356857.91921        16.500           0.750
  23257352.292    -4432586.419 5  -3386643.06021        11.250           0.625
  20346642.105    -1275041.012 7   -959850.79722        22.000           1.656
  23943811.355    -2198248.252 5  -1552306.36221         8.000           0.281
 91  6 19 16 27 29.9990000  0  6G18G 2G11G16G19G 6
  21265862.933     2403945.872 7   1863264.04322        24.750           2.406
  22944033.542    -7532020.618 6  -5771554.25321        15.750           1.031
  23211353.011    -5733486.577 6  -4387592.50221        16.500           0.750
  23252079.714    -4460287.893 5  -3408228.63121        11.500           0.500
  20345347.862    -1281850.238 7   -965156.69422        21.500           1.656
  23934167.394    -2248928.867 5  -1591797.68221         8.000           0.375
 91  6 19 16 27 44.9990000  0  6G18G 2G11G16G19G 6
  21270701.511     2429368.838 7   1883074.13022        24.750           2.375
  22933101.136    -7589467.042 6  -5816317.66521        16.000           1.063
  23203869.128    -5772809.133 6  -4418233.43621        16.250           0.875
  23246831.433    -4487852.662 5  -3429707.67321        11.500           0.563
  20344062.683    -1288595.244 7   -970412.54322        22.000           1.656
  23924524.831    -2299586.716 4  -1631271.26421         7.250           0.219
 91  6 19 16 27 59.9990000  0  6G18G 2G11G16G19G 6
  21275554.167     2454872.131 7   1902946.81022        24.750           2.406
  22922177.245    -7646873.278 6  -5861049.76521        16.000           1.094
  23196408.120    -5812024.817 6  -4448791.08921        16.750           0.844
  23241610.995    -4515294.318 5  -3451090.77621        11.750           0.500
  20342788.425    -1295289.590 7   -975628.92522        22.000           1.688
  23914889.565    -2350235.168 4  -1670737.54221         7.250           0.344
 91  6 19 16 28 14.9990000  0  6G18G 2G11G16G19G 6
  21280428.659     2480489.164 7   1922908.11222        24.750           2.344
  22911267.980    -7704205.506 6  -5905724.19321        16.000           1.031
  23188971.120    -5851099.633 6  -4479238.97521        16.250           0.906
  23236422.417    -4542578.659 5  -3472351.30521        11.500           0.500
  20341531.847    -1301899.538 7   -980779.53922        22.000           1.688
  23905260.651    -2400840.637 5  -1710170.31021         7.500           0.250
 91  6 19 16 28 29.9990000  0  6G18G 2G11G16G19G 6
  21285326.105     2506221.575 7   1942959.31822        24.750           2.344
  22900372.714    -7761461.808 6  -5950339.46521        16.250           1.063
  23181563.855    -5890031.622 6  -4509575.57321        16.500           0.813
  23231255.839    -4569704.048 5  -3493487.97821        11.250           0.656
  20340288.862    -1308423.612 7   -985863.24122        22.000           1.656
  23895636.230    -2451401.517 5  -1749568.33921         7.500           0.219
 91  6 19 16 28 44.9990000  0  6G18G 2G11G16G19G 6
  21290235.620     2532022.950 7   1963064.25622        24.750           2.406
  22889482.409    -7818687.889 6  -5994931.19421        16.250           1.063
  23174172.784    -5928866.368 6  -4539836.40021        16.250           0.844
  23226116.690    -4596716.463 5  -3514536.61421        11.500           0.594
  20339056.269    -1314907.654 7   -990915.74822        21.750           1.656
  23886014.769    -2501963.631 5  -1788967.32221         7.750           0.281
 91  6 19 16 28 59.9990000  0  6G18G 2G11G16G19G 6
  21295161.456     2557903.724 7   1983231.07122        24.500           2.344
  22878599.901    -7875873.299 6  -6039491.22221        16.000           1.000
  23166804.128    -5967593.290 6  -4570013.20021        16.500           0.813
  23221001.956    -4623605.542 6  -3535489.15021        12.000           0.531
  20337835.761    -1321341.329 7   -995929.00722        21.000           1.625
  23876394.183    -2552516.667 5  -1828359.23921         7.750           0.313
 91  6 19 16 29 14.9990000  0  6G18G 2G11G16G19G 6
  21300105.925     2583893.138 7   2003482.54222        24.250           2.250
  22867731.308    -7932988.474 6  -6083996.51721        15.750           1.094
  23159461.081    -6006182.539 6  -4600082.72121        16.500           0.875
  23215912.730    -4650341.440 5  -3556322.32321        11.500           0.500
  20336622.433    -1327695.217 7  -1000880.09622        22.000           1.688
  23866782.308    -2603031.242 5  -1867721.17921         7.750           0.313
 91  6 19 16 29 29.9990000  0  6G18G 2G11G16G19G 6
  21305067.183     2609968.200 7   2023800.74722        24.250           2.313
  22856871.948    -7990056.003 6  -6128464.69121        16.000           1.031
  23152137.972    -6044656.528 6  -4630062.42921        16.500           0.938
  23210848.448    -4676946.815 5  -3577053.78221        11.250           0.563
  20335427.347    -1333992.085 7  -1005786.75322        21.250           1.625
  23857174.683    -2653530.036 5  -1907070.81521         7.500           0.344
 91  6 19 16 29 44.9990000  0  6G18G 2G11G16G19G 6
  21310049.151     2636130.818 7   2044187.17722        24.500           2.219
  22846022.003    -8047073.522 6  -6172893.89621        16.500           1.094
  23144839.503    -6083012.718 6  -4659950.35321        16.250           0.906
  23205811.261    -4703419.713 5  -3597682.02021        10.750           0.625
  20334237.722    -1340229.793 7  -1010647.31422        22.250           1.750
  23847568.956    -2704010.829 5  -1946406.43821         7.750           0.406
 91  6 19 16 29 59.9990000  0  6G18G 2G11G16G19G 6
  21315044.253     2662390.320 7   2064649.10322        24.250           2.219
  22835184.456    -8104031.480 6  -6217276.69121        16.500           1.063
  23137566.651    -6121241.517 6  -4689738.99421        16.750           0.938
  23200799.933    -4729750.463 5  -3618199.48621        11.000           0.594
  20333067.261    -1346398.896 7  -1015454.41522        21.000           1.719
  23837967.230    -2754464.273 5  -1985720.76321         7.750           0.375
 91  6 19 16 30 14.9990000  0  6G18G 2G11G16G19G 6
  21320060.894     2688747.015 7   2085186.76522        24.250           2.281
  22824357.167    -8160929.341 6  -6261612.65421        16.500           1.063
  23130315.847    -6159342.125 6  -4719427.75621        17.250           0.875
  23195817.128    -4755938.497 5  -3638605.74621        11.250           0.563
  20331902.667    -1352498.880 7  -1020207.66522        22.000           1.656
  23828368.480    -2804889.881 5  -2025013.36521         8.000           0.313
 91  6 19 16 30 29.9990000  0  6G18G 2G11G16G19G 6
  21325088.823     2715174.502 7   2105779.58822        24.250           2.188
  22813535.644    -8217793.110 6  -6305922.04521        16.500           1.219
  23123083.112    -6197340.337 6  -4749036.73221        16.750           1.000
  23190858.589    -4782009.841 5  -3658921.08621        11.250           0.594
  20330751.183    -1358555.869 7  -1024927.40722        22.250           1.750
  23818777.347    -2855313.848 5  -2064304.70121         7.750           0.250
 91  6 19 16 30 44.9990000  0  6G18G 2G11G16G19G 6
  21330140.511     2741709.415 7   2126456.12622        24.250           2.281
  22802727.800    -8274585.792 6  -6350176.05321        16.250           1.156
  23115879.073    -6235199.108 6  -4778537.06421        16.750           0.969
  23185928.956    -4807927.695 5  -3679116.80821        11.250           0.594
  20329612.612    -1364533.181 7  -1029585.06222        22.250           1.719
  23809186.011    -2905699.429 5  -2103566.13121         7.750           0.375
 91  6 19 16 30 59.9990000  0  6G18G 2G11G16G19G 6
  21335206.065     2768334.284 7   2147202.75222        24.250           2.219
  22791930.409    -8331324.354 6  -6394387.88121        16.250           1.094
  23108699.230    -6272935.367 6  -4807941.91021        16.250           0.938
  23181018.112    -4833709.381 5  -3699206.43621        11.250           0.625
  20328487.003    -1370447.991 7  -1034194.01422        22.250           1.750
  23799601.081    -2956063.863 5  -2142811.08821         7.500           0.438
 91  6 19 16 31 14.9990000  0  6G18G 2G11G16G19G 6
  21340289.276     2795054.630 7   2168023.77422        24.000           2.125
  22781145.519    -8388003.378 6  -6438553.31821        16.000           1.063
  23101541.800    -6310543.501 6  -4837246.92421        16.750           0.813
  23176138.901    -4859349.497 5  -3719185.74321        11.750           0.531
  20327374.136    -1376295.031 7  -1038750.15422        22.250           1.688
  23790021.339    -3006401.702 5  -2182035.30121         7.750           0.344
 91  6 19 16 31 29.9990000  0  6G18G 2G11G16G19G 6
  21345392.198     2821867.641 7   2188917.00822        24.250           2.031
  22770369.565    -8444625.104 6  -6482674.11521        16.000           1.125
  23094408.659    -6348025.536 6  -4866453.68321        16.500           0.969
  23171286.331    -4884850.129 5  -3739056.37321        11.250           0.500
  20326275.526    -1382076.690 7  -1043255.35222        21.750           1.719
  23780448.487    -3056715.440 5  -2221240.75221         7.750           0.375
 91  6 19 16 31 44.9990000  0  6G18G 2G11G16G19G 6
  21350511.144     2848777.350 7   2209885.58922        24.000           2.000
  22759608.558    -8501185.174 6  -6526746.86421        16.250           1.000
  23087302.519    -6385376.909 6  -4895558.62721        16.750           0.906
  23166463.245    -4910206.687 5  -3758814.72921        11.500           0.500
  20325187.644    -1387788.772 7  -1047706.33222        22.000           1.625
  23770881.175    -3107000.748 5  -2260424.04321         8.000           0.375
 91  6 19 16 31 59.9990000  0  6G18G 2G11G16G19G 6
  21355652.987     2875797.047 7   2230939.87422        24.250           2.031
  22748858.886    -8557669.896 6  -6570760.90721        16.500           1.000
  23080220.651    -6422583.975 6  -4924551.13621        16.250           0.875
  23161666.792    -4935405.838 5  -3778450.43421        11.250           0.531
  20324117.081    -1393417.860 7  -1052092.64122        21.500           1.625
  23761318.245    -3157244.226 5  -2299574.73921         7.750           0.406
 91  6 19 16 32 14.9990000  0  6G18G 2G11G16G19G 6
  21360811.331     2902900.955 7   2252059.78222        24.000           2.094
  22738119.800    -8614104.580 6  -6614735.95021        16.500           1.094
  23073163.823    -6459671.837 6  -4953450.75021        16.500           0.813
  23156897.011    -4960473.039 5  -3797983.31921        11.250           0.500
  20323055.800    -1398989.319 7  -1056434.04822        21.750           1.688
  23751760.128    -3207471.290 5  -2338712.66421         7.500           0.406
 91  6 19 16 32 29.9990000  0  6G18G 2G11G16G19G 6
  21365991.065     2930117.919 7   2273267.78522        24.250           2.094
  22727395.308    -8670460.346 6  -6658649.50221        16.500           1.063
  23066135.003    -6496611.370 6  -4982234.78721        16.750           0.875
  23152156.901    -4985379.452 5  -3817390.91321        11.250           0.438
  20322013.659    -1404474.434 7  -1060708.17122        21.000           1.625
  23742211.034    -3257653.158 5  -2377815.35521         7.750           0.438
 91  6 19 16 32 44.9990000  0  6G18G 2G11G16G19G 6
  21371195.362     2957468.018 7   2294579.53122        23.750           1.969
  22716691.019    -8726716.708 6  -6702485.60621        16.750           1.094
  23059137.620    -6533382.109 6  -5010887.30021        16.500           0.938
  23147457.292    -5010104.699 5  -3836657.34721        11.250           0.500
  20320988.433    -1409852.907 7  -1064899.20122        21.750           1.656
  23732677.112    -3307769.631 5  -2416867.09721         8.000           0.188
 91  6 19 16 32 59.9990000  0  6G18G 2G11G16G19G 6
  21376425.292     2984942.110 7   2315987.89122        23.750           2.063
  22706001.667    -8782882.400 6  -6746251.05321        16.750           1.188
  23052169.089    -6569992.447 6  -5039414.81821        16.250           0.813
  23142781.714    -5034657.405 5  -3855789.31221        11.000           0.500
  20319983.206    -1415133.689 7  -1069014.10522        21.250           1.656
  23723149.784    -3357829.530 5  -2455874.74421         8.250           0.375
 91  6 19 16 33 14.9990000  0  6G18G 2G11G16G19G 6
  21381665.269     3012487.893 7   2337452.11122        23.500           2.000
  22695321.698    -8839009.355 6  -6789986.30821        16.750           1.156
  23045225.878    -6606494.394 6  -5067857.87221        16.750           0.844
  23138130.589    -5059089.609 5  -3874827.38921        11.250           0.500
  20318986.940    -1420368.955 7  -1073093.53922        21.500           1.688
  23713626.144    -3407884.992 5  -2494878.95221         8.250           0.406
 91  6 19 16 33 29.9990000  0  6G18G 2G11G16G19G 6
  21386923.308     3040118.225 7   2358982.21222        24.000           2.094
  22684651.378    -8895084.358 6  -6833681.08621        16.750           1.094
  23038300.519    -6642874.470 6  -5096205.98021        16.250           0.875
  23133507.784    -5083388.410 5  -3893761.51921        11.000           0.500
  20318003.636    -1425545.596 7  -1077127.29222        21.500           1.688
  23704100.542    -3457922.878 5  -2533869.43521         8.250           0.281
 91  6 19 16 33 44.9990000  0  6G18G 2G11G16G19G 6
  21392190.261     3067801.581 7   2380553.63022        24.000           2.063
  22673983.331    -8951138.588 6  -6877359.67521        16.500           1.188
  23031397.831    -6679163.701 6  -5124483.28621        16.750           0.875
  23128904.440    -5107584.702 5  -3912615.76121        11.000           0.625
  20317022.401    -1430694.795 7  -1081139.65922        22.000           1.656
  23694574.331    -3507974.493 5  -2572870.64921         8.250           0.344
 91  6 19 16 33 59.9990000  0  6G18G 2G11G16G19G 6
  21397471.190     3095544.706 7   2402171.62622        24.000           2.094
  22663321.597    -9007164.862 6  -6921016.47421        17.000           1.281
  23024507.925    -6715354.797 6  -5152684.13421        16.500           0.844
  23124318.370    -5131671.669 5  -3931384.83221        10.500           0.469
  20316050.823    -1435809.555 7  -1085125.19422        21.250           1.563
  23685053.253    -3558032.863 5  -2611877.11521         8.250           0.344
 91  6 19 16 34 14.9990000  0  6G18G 2G11G16G19G 6
  21402765.487     3123371.043 7   2423854.46022        23.750           2.063
  22652669.964    -9063139.281 6  -6964632.87621        17.250           1.281
  23017644.901    -6751423.799 6  -5180789.82921        16.750           0.938
  23119760.776    -5155625.403 5  -3950050.06421        11.000           0.469
  20315087.448    -1440866.356 7  -1089065.56922        22.000           1.625
  23675525.245    -3608074.314 5  -2650870.38721         8.500           0.313
 91  6 19 16 34 29.9990000  0  6G18G 2G11G16G19G 6
  21408079.651     3151293.701 7   2445612.34922        23.750           2.063
  22642030.706    -9119048.618 6  -7008198.55821        17.500           1.281
  23010806.667    -6787357.296 6  -5208789.94921        16.750           0.906
  23115231.862    -5179432.764 5  -3968601.26521        11.000           0.531
  20314138.675    -1445852.145 7  -1092950.60622        21.500           1.594
  23666008.784    -3658085.801 5  -2689840.32521         8.750           0.344
 91  6 19 16 34 44.9990000  0  6G18G 2G11G16G19G 6
  21413414.003     3179323.921 7   2467454.05822        24.000           2.031
  22631407.058    -9174881.496 6  -7051704.66621        18.000           1.188
  23003997.206    -6823143.691 6  -5236675.43321        16.500           0.906
  23110728.870    -5203082.481 5  -3987029.61221        11.000           0.563
  20313204.401    -1450755.423 7  -1096771.34922        21.750           1.688
  23656499.730    -3708055.903 5  -2728778.01321         8.750           0.375
 91  6 19 16 34 59.9990000  0  6G18G 2G11G16G19G 6
  21418758.151     3207407.459 7   2489337.31222        23.750           2.031
  22620786.792    -9230691.672 6  -7095193.08821        17.750           1.281
  22997204.050    -6858836.534 6  -5264488.02421        16.750           0.906
  23106247.019    -5226628.422 5  -4005377.09221        11.000           0.500
  20312278.464    -1455630.149 7  -1100569.84422        21.500           1.563
  23646989.456    -3758038.510 5  -2767725.45121         9.000           0.313
 91  6 19 16 35 14.9990000  0  6G18G 2G11G16G19G 6
  21424121.761     3235592.808 7   2511299.89222        23.750           2.094
  22610180.128    -9286430.464 6  -7138625.87821        17.500           1.281
  22990439.901    -6894387.021 6  -5292189.69321        16.500           0.844
  23101796.995    -5250022.120 5  -4023605.94221        11.000           0.625
  20311364.472    -1460427.945 7  -1104308.39422        21.500           1.594
  23637487.042    -3807985.177 5  -2806644.89521         9.250           0.406
 91  6 19 16 35 29.9990000  0  6G18G 2G11G16G19G 6
  21429500.964     3263861.127 7   2533327.12622        23.750           2.000
  22599582.292    -9342116.151 6  -7182017.30121        17.250           1.219
  22983698.565    -6929813.323 6  -5319794.59321        16.500           0.969
  23097370.605    -5273281.701 5  -4041730.29221        11.000           0.531
  20310461.847    -1465167.150 7  -1108001.28622        21.500           1.563
  23627985.253    -3857914.423 5  -2845550.73821         9.250           0.344
 91  6 19 16 35 44.9990000  0  6G18G 2G11G16G19G 6
  21434898.339     3292220.315 7   2555425.16722        23.750           2.063
  22588996.542    -9397740.543 6  -7225360.95221        17.250           1.188
  22976981.886    -6965107.181 6  -5347296.28521        16.750           0.938
  23092970.901    -5296399.109 5  -4059743.85521        11.250           0.594
  20309572.901    -1469839.683 7  -1111642.23122        21.500           1.656
  23618489.026    -3907818.079 5  -2884436.64421         9.250           0.406
 91  6 19 16 35 59.9990000  0  6G18G 2G11G16G19G 6
  21440308.823     3320654.840 7   2577581.91122        23.750           1.938
  22578422.175    -9453318.624 6  -7268668.51821        16.750           1.219
  22970288.698    -7000283.596 6  -5374706.47721        17.000           0.875
  23088597.073    -5319389.638 5  -4077658.55121        11.000           0.438
  20308694.745    -1474460.964 7  -1115243.23622        21.000           1.594
  23608994.839    -3957711.441 5  -2923314.54621         9.750           0.344
 91  6 19 16 36 14.9990000  0  6G18G 2G11G16G19G 6
  21445733.526     3349168.812 7   2599800.57222        23.750           2.031
  22567854.425    -9508846.191 6  -7311936.71621        17.000           1.313
  22963617.831    -7035338.080 6  -5402021.64821        16.750           0.844
  23084249.933    -5342248.855 5  -4095470.93321        11.000           0.531
  20307823.495    -1479026.699 7  -1118800.96222        21.250           1.625
  23599506.151    -4007590.289 5  -2962181.13221         9.750           0.344
 91  6 19 16 36 29.9990000  0  6G18G 2G11G16G19G 6
  21451177.097     3377773.088 7   2622089.60322        24.250           2.094
  22557300.440    -9564312.025 6  -7355156.81521        17.250           1.281
  22956970.339    -7070259.327 6  -5429232.99921        16.500           0.844
  23079922.581    -5364965.660 5  -4113172.33421        11.000           0.594
  20306969.964    -1483525.901 7  -1122306.83822        21.000           1.563
  23590013.230    -4057443.702 5  -3001027.89421         9.250           0.406
 91  6 19 16 36 44.9990000  0  6G18G 2G11G16G19G 6
  21456636.722     3406459.472 7   2644442.61522        23.500           1.938
  22546754.886    -9619723.987 6  -7398334.93721        17.500           1.313
  22950351.862    -7105055.092 6  -5456346.56821        17.250           0.938
  23075625.815    -5387548.022 5  -4130768.97721        10.750           0.438
  20306123.808    -1487966.602 7  -1125767.13322        21.250           1.625
  23580532.206    -4107279.588 5  -3039861.00221         9.000           0.406
 91  6 19 16 36 59.9990000  0  6G18G 2G11G16G19G 6
  21462116.823     3435255.943 7   2666881.40122        23.500           2.000
  22536226.589    -9675053.377 6  -7441448.71721        17.750           1.344
  22943758.480    -7139696.723 6  -5483340.04321        17.000           1.000
  23071360.370    -5409967.639 5  -4148238.80421        11.000           0.563
  20305295.800    -1492320.286 7  -1129159.62322        21.000           1.688
  23571057.667    -4157069.631 5  -3078658.37021         9.000           0.438
 91  6 19 16 37 14.9990000  0  6G18G 2G11G16G19G 6
  21467609.769     3464129.945 7   2689380.59622        23.250           2.063
  22525709.253    -9730332.864 6  -7484523.61321        18.000           1.281
  22937190.690    -7174216.578 6  -5510238.62421        17.000           1.000
  23067117.808    -5432257.064 5  -4165607.18921        10.750           0.531
  20304477.573    -1496619.924 7  -1132509.99322        21.250           1.500
  23561584.659    -4206846.360 5  -3117445.37921         9.000           0.344
 91  6 19 16 37 29.9990000  0  6G18G 2G11G16G19G 6
  21473117.761     3493068.574 7   2711930.14722        23.500           2.031
  22515195.425    -9785574.969 6  -7527569.37821        18.250           1.313
  22930642.292    -7208627.011 6  -5537051.92921        16.750           1.000
  23062901.448    -5454429.233 5  -4182884.20321        11.000           0.563
  20303667.269    -1500878.063 7  -1135828.03322        20.750           1.563
  23552113.237    -4256622.570 5  -3156231.98321         9.000           0.469
 91  6 19 16 37 44.9990000  0  6G18G 2G11G16G19G 6
  21478641.730     3522098.141 7   2734550.56922        23.250           1.875
  22504695.878    -9840753.018 6  -7570565.23321        17.750           1.281
  22924118.933    -7242901.079 6  -5563758.99121        17.000           1.031
  23058708.347    -5476457.300 5  -4200048.92721        11.250           0.500
  20302870.355    -1505067.997 7  -1139092.92222        21.000           1.625
  23542646.081    -4306371.591 5  -3194997.39321         9.250           0.375
 91  6 19 16 37 59.9990000  0  6G18G 2G11G16G19G 6
  21484182.315     3551212.642 7   2757237.17022        23.250           2.000
  22494206.065    -9895872.466 6  -7613515.42321        17.750           1.406
  22917623.667    -7277044.347 6  -5590364.12221        17.000           0.906
  23054542.878    -5498346.650 5  -4217105.55221        11.250           0.656
  20302085.245    -1509195.535 7  -1142309.19622        21.000           1.563
  23533186.909    -4356099.269 5  -3233746.19521         8.750           0.344
 91  6 19 16 38 14.9990000  0  6G18G 2G11G16G19G 6
  21489738.956     3580419.195 7   2779995.49622        23.250           1.969
  22483730.089    -9950925.916 6  -7656414.18121        17.750           1.438
  22911153.058    -7311049.164 6  -5616861.37321        17.000           1.000
  23050405.151    -5520090.287 5  -4234048.66021        11.250           0.406
  20301311.745    -1513253.371 7  -1145471.15322        21.250           1.531
  23523725.737    -4405798.093 5  -3272472.49121         9.500           0.281
 91  6 19 16 38 29.9990000  0  6G18G 2G11G16G19G 6
  21495311.433     3609698.912 7   2802810.83322        23.750           1.875
  22473261.300   -10005931.676 6  -7699275.78521        17.750           1.406
  22904704.464    -7344933.874 6  -5643265.04321        17.250           0.969
  23046293.690    -5541706.583 5  -4250892.52121        11.000           0.531
  20300548.987    -1517260.016 7  -1148593.22222        21.250           1.594
  23514271.065    -4455486.803 5  -3311190.92121         9.250           0.375
 91  6 19 16 38 44.9990000  0  6G18G 2G11G16G19G 6
  21500897.245     3639056.465 7   2825686.82722        24.000           1.875
  22462805.167   -10060885.013 6  -7742096.53521        18.000           1.313
  22898278.956    -7378693.597 6  -5669571.31321        17.000           1.000
  23042199.550    -5563190.737 5  -4267633.42621        11.000           0.469
  20299798.019    -1521211.052 7  -1151671.95722        21.000           1.625
  23504819.058    -4505160.806 5  -3349897.89221         9.500           0.344
 91  6 19 16 38 59.9990000  0  6G18G 2G11G16G19G 6
  21506505.472     3668517.412 7   2848643.38722        23.750           1.875
  22452361.776   -10115759.968 6  -7784856.21521        18.000           1.406
  22891883.909    -7412302.176 6  -5695759.81121        17.000           1.000
  23038148.050    -5584517.050 5  -4284251.32521        11.500           0.563
  20299060.612    -1525080.442 7  -1154687.07222        20.750           1.594
  23495375.714    -4554794.058 5  -3388573.09621         9.250           0.313
 91  6 19 16 39 14.9990000  0  6G18G 2G11G16G19G 6
  21512129.456     3698069.900 7   2871671.27722        23.500           1.844
  22441934.448   -10170568.216 6  -7827563.90821        18.500           1.438
  22885516.253    -7445771.201 6  -5721839.55721        17.500           1.063
  23034115.112    -5605697.016 5  -4300755.21121        11.250           0.500
  20298338.644    -1528879.934 7  -1157647.72122        20.750           1.656
  23485935.144    -4604398.393 5  -3427225.78321         9.250           0.281
 91  6 19 16 39 29.9990000  0  6G18G 2G11G16G19G 6
  21517768.065     3727705.057 7   2894763.58922        23.750           1.844
  22431515.589   -10225318.045 6  -7870226.08221        18.000           1.375
  22879170.659    -7479108.859 6  -5747816.94821        17.250           0.938
  23030110.058    -5626739.327 5  -4317151.82121        11.000           0.563
  20297627.745    -1532618.169 7  -1160560.63922        20.500           1.594
  23476497.933    -4653982.323 5  -3465862.55621         9.000           0.406
 91  6 19 16 39 44.9990000  0  6G18G 2G11G16G19G 6
  21523425.456     3757437.827 7   2917931.96022        23.500           1.781
  22421110.776   -10279994.495 6  -7912831.07821        18.250           1.250
  22872853.870    -7512300.012 6  -5773680.18021        17.250           0.969
  23026137.511    -5647628.862 5  -4333429.37121        11.250           0.500
  20296930.550    -1536280.168 7  -1163414.14922        20.500           1.656
  23467071.690    -4703531.007 5  -3504471.87921         9.000           0.375
 91  6 19 16 39 59.9990000  0  6G18G 2G11G16G19G 6
  21529095.050     3787228.037 7   2941145.09222        23.500           1.875
  22410713.151   -10334637.209 6  -7955409.78921        18.500           1.344
  22866560.331    -7545384.367 6  -5799460.19021        17.500           0.969
  23022181.925    -5668405.465 5  -4349618.94221        11.250           0.375
  20296242.214    -1539906.012 7  -1166239.48922        20.250           1.594
  23457641.651    -4753084.336 5  -3543084.81521         9.250           0.250
 91  6 19 16 40 14.9990000  0  6G18G 2G11G16G19G 6
  21534778.511     3817099.406 7   2964421.45822        23.500           1.969
  22400325.300   -10389221.892 6  -7997943.27621        18.250           1.406
  22860289.214    -7578337.486 6  -5825137.93821        17.250           0.969
  23018253.675    -5689045.432 5  -4365702.03721        11.250           0.563
  20295561.097    -1543471.446 7  -1169017.75722        20.500           1.594
  23448211.933    -4802618.211 5  -3581682.58921         9.250           0.344
 91  6 19 16 40 29.9990000  0  6G18G 2G11G16G19G 6
  21540477.644     3847047.700 7   2987757.76322        23.500           1.844
  22389949.019   -10443752.830 6  -8040434.88921        18.250           1.344
  22854042.198    -7611163.334 6  -5850716.51221        17.500           0.969
  23014349.886    -5709552.625 5  -4381681.67721        11.500           0.563
  20294893.300    -1546980.583 7  -1171752.15522        20.750           1.594
  23438791.808    -4852136.790 5  -3620268.43021         9.500           0.313
 91  6 19 16 40 44.9990000  0  6G18G 2G11G16G19G 6
  21546194.745     3877084.746 7   3011163.22822        23.500           1.781
  22379583.800   -10498217.642 6  -8082874.96821        18.250           1.406
  22847822.995    -7643849.415 6  -5876186.18121        17.500           0.875
  23010476.745    -5729914.691 5  -4397548.21621        11.250           0.500
  20294239.183    -1550421.305 7  -1174433.24222        20.750           1.500
  23429372.964    -4901627.887 5  -3658832.87621         9.000           0.344
 91  6 19 16 40 59.9990000  0  6G18G 2G11G16G19G 6
  21551926.597     3907209.109 7   3034636.73522        23.250           1.688
  22369232.628   -10552617.456 6  -8125264.40321        19.000           1.406
  22841627.667    -7676396.691 6  -5901547.69221        17.250           0.875
  23006626.706    -5750133.248 5  -4413302.94321        11.250           0.594
  20293597.409    -1553794.956 7  -1177062.06622        21.000           1.531
  23419958.659    -4951092.828 5  -3697376.93921         9.000           0.344
 91  6 19 16 41 14.9990000  0  6G18G 2G11G16G19G 6
  21557677.261     3937429.191 7   3058184.82422        23.000           1.688
  22358894.386   -10606943.522 6  -8167596.38421        19.000           1.313
  22835462.261    -7708796.432 6  -5926794.22921        17.500           0.875
  23002809.378    -5770199.646 5  -4428939.09921        11.500           0.531
  20292969.519    -1557092.963 7  -1179631.94822        20.500           1.656
  23410552.690    -5000522.987 5  -3735893.91321         9.000           0.313
 91  6 19 16 41 29.9990000  0  6G18G 2G11G16G19G 6
  21563440.050     3967710.480 7   3081780.60922        23.500           1.781
  22348564.480   -10661230.119 6  -8209897.59521        19.000           1.344
  22829319.183    -7741082.851 6  -5951952.46521        17.750           0.906
  22999011.855    -5790148.159 6  -4444483.40021        12.000           0.531
  20292352.894    -1560349.877 6  -1182169.80722        19.500           1.688
  23401143.690    -5049952.758 5  -3774410.55921         8.750           0.344
 91  6 19 16 41 44.9990000  0  6G18G 2G11G16G19G 6
  21569222.847     3998092.423 7   3105454.82322        23.750           1.844
  22338249.019   -10715437.076 6  -8252136.75121        19.000           1.469
  22823204.659    -7773215.697 6  -5976991.04221        18.000           0.938
  22995253.628    -5809938.510 5  -4459904.45521        11.750           0.531
  20291745.737    -1563525.691 7  -1184644.47022        20.250           1.594
  23391746.972    -5099342.280 5  -3812895.85221         8.500           0.281
 91  6 19 16 41 59.9990000  0  6G18G 2G11G16G19G 6
  21575022.487     4028576.558 7   3129208.67322        23.500           1.719
  22327948.800   -10769562.698 6  -8294312.52621        19.000           1.438
  22817119.886    -7805193.079 6  -6001908.48021        17.500           1.000
  22991516.144    -5829569.226 6  -4475201.11221        12.000           0.500
  20291159.315    -1566618.642 6  -1187054.56722        19.500           1.656
  23382358.331    -5148689.880 5  -3851348.47921         8.500           0.281
 91  6 19 16 42 14.9990000  0  6G18G 2G11G16G19G 6
  21580835.659     4059124.479 7   3153012.22822        23.250           1.719
  22317657.745   -10823645.030 6  -8336454.57621        19.000           1.406
  22811056.589    -7837052.883 6  -6026734.29021        17.250           0.938
  22987799.550    -5849078.480 5  -4490403.14121        11.750           0.438
  20290576.847    -1569666.998 7  -1189429.91622        20.750           1.531
  23372971.026    -5198033.671 5  -3889798.13921         9.000           0.281
 91  6 19 16 42 29.9990000  0  6G18G 2G11G16G19G 6
  21586660.901     4089742.240 7   3176870.19622        23.250           1.750
  22307375.550   -10877677.711 6  -8378557.93521        19.000           1.406
  22805016.690    -7868788.758 6  -6051463.53821        17.750           1.000
  22984114.534    -5868460.017 5  -4505505.63921        11.750           0.500
  20290009.901    -1572664.435 6  -1191765.58722        19.500           1.594
  23363581.675    -5247367.650 5  -3928240.14321         8.750           0.406
 91  6 19 16 42 44.9990000  0  6G18G 2G11G16G19G 6
  21592504.480     4120451.419 7   3200799.39922        23.000           1.656
  22297105.909   -10931639.099 6  -8420605.74122        18.500           1.531
  22799006.073    -7900378.972 6  -6076079.28121        18.000           1.000
  22980447.237    -5887692.704 6  -4520492.15621        12.250           0.375
  20289448.894    -1575589.600 7  -1194044.93822        20.500           1.625
  23354198.964    -5296670.065 5  -3966657.55421         9.000           0.500
 91  6 19 16 42 59.9990000  0  6G18G 2G11G16G19G 6
  21598365.698     4151245.168 7   3224794.50022        23.500           1.750
  22286849.550   -10985535.506 6  -8462602.91522        18.250           1.531
  22793020.105    -7931829.771 6  -6100586.38621        17.250           0.906
  22976821.362    -5906782.732 6  -4535367.50621        12.500           0.469
  20288905.440    -1578448.869 7  -1196272.94522        20.250           1.563
  23344821.425    -5345947.424 5  -4005055.45121         9.500           0.406
 91  6 19 16 43 14.9990000  0  6G18G 2G11G16G19G 6
  21604242.534     4182126.117 7   3248857.55622        23.500           1.656
  22276606.706   -11039363.727 6  -8504546.95721        18.750           1.406
  22787062.175    -7963137.908 6  -6124982.33621        17.000           1.000
  22973215.073    -5925726.999 6  -4550129.28021        12.250           0.406
  20288374.370    -1581239.328 7  -1198447.33722        20.000           1.625
  23335448.862    -5395196.899 5  -4043431.60621         9.750           0.438
 91  6 19 16 43 29.9990000  0  6G18G 2G11G16G19G 6
  21610134.011     4213087.139 7   3272982.99722        23.250           1.656
  22266375.558   -11093130.568 6  -8546443.16622        18.750           1.531
  22781131.097    -7994309.839 6  -6149272.14421        17.000           1.000
  22969636.589    -5944532.315 6  -4564782.76221        12.000           0.531
  20287855.144    -1583967.811 6  -1200573.42922        19.750           1.688
  23326082.847    -5444425.126 5  -4081791.21321        10.250           0.438
 91  6 19 16 43 44.9990000  0  6G18G 2G11G16G19G 6
  21616041.581     4244138.964 7   3297179.19922        23.000           1.594
  22256158.581   -11146825.040 6  -8588282.98721        19.000           1.438
  22775227.495    -8025334.560 6  -6173447.24321        17.000           1.031
  22966093.237    -5963187.768 6  -4579319.48321        12.000           0.469
  20287350.339    -1586623.509 7  -1202642.80622        20.000           1.656
  23316718.980    -5493621.380 5  -4120125.91221        10.250           0.375
 91  6 19 16 43 59.9990000  0  6G18G 2G11G16G19G 6
  21621969.987     4275287.309 7   3321450.61422        23.250           1.625
  22245955.378   -11200440.952 6  -8630061.58721        19.250           1.438
  22769352.659    -8056205.817 6  -6197502.75921        17.000           1.000
  22962566.065    -5981687.478 6  -4593734.84321        12.000           0.438
  20286860.550    -1589200.425 6  -1204650.79722        19.500           1.594
  23307364.011    -5542779.722 5  -4158431.06821        10.250           0.469
 91  6 19 16 44 14.9990000  0  6G18G 2G11G16G19G 6
  21627909.628     4306499.130 7   3345771.49222        22.750           1.656
  22235761.589   -11254011.243 6  -8671804.64321        19.500           1.406
  22763501.144    -8086956.539 6  -6221464.35221        17.000           1.156
  22959065.472    -6000064.310 5  -4608054.44921        11.750           0.500
  20286377.706    -1591731.569 6  -1206623.12322        19.750           1.688
  23298010.745    -5591933.041 5  -4196732.31221        10.250           0.375
 91  6 19 16 44 29.9990000  0  6G18G 2G11G16G19G 6
  21633864.464     4337796.190 7   3370158.78922        22.500           1.656
  22225580.276   -11307513.933 6  -8713495.02822        19.500           1.531
  22757677.222    -8117564.469 6  -6245314.67421        16.750           1.031
  22955597.034    -6018296.654 6  -4622261.47621        12.000           0.531
  20285910.417    -1594195.090 6  -1208542.74922        19.500           1.594
  23288662.589    -5641059.513 5  -4235012.64021        10.750           0.406
 91  6 19 16 44 44.9990000  0  6G18G 2G11G16G19G 6
  21639837.980     4369191.520 7   3394622.65622        22.500           1.594
  22215414.253   -11360935.385 6  -8755122.10321        19.500           1.438
  22751881.737    -8148015.949 6  -6269043.08921        16.750           1.031
  22952165.534    -6036371.011 6  -4636345.38821        12.250           0.625
  20285456.042    -1596577.512 7  -1210399.18422        20.000           1.688
  23279323.448    -5690145.622 5  -4273261.50921        10.750           0.344
 91  6 19 16 44 59.9990000  0  6G18G 2G11G16G19G 6
  21645828.644     4400664.994 7   3419147.41722        22.250           1.625
  22205259.808   -11414295.236 6  -8796701.17422        19.250           1.594
  22746112.870    -8178330.590 6  -6292664.88021        16.500           1.063
  22948747.081    -6054307.068 6  -4650321.53521        12.250           0.438
  20285014.987    -1598898.642 6  -1212207.86422        19.500           1.594
  23269986.800    -5739211.231 5  -4311494.41021        11.000           0.438
 91  6 19 16 45 14.9990000  0  6G18G 2G11G16G19G 6
  21651831.292     4432217.670 7   3443733.88822        22.500           1.688
  22195117.964   -11467592.213 6  -8838231.25622        19.000           1.531
  22740371.956    -8208506.940 6  -6316178.90721        16.750           1.125
  22945365.815    -6072103.778 6  -4664189.09621        12.500           0.469
  20284584.386    -1601157.331 7  -1213967.88622        20.250           1.594
  23260653.206    -5788255.137 5  -4349710.40321        10.750           0.406
 91  6 19 16 45 29.9990000  0  6G18G 2G11G16G19G 6
  21657856.534     4463872.439 7   3468399.91522        21.750           1.656
  22184992.230   -11520803.088 6  -8879694.24721        19.250           1.438
  22734659.956    -8238521.700 6  -6339567.02221        17.000           1.063
  22942005.347    -6089738.055 6  -4677930.08221        12.500           0.469
  20284172.628    -1603330.596 6  -1215661.34022        19.500           1.813
  23251329.190    -5837254.306 5  -4387891.52921        10.750           0.469
 91  6 19 16 45 44.9990000  0  6G18G 2G11G16G19G 6
  21663896.144     4495607.385 7   3493128.41722        21.750           1.719
  22174878.050   -11573949.473 6  -8921106.98622        19.500           1.594
  22728973.855    -8268396.379 6  -6362845.98221        17.000           0.969
  22938673.495    -6107231.480 6  -4691561.32221        12.500           0.563
  20283769.753    -1605440.136 7  -1217305.13622        20.250           1.656
  23242007.698    -5886230.455 5  -4426054.74021        10.250           0.469
 91  6 19 16 45 59.9990000  0  6G18G 2G11G16G19G 6
  21669938.980     4527373.269 7   3517881.03122        21.500           1.500
  22164766.792   -11627080.516 6  -8962507.77222        19.500           1.500
  22723307.097    -8298179.917 6  -6386053.91821        17.250           1.125
  22935364.792    -6124633.179 6  -4705121.08221        12.750           0.531
  20283372.230    -1607535.088 6  -1218937.56922        19.750           1.719
  23232681.995    -5935232.716 5  -4464238.27321        10.000           0.438
 91  6 19 16 46 14.9990000  0  6G18G 2G11G16G19G 6
  21676002.394     4559226.009 7   3542701.32622        21.750           1.656
  22154671.855   -11680139.649 7  -9003852.52122        20.000           1.500
  22717667.401    -8327815.681 6  -6409146.70621        17.000           1.000
  22932083.034    -6141887.147 6  -4718565.73321        12.500           0.469
  20282986.909    -1609559.139 7  -1220514.75722        20.000           1.656
  23223363.620    -5984204.712 5  -4502398.23521         9.500           0.344
 91  6 19 16 46 29.9990000  0  6G18G 2G11G16G19G 6
  21682082.628     4591183.216 7   3567603.02422        22.000           1.656
  22144591.019   -11733109.058 6  -9045127.35522        19.500           1.563
  22712057.792    -8357285.721 6  -6432110.36321        16.500           1.063
  22928833.034    -6158975.164 6  -4731881.07521        12.500           0.531
  20282619.776    -1611494.386 6  -1222022.74522        19.750           1.719
  23214056.073    -6033128.720 5  -4540520.78421         9.500           0.375
 91  6 19 16 46 44.9990000  0  6G18G 2G11G16G19G 6
  21688179.370     4623220.558 7   3592567.16022        21.750           1.625
  22134523.855   -11786012.559 6  -9086350.83522        19.500           1.500
  22706478.394    -8386613.946 6  -6454963.51321        17.000           1.000
  22925605.136    -6175921.535 6  -4745086.03621        12.250           0.500
  20282261.901    -1613364.938 7  -1223480.32422        20.750           1.688
  23204747.769    -6082028.834 5  -4578624.71921         9.500           0.469
 91  6 19 16 46 59.9990000  0  6G18G 2G11G16G19G 6
  21694290.503     4655330.745 7   3617588.05722        21.750           1.625
  22124468.511   -11838857.086 7  -9127528.37022        20.000           1.625
  22700923.511    -8415807.217 6  -6477711.50621        17.250           1.094
  22922406.269    -6192733.267 6  -4758186.08321        12.000           0.531
  20281918.550    -1615177.976 6  -1224893.08722        19.750           1.656
  23195446.683    -6130912.172 5  -4616715.58921         9.250           0.469
 91  6 19 16 47 14.9990000  0  6G18G 2G11G16G19G 6
  21700417.503     4687539.908 7   3642686.08022        21.750           1.531
  22114428.675   -11891616.049 6  -9168639.21722        19.750           1.500
  22695397.034    -8444838.768 6  -6500333.48921        16.750           1.188
  22919237.065    -6209383.840 6  -4771160.55721        12.250           0.500
  20281588.776    -1616907.042 7  -1226240.41522        20.500           1.656
  23186153.253    -6179752.111 5  -4654772.64621         9.500           0.500
 91  6 19 16 47 29.9990000  0  6G18G 2G11G16G19G 6
  21706569.276     4719852.827 7   3667864.95522        21.750           1.594
  22104405.784   -11944284.437 6  -9209679.49422        19.750           1.594
  22689905.565    -8473703.633 6  -6522825.57621        17.000           1.094
  22916098.940    -6225868.850 6  -4784006.01421        12.250           0.469
  20281276.823    -1618547.293 6  -1227518.53622        19.750           1.781
  23176868.917    -6228543.895 5  -4692792.17621        10.000           0.500
 91  6 19 16 47 44.9990000  0  6G18G 2G11G16G19G 6
  21712734.847     4752257.396 7   3693115.23721        21.500           1.469
  22094397.909   -11996874.128 6  -9250658.44822        19.750           1.531
  22684443.222    -8502413.438 6  -6545196.84621        17.250           1.156
  22912993.003    -6242199.784 6  -4796731.41121        12.250           0.531
  20280977.792    -1620110.651 7  -1228736.74322        20.250           1.656
  23167591.995    -6277299.417 5  -4730783.43921        10.000           0.469
 91  6 19 16 47 59.9980000  0  6G18G 2G11G16G19G 6
  21718918.373     4784764.509 7   3718445.42922        21.250           1.500
  22084409.404   -12049368.423 7  -9291563.06222        20.000           1.656
  22679010.264    -8530953.033 6  -6567435.47921        17.000           1.031
  22909919.389    -6258362.580 6  -4809325.80121        12.250           0.625
  20280698.029    -1621583.953 7  -1229884.77822        20.000           1.750
  23158320.131    -6326002.276 5  -4768733.67021        10.000           0.500
 91  6 19 16 48 14.9980000  0  6G18G 2G11G16G19G 6
  21725119.389     4817348.747 7   3743835.72221        20.750           1.406
  22074431.295   -12101803.571 7  -9332421.59922        20.000           1.625
  22673605.959    -8559355.380 6  -6589567.16121        17.250           1.094
  22906867.115    -6274388.908 6  -4821813.85921        12.250           0.438
  20280428.647    -1622996.559 7  -1230985.51822        20.250           1.750
  23149056.045    -6374688.372 5  -4806670.85221        10.250           0.375
 91  6 19 16 48 29.9980000  0  6G18G 2G11G16G19G 6
  21731333.115     4849994.684 7   3769274.09022        20.500           1.500
  22064461.943   -12154188.892 7  -9373241.29622        20.000           1.656
  22668225.732    -8587631.355 6  -6611600.38721        17.500           1.250
  22903841.053    -6290290.681 5  -4834204.84921        11.750           0.563
  20280169.850    -1624361.506 6  -1232049.12222        19.750           1.781
  23139792.795    -6423367.547 5  -4844602.62621        10.250           0.438
 91  6 19 16 48 44.9980000  0  6G18G 2G11G16G19G 6
  21737556.936     4882699.222 7   3794758.11322        21.000           1.500
  22054502.748   -12206526.763 6  -9414024.02922        19.750           1.625
  22662866.967    -8615783.424 6  -6633537.05121        17.250           1.094
  22900837.701    -6306070.443 5  -4846500.77221        11.750           0.563
  20279917.428    -1625681.514 7  -1233077.70522        20.500           1.781
  23130531.404    -6472042.357 5  -4882530.99921        10.500           0.531
 91  6 19 16 48 59.9980000  0  6G18G 2G11G16G19G 6
  21743799.662     4915511.216 7   3820325.87622        20.750           1.531
  22044562.334   -12258768.416 6  -9454731.78122        19.750           1.750
  22657543.764    -8643762.579 6  -6655338.97521        17.750           1.156
  22897867.537    -6321679.412 6  -4858663.61821        12.000           0.563
  20279684.943    -1626907.610 7  -1234033.11522        20.000           1.656
  23121279.717    -6520664.013 5  -4920417.96821        10.750           0.500
 91  6 19 16 49 14.9980000  0  6G18G 2G11G16G19G 6
  21750051.693     4948358.591 7   3845921.20621        20.750           1.406
  22034624.725   -12310985.320 6  -9495420.25122        19.750           1.656
  22652239.795    -8671640.170 6  -6677061.76821        18.250           1.219
  22894919.576    -6337189.326 6  -4870749.26521        12.000           0.594
  20279453.818    -1628111.516 7  -1234971.22922        20.250           1.719
  23112025.326    -6569304.082 5  -4958319.27321        10.750           0.469
 91  6 19 16 49 29.9980000  0  6G18G 2G11G16G19G 6
  21756323.357     4981311.339 7   3871598.64721        20.750           1.438
  22024706.490   -12363107.368 6  -9536034.80622        19.500           1.594
  22646967.615    -8699346.057 6  -6698650.75921        18.250           1.250
  22891995.826    -6352530.364 6  -4882703.32821        12.250           0.688
  20279244.928    -1629223.335 6  -1235837.58722        19.750           1.813
  23102774.975    -6617892.667 5  -4996180.46221        10.750           0.406
 91  6 19 16 49 44.9980000  0  6G18G 2G11G16G19G 6
  21762617.490     5014390.736 7   3897374.77821        21.000           1.469
  22014808.998   -12415112.625 6  -9576558.35522        19.500           1.563
  22641730.795    -8726858.276 6  -6720088.84421        18.000           1.219
  22889112.623    -6367680.567 6  -4894508.68821        12.000           0.688
  20279053.412    -1630221.245 7  -1236615.18622        20.500           1.781
  23093544.709    -6666407.989 5  -5033984.56021        11.000           0.406
 91  6 19 16 49 59.9980000  0  6G18G 2G11G16G19G 6
  21768925.818     5047544.895 7   3923209.16821        20.500           1.438
  22004926.397   -12467052.888 6  -9617031.25522        19.500           1.594
  22636523.443    -8754228.589 6  -6741416.34921        18.250           1.281
  22886260.803    -6382692.078 6  -4906205.97221        12.250           0.656
  20278877.811    -1631157.130 7  -1237344.45522        20.000           1.750
  23084317.381    -6714901.929 5  -5071772.00621        10.500           0.469
 91  6 19 16 50 14.9980000  0  6G18G 2G11G16G19G 6
  21775240.654     5080735.669 7   3949072.08521        20.750           1.469
  21995047.740   -12518966.100 6  -9657483.08622        19.750           1.719
  22631335.076    -8781494.841 6  -6762662.76921        18.500           1.219
  22883419.975    -6397602.996 6  -4917824.87821        12.000           0.531
  20278702.717    -1632069.129 7  -1238055.11222        20.250           1.719
  23075084.623    -6763412.593 5  -5109572.47821        10.500           0.438
 91  6 19 16 50 29.9980000  0  6G18G 2G11G16G19G 6
  21781566.428     5113969.344 7   3974968.42721        21.000           1.406
  21985174.818   -12570845.494 7  -9697908.56022        20.000           1.531
  22626166.248    -8808650.027 6  -6783822.64621        18.250           1.156
  22880605.912    -6412406.287 6  -4929359.91321        12.500           0.531
  20278536.131    -1632950.561 6  -1238741.95122        19.750           1.781
  23065852.147    -6811933.161 5  -5147380.67421        10.500           0.344
 91  6 19 16 50 44.9980000  0  6G18G 2G11G16G19G 6
  21787899.389     5147260.520 7   4000909.57521        21.000           1.438
  21975311.779   -12622675.971 7  -9738295.92322        20.000           1.688
  22621022.967    -8835678.939 6  -6804884.13221        18.000           1.250
  22877809.842    -6427087.034 6  -4940799.47221        12.250           0.656
  20278376.100    -1633786.548 7  -1239393.37822        20.000           1.750
  23056619.404    -6860448.766 5  -5185184.99721        10.500           0.438
 91  6 19 16 50 59.9980000  0  6G18G 2G11G16G19G 6
  21794253.514     5180633.385 7   4026914.38121        21.000           1.438
  21965463.256   -12674432.882 7  -9778625.95522        20.000           1.594
  22615908.545    -8862557.064 6  -6825828.11021        17.750           1.156
  22875045.412    -6441621.087 6  -4952124.71721        12.500           0.531
  20278230.936    -1634552.494 7  -1239990.22622        20.000           1.844
  23047393.397    -6908934.847 5  -5222966.33121        10.250           0.469
 91  6 19 16 51 14.9980000  0  6G18G 2G11G16G19G 6
  21800625.498     5214122.074 7   4053009.42621        20.750           1.438
  21955633.404   -12726082.280 7  -9818872.21522        20.000           1.688
  22610828.748    -8889250.232 6  -6846627.97821        17.750           1.188
  22872313.248    -6455974.312 6  -4963309.05221        12.750           0.625
  20278103.959    -1635214.327 7  -1240505.94322        20.500           1.844
  23038178.053    -6957357.540 5  -5260698.25421        10.000           0.469
 91  6 19 16 51 29.9980000  0  6G18G 2G11G16G19G 6
  21807017.232     5247709.839 7   4079181.67621        20.500           1.438
  21945822.764   -12777640.293 7  -9859047.25622        20.000           1.844
  22605782.404    -8915774.583 6  -6867296.29621        18.000           1.188
  22869611.217    -6470163.103 6  -4974365.26621        12.500           0.625
  20277993.850    -1635788.492 7  -1240953.35422        20.000           1.875
  23028973.139    -7005733.046 5  -5298393.41221         9.750           0.344
 91  6 19 16 51 44.9980000  0  6G18G 2G11G16G19G 6
  21813421.209     5281378.967 7   4105417.32521        20.250           1.313
  21936026.475   -12829124.228 7  -9899164.58222        20.250           1.781
  22600765.373    -8942147.232 6  -6887846.39921        18.500           1.188
  22866937.834    -6484204.821 6  -4985306.87021        12.250           0.594
  20277899.232    -1636292.354 7  -1241345.98022        20.500           1.781
  23019773.428    -7054078.841 5  -5336065.41121         9.750           0.375
 91  6 19 16 51 59.9980000  0  6G18G 2G11G16G19G 6
  21819839.232     5315099.141 7   4131692.75221        20.750           1.375
  21926237.318   -12880564.105 7  -9939247.57822        20.000           1.844
  22595767.756    -8968398.221 6  -6908301.71121        17.750           1.156
  22864291.561    -6498130.091 6  -4996157.73021        12.250           0.531
  20277811.451    -1636756.049 7  -1241707.30222        20.250           1.875
  23010574.045    -7102425.076 5  -5373737.76621        10.250           0.469
 91  6 19 16 52 14.9980000  0  6G18G 2G11G16G19G 6
  21826273.607     5348907.897 7   4158037.20721        20.750           1.344
  21916462.873   -12931922.178 6  -9979266.82422        19.750           1.719
  22590802.764    -8994489.738 6  -6928632.75821        18.250           1.219
  22861673.373    -6511900.887 6  -5006888.22821        12.500           0.594
  20277736.686    -1637142.072 7  -1242008.10622        20.500           1.844
  23001380.693    -7150734.157 5  -5411381.17121        10.250           0.469
 91  6 19 16 52 29.9980000  0  6G18G 2G11G16G19G 6
  21832722.248     5382795.859 7   4184443.38721        20.500           1.250
  21906705.522   -12983206.889 7 -10019228.91322        20.000           1.781
  22585866.912    -9020430.405 6  -6948846.25521        18.250           1.188
  22859074.147    -6525526.290 6  -5017505.43021        12.250           0.656
  20277677.647    -1637459.140 7  -1242255.18322        20.000           1.875
  22992194.701    -7199014.749 5  -5449002.38321        10.250           0.438
 91  6 19 16 52 44.9980000  0  6G18G 2G11G16G19G 6
  21839185.365     5416772.104 7   4210918.35121        20.000           1.313
  21896961.014   -13034408.990 7 -10059126.62622        20.250           1.844
  22580960.795    -9046210.739 6  -6968934.81721        18.250           1.250
  22856511.404    -6538996.983 6  -5028002.08321        12.250           0.563
  20277628.912    -1637697.936 7  -1242441.26422        20.500           1.719
  22983011.647    -7247257.666 5  -5486594.22021        10.250           0.438
 91  6 19 16 52 59.9980000  0  6G18G 2G11G16G19G 6
  21845664.381     5450810.717 7   4237441.91621        20.000           1.344
  21887228.943   -13085554.334 7 -10098980.11922        20.250           1.656
  22576079.967    -9071856.564 6  -6988918.57621        18.500           1.188
  22853976.451    -6552339.196 6  -5038398.61321        12.500           0.594
  20277596.256    -1637884.455 7                        20.500
  22973833.693    -7295488.809 5  -5524176.90721        10.250           0.375
 91  6 19 16 53 14.9980000  0  6G18G 2G11G16G19G 6
  21852151.240     5484899.044 6   4264004.21921        19.750           1.250
  21877505.037   -13136655.259 7 -10138798.99122        20.500           1.656
  22571224.365    -9097379.975 6  -7008806.93921        18.750           1.156
  22851458.904    -6565564.945 6  -5048704.41121        12.500           0.563
  20277566.764    -1638031.005 7                        20.500
  22964654.647    -7343720.498 5  -5561760.00021        10.750           0.469
 91  6 19 16 53 29.9980000  0  6G18G 2G11G16G19G 6
  21858650.029     5519051.309 6   4290616.34521        19.750           1.281
  21867792.029   -13187697.015 7 -10178571.76922        21.000           1.781
  22566392.482    -9122766.324 6  -7028588.50121        18.000           1.125
  22848966.404    -6578659.881 6  -5058908.25221        12.500           0.719
  20277550.178    -1638123.198 7                        20.500
  22955481.084    -7391938.302 5  -5599332.28121        10.750           0.438
 91  6 19 16 53 44.9980000  0  6G18G 2G11G16G19G 6
  21865161.701     5553274.204 6   4317283.50921        19.500           1.281
  21858091.975   -13238672.662 7 -10218293.01322        21.250           1.656
  22561590.475    -9148008.572 6  -7048257.78221        18.500           1.125
  22846501.053    -6591617.517 6  -5069005.11421        12.250           0.531
  20277542.818    -1638154.130 7                        20.500
  22946310.147    -7440135.374 5  -5636888.41121        10.750           0.563
 91  6 19 16 53 59.9980000  0  6G18G 2G11G16G19G 6
  21871688.389     5587564.470 7   4344003.16921        20.000           1.344
  21848402.678   -13289585.285 7 -10257965.16322        21.250           1.719
  22556812.756    -9173109.717 6  -7067817.10921        18.500           1.156
  22844058.732    -6604440.825 6  -5078997.31421        12.250           0.594
  20277552.748    -1638126.941 6                        19.250
  22937139.436    -7488314.784 5  -5674430.77321        11.000           0.531
 91  6 19 16 54 14.9980000  0  6G18G 2G11G16G19G 6
  21878224.850     5621921.176 6   4370774.59521        19.750           1.188
  21838726.654   -13340435.047 7 -10297588.33522        21.500           1.781
  22552062.404    -9198069.913 6  -7087266.60621        18.000           1.188
  22841646.350    -6617129.808 6  -5088884.83321        12.250           0.688
  20277565.912    -1638041.961 7                        20.000
  22927976.139    -7536476.903 5  -5711959.66521        10.750           0.656
 91  6 19 16 54 29.9980000  0  6G18G 2G11G16G19G 6
  21884775.670     5656343.222 6   4397596.93921        19.750           1.344
  21829061.506   -13391223.011 7 -10337163.34522        21.750           1.656
  22547339.436    -9222890.042 6  -7106606.96221        18.250           1.219
  22839257.943    -6629685.823 6  -5098668.75321        12.000           0.563
  20277595.240    -1637900.410 6                        19.000
  22918810.912    -7584622.718 5  -5749475.85021        11.000           0.594
 91  6 19 16 54 44.9980000  0  6G18G 2G11G16G19G 6
  21891339.248     5690836.645 6   4424474.89921        19.750           1.219
  21819409.732   -13441942.493 7 -10376684.99822        21.750           1.750
  22542643.342    -9247563.625 6  -7125833.12721        17.750           1.156
  22836890.639    -6642102.723 6  -5108344.25721        12.250           0.531
  20277630.084    -1637695.844 7                        20.250
  22909655.678    -7632745.923 5  -5786974.41021        10.750           0.625
 91  6 19 16 54 59.9980000  0  6G18G 2G11G16G19G 6
  21897917.576     5725398.187 6   4451405.94721        19.500           1.281
  21809771.709   -13492596.572 7 -10416155.68622        21.750           1.625
  22537977.240    -9272093.407 6  -7144947.23821        18.000           1.125
  22834557.857    -6654383.762 6  -5117913.91021        12.500           0.563
  20277686.037    -1637431.131 6                        19.250
  22900502.061    -7680849.418 5  -5824457.61021        11.000           0.531
 91  6 19 16 55 14.9980000  0  6G18G 2G11G16G19G 6
  21904505.678     5760016.377 6   4478381.12121        19.000           1.219
  21800142.959   -13543196.458 7 -10455584.14522        21.500           1.719
  22533335.436    -9296490.635 6  -7163958.06021        18.500           1.188
  22832244.053    -6666540.407 6  -5127386.62221        12.500           0.563
  20277740.615    -1637117.616 7  -1241989.13922        20.250           1.844
  22891348.912    -7728944.738 5  -5861934.44521        11.250           0.563
 91  6 19 16 55 29.9980000  0  6G18G 2G11G16G19G 6
  21911104.936     5794708.290 6   4505413.75421        19.250           1.250
  21790527.178   -13593724.595 7 -10494956.69222        22.000           1.781
  22528719.654    -9320737.768 6  -7182851.91921        18.000           1.188
  22829953.920    -6678555.094 6  -5136748.72321        12.500           0.594
  20277814.232    -1636738.110 7  -1241693.42422        20.000           1.813
  22882203.873    -7777014.388 5  -5899391.26621        10.750           0.563
 91  6 19 16 55 44.9980000  0  6G18G 2G11G16G19G 6
  21917724.600     5829488.848 6   4532515.45921        19.250           1.250
  21780929.990   -13644165.765 7 -10534261.47622        22.000           1.750
  22524137.943    -9344819.531 6  -7201616.93021        18.250           1.125
  22827702.740    -6690412.513 6  -5145988.26021        12.750           0.500
  20277902.647    -1636277.486 7  -1241334.50222        20.250           1.844
  22873061.631    -7825043.360 5  -5936816.39621        10.750           0.531
 91  6 19 16 55 59.9980000  0  6G18G 2G11G16G19G 6
  21924354.631     5864331.634 6   4559665.65221        19.000           1.313
  21771341.467   -13694546.039 7 -10573518.81022        21.750           1.906
  22519581.342    -9368762.004 6  -7220273.40021        18.250           1.094
  22825468.147    -6702139.131 6  -5155125.90121        13.000           0.500
  20277998.998    -1635761.718 6  -1240932.61222        19.750           1.906
  22863927.639    -7873057.618 5  -5974230.05621        11.000           0.531
 91  6 19 16 56 14.9980000  0  6G18G 2G11G16G19G 6
  21931009.217     5899302.974 6   4586916.01721        19.250           1.094
  21761778.889   -13744798.833 7 -10612676.81122        21.750           1.875
  22515063.889    -9392498.575 6  -7238769.42321        18.000           1.125
  22823275.295    -6713668.571 6  -5164109.87821        12.750           0.531
  20278120.451    -1635124.635 7  -1240436.18922        20.250           1.875
  22854804.701    -7920990.856 5  -6011580.60721        11.250           0.500
 91  6 19 16 56 29.9980000  0  6G18G 2G11G16G19G 6
  21937676.178     5934341.746 6   4614218.92521        19.250           1.156
  21752228.482   -13794985.010 7 -10651782.89522        22.000           2.063
  22510576.889    -9416089.813 6  -7257152.20821        18.500           1.031
  22821106.334    -6725061.866 6  -5172987.78121        13.000           0.656
  20278254.217    -1634426.878 6  -1239892.49122        19.500           1.844
  22845688.553    -7968903.868 5  -6048915.38421        11.250           0.500
 91  6 19 16 56 44.9980000  0  6G18G 2G11G16G19G 6
  21944361.389     5969466.881 6   4641589.13521        18.750           1.250
  21742696.279   -13845085.071 7 -10690821.88322        22.250           1.969
  22506116.561    -9439516.404 6  -7275406.69121        17.750           1.063
  22818970.561    -6736300.018 6  -5181744.79121        13.250           0.531
  20278400.498    -1633649.241 7  -1239286.54822        20.000           1.906
  22836574.412    -8016777.368 5  -6086219.37921        11.500           0.563
 91  6 19 16 56 59.9980000  0  6G18G 2G11G16G19G 6
  21951052.803     6004623.287 6   4668983.71121        19.500           1.125
  21733166.365   -13895153.721 7 -10729836.38622        22.000           1.969
  22501680.186    -9462832.833 6  -7293575.33321        18.250           1.094
  22816850.365    -6747437.242 6  -5190423.15421        12.750           0.563
  20278554.459    -1632846.512 6  -1238661.05022        19.500           1.938
  22827463.490    -8064666.097 5  -6123535.23121        11.500           0.469
 91  6 19 16 57 14.9980000  0  6G18G 2G11G16G19G 6
  21957748.248     6039813.974 6   4696404.99521        19.250           1.219
  21723645.217   -13945187.701 7 -10768823.88222        22.250           2.031
  22497263.428    -9486035.866 6  -7311655.61621        18.000           1.125
  22814749.162    -6758470.511 6  -5199020.51921        12.250           0.656
  20278712.061    -1632015.579 7  -1238013.57922        20.000           1.906
  22818348.904    -8112566.929 5  -6160860.52021        11.750           0.594
 91  6 19 16 57 29.9980000  0  6G18G 2G11G16G19G 6
  21964458.561     6075079.317 6   4723884.45921        19.000           1.156
  21714138.412   -13995146.087 7 -10807752.47222        21.750           2.031
  22492879.732    -9509084.638 6  -7329615.69321        18.750           1.094
  22812677.678    -6769359.380 6  -5207505.34421        12.250           0.531
  20278884.607    -1631115.823 6  -1237312.47722        19.500           1.781
  22809237.740    -8160439.236 5  -6198163.57621        11.750           0.531
 91  6 19 16 57 44.9980000  0  6G18G 2G11G16G19G 6
  21971178.873     6110384.335 6   4751394.82821        19.250           1.094
  21704640.107   -14045063.764 7 -10846649.34322        22.000           2.125
  22488515.014    -9532013.907 6  -7347482.65321        18.250           1.031
  22810625.061    -6780139.104 6  -5215905.14921        12.250           0.594
  20279060.811    -1630182.071 7  -1236584.88622        20.250           1.875
  22800129.662    -8208317.875 5  -6235471.57021        11.500           0.469
 91  6 19 16 57 59.9980000  0  6G18G 2G11G16G19G 6
  21977909.889     6145756.235 6   4778957.31521        19.000           1.125
  21695154.100   -14094913.123 7 -10885492.97822        22.250           2.000
  22484179.568    -9554796.093 6  -7365235.00221        18.000           1.031
  22808603.084    -6790782.250 6  -5224198.51621        12.500           0.625
  20279250.967    -1629186.707 6  -1235809.28222        19.750           1.906
  22791021.287    -8256175.251 5  -6272763.00221        11.750           0.531
 91  6 19 16 58 14.9980000  0  6G18G 2G11G16G19G 6
  21984654.365     6181201.090 6   4806576.65521        19.000           1.125
  21685682.170   -14144687.628 7 -10924278.28222        21.750           1.969
  22479874.514    -9577424.634 6  -7382867.63321        18.250           0.938
  22806602.092    -6801282.192 6  -5232380.29921        12.250           0.563
  20279452.834    -1628123.453 7  -1234980.78522        20.000           1.938
  22781917.342    -8304005.124 5  -6310032.99321        11.500           0.500
 91  6 19 16 58 29.9980000  0  6G18G 2G11G16G19G 6
  21991409.811     6216711.173 6   4834246.81821        19.000           1.031
  21676222.873   -14194394.822 7 -10963011.14022        22.000           1.969
  22475595.522    -9599906.937 6  -7400386.31221        18.000           1.063
  22804629.857    -6811646.779 6  -5240456.60321        12.000           0.563
  20279668.240    -1626999.969 6  -1234105.35322        19.750           1.781
  22772820.232    -8351814.886 5  -6347287.32821        11.750           0.531
 91  6 19 16 58 44.9980000  0  6G18G 2G11G16G19G 6
  21998180.881     6252280.670 6   4861963.27721        19.000           1.156
  21666775.170   -14244039.976 7 -11001695.65122        22.000           2.125
  22471344.420    -9622248.219 6  -7417795.09821        17.750           1.000
  22802682.209    -6821881.484 6  -5248431.71721        12.250           0.438
  20279890.834    -1625821.629 7  -1233187.17222        20.000           1.906
  22763727.756    -8399610.052 5  -6384530.27321        11.500           0.594
 91  6 19 16 58 59.9980000  0  6G18G 2G11G16G19G 6
  22004955.811     6287897.308 6   4889716.46621        18.750           1.125
  21657337.936   -14293634.999 7 -11040341.10322        22.500           2.000
  22467117.967    -9644460.394 6  -7435103.28321        17.750           1.031
  22800756.951    -6831998.372 6  -5256315.00121        12.250           0.500
  20280126.693    -1624600.341 6  -1232235.53222        19.250           1.813
  22754634.217    -8447402.589 5  -6421771.16821        11.250           0.750
 91  6 19 16 59 14.9980000  0  6G18G 2G11G16G19G 6
  22011753.350     6323595.262 6   4917533.01221        19.250           1.125
  21647917.162   -14343145.576 7 -11078920.75322        22.500           2.094
  22462921.225    -9666508.998 6  -7452284.01721        17.250           1.031
  22798860.990    -6841963.161 6  -5264079.78921        12.250           0.469
  20280369.639    -1623301.826 7  -1231223.71122        20.000           1.875
  22745544.311    -8495158.182 5  -6458983.27721        11.250           0.750
 91  6 19 16 59 29.9980000  0  6G18G 2G11G16G19G 6
  22018559.201     6359378.475 6   4945416.01121        19.000           1.125
  21638512.764   -14392567.447 7 -11117431.28022        22.500           2.063
  22458757.936    -9688389.945 6  -7469334.10321        17.250           1.063
  22796993.178    -6851771.855 6  -5271722.93821        12.000           0.469
  20280633.748    -1621921.976 6  -1230148.51222        19.500           1.750
  22736463.451    -8542872.676 5  -6496163.35821        11.500           0.625
 91  6 19 16 59 44.9980000  0  6G18G 2G11G16G19G 6
  22025382.342     6395229.714 6   4973352.00921        19.000           1.094
  21629121.131   -14441917.593 7 -11155885.91422        22.250           2.125
  22454621.264    -9710120.176 6  -7486266.75521        17.500           1.000
  22795153.186    -6861441.753 6  -5279257.93621        12.000           0.563
  20280908.865    -1620478.089 7  -1229023.41322        20.250           1.844
  22727388.076    -8590563.183 5  -6533324.75321        11.750           0.688
 91  6 19 16 59 59.9980000  0  6G18G 2G11G16G19G 6
  22032214.006     6431134.638 6   5001329.84021        19.000           1.125
  21619741.764   -14491209.457 7 -11194295.13922        22.500           2.125
  22450513.943    -9731713.065 6  -7503092.37921        17.500           1.063
  22793336.740    -6870986.752 6  -5286695.60321        12.000           0.563
  20281193.232    -1618983.706 6  -1227858.97022        19.750           1.844
  22718313.475    -8638243.442 6  -6570478.16621        12.250           0.656
 91  6 19 17  0 14.9980000  0  6G18G 2G11G16G19G 6
  22039061.850     6467098.877 6   5029353.89621        19.250           1.188
  21610374.287   -14540437.412 7 -11232654.55622        22.250           2.094
  22446431.029    -9753163.141 6  -7519806.71421        17.500           1.031
  22791546.186    -6880401.498 5  -5294031.77221        11.750           0.531
  20281487.553    -1617433.336 7  -1226650.89622        20.000           1.844
  22709243.100    -8685907.923 6  -6607619.29021        12.250           0.625
 91  6 19 17  0 29.9980000  0  6G18G 2G11G16G19G 6
  22045912.693     6503124.475 6   5057425.74921        18.250           1.094
  21601018.264   -14589599.147 7 -11270962.38222        22.750           2.063
  22442377.826    -9774467.836 6  -7536407.78021        18.000           1.000
  22789781.420    -6889683.417 6  -5301264.44921        12.250           0.531
  20281793.975    -1615824.612 6  -1225397.35922        19.750           1.938
  22700176.818    -8733554.083 6  -6644746.13021        12.750           0.625
 91  6 19 17  0 44.9980000  0  6G18G 2G11G16G19G 6
  22052784.420     6539232.417 6   5085561.77921        18.250           1.156
  21591679.154   -14638673.296 7 -11309201.95822        22.750           2.063
  22438355.076    -9795605.747 6  -7552878.88121        18.000           1.094
  22788045.803    -6898811.039 6  -5308376.89521        12.250           0.625
  20282115.037    -1614136.279 6  -1224081.77822        19.750           1.906
  22691118.522    -8781160.818 6  -6681842.25121        12.750           0.500
 91  6 19 17  0 59.9980000  0  6G18G 2G11G16G19G 6
  22059670.147     6575401.466 6   5113745.42721        18.500           1.063
  21582353.381   -14687680.744 7 -11347389.55722        22.750           2.063
  22434360.342    -9816597.731 6  -7569236.27321        18.000           1.094
  22786332.100    -6907805.722 6  -5315385.75521        12.250           0.531
  20282447.482    -1612389.259 6  -1222720.47722        19.250           1.781
  22682061.889    -8828749.062 6  -6718923.97521        12.500           0.563
 91  6 19 17  1 14.9980000  0  6G18G 2G11G16G19G 6
  22066558.225     6611617.355 6   5141965.56421        18.000           1.063
  21573038.584   -14736635.148 7 -11385535.82522        23.000           2.156
  22430389.850    -9837457.436 6  -7585490.58921        18.000           1.188
  22784643.217    -6916681.398 6  -5322301.86621        12.000           0.563
  20282789.061    -1610597.353 7  -1221324.19222        20.000           1.875
  22673009.514    -8876332.661 6  -6756002.06821        12.750           0.625
 91  6 19 17  1 29.9980000  0  6G18G 2G11G16G19G 6
  22073466.693     6647893.752 6   5170232.85421        18.000           1.094
  21563734.873   -14785522.653 7 -11423629.96522        22.750           2.000
  22426449.686    -9858171.041 6  -7601631.05621        18.750           1.094
  22782976.451    -6925424.525 5  -5329114.70721        11.750           0.438
  20283140.912    -1608746.885 6  -1219882.27422        19.250           1.781
  22663959.295    -8923897.749 6  -6793065.74721        12.750           0.500
 91  6 19 17  1 44.9980000  0  6G18G 2G11G16G19G 6
  22080377.053     6684229.312 6   5198546.24321        18.000           0.969
  21554444.037   -14834344.506 7 -11461672.94522        22.500           2.094
  22422534.787    -9878739.896 6  -7617658.74221        18.250           1.000
  22781339.772    -6934036.614 6  -5335825.42521        12.000           0.531
  20283503.904    -1606839.231 7  -1218395.80122        20.000           1.781
  22654911.100    -8971445.681 6  -6830116.05221        12.500           0.500
 91  6 19 17  1 59.9980000  0  6G18G 2G11G16G19G 6
  22087301.779     6720616.384 6   5226899.77521        17.750           1.000
  21545165.248   -14883107.680 7 -11499670.20222        22.750           2.094
  22418648.647    -9899170.906 6  -7633579.00321        18.750           1.156
  22779725.772    -6942524.790 6  -5342439.59921        12.250           0.625
  20283876.990    -1604881.569 6  -1216870.35522        19.250           1.875
  22645861.506    -9018983.762 6  -6867158.69221        12.500           0.594
 91  6 19 17  2 14.9980000  0  6G18G 2G11G16G19G 6
  22094235.615     6757058.735 6   5255296.37721        17.500           1.188
  21535898.123   -14931808.093 7 -11537618.55822        22.750           2.063
  22414786.693    -9919459.939 6  -7649388.64221        18.250           1.156
  22778134.162    -6950885.216 6  -5348954.23821        12.000           0.625
  20284259.561    -1602869.660 7  -1215302.64622        20.000           1.875
  22636817.272    -9066507.732 6  -6904190.31621        12.250           0.531
 91  6 19 17  2 29.9980000  0  6G18G 2G11G16G19G 6
  22101182.600     6793565.276 6   5283743.00321        17.750           1.000
  21526643.428   -14980436.760 7 -11575511.00222        23.000           2.063
  22410955.490    -9939597.812 6  -7665080.49521        18.500           1.156
  22776567.975    -6959109.018 5  -5355362.40421        11.750           0.563
  20284654.631    -1600794.402 6  -1213685.56822        19.250           1.750
  22627780.311    -9114008.566 6  -6941203.92621        12.250           0.500
 91  6 19 17  2 44.9980000  0  6G18G 2G11G16G19G 6
  22108142.670     6830137.435 6   5312240.74721        17.500           1.031
  21517403.592   -15028991.799 7 -11613346.07122        22.750           2.063
  22407150.748    -9959582.655 6  -7680653.10621        18.000           1.094
  22775031.170    -6967194.350 6  -5361662.67521        12.250           0.438
  20285061.037    -1598654.396 6  -1212018.04222        19.750           1.813
  22618746.522    -9161484.601 6  -6978198.20821        12.250           0.469
 91  6 19 17  2 59.9980000  0  6G18G 2G11G16G19G 6
  22115113.029     6866760.426 6   5340778.10621        18.000           1.000
  21508175.600   -15077487.274 7 -11651134.73222        22.750           2.063
  22403374.420    -9979428.779 6  -7696117.61621        18.000           1.094
  22773515.951    -6975155.556 6  -5367866.22121        12.250           0.531
  20285479.357    -1596463.920 6  -1210311.18622        19.500           1.719
  22609711.787    -9208950.171 6  -7015184.34021        12.250           0.625
 91  6 19 17  3 14.9980000  0  6G18G 2G11G16G19G 6
  22122091.334     6903437.856 6   5369357.89121        17.750           1.094
  21498959.678   -15125919.627 7 -11688874.20822        23.000           2.063
  22399625.529    -9999132.315 6  -7711471.02021        18.000           1.094
  22772025.857    -6982989.322 6  -5373970.47121        12.250           0.500
  20285904.592    -1594219.167 6  -1208562.04122        19.750           1.844
  22600684.287    -9256401.550 6  -7052159.40421        12.500           0.500
 91  6 19 17  3 29.9980000  0  6G18G 2G11G16G19G 6
  22129083.256     6940178.109 6   5397986.61921        17.500           1.000
  21489756.381   -15174280.284 7 -11726557.81922        22.750           2.125
  22395904.123   -10018684.669 6  -7726706.62121        18.000           1.063
  22770561.225    -6990687.310 6  -5379968.91921        12.000           0.500
  20286344.045    -1591911.661 6  -1206763.98922        19.750           1.781
  22591657.881    -9303830.163 6  -7089116.73221        13.250           0.594
 91  6 19 17  3 44.9980000  0  6G18G 2G11G16G19G 6
  22136083.404     6976973.647 6   5426658.43321        17.000           1.031
  21480566.834   -15222576.168 7 -11764190.95722        22.750           2.000
  22392210.647   -10038092.882 6  -7741829.91421        18.000           1.156
  22769118.686    -6998256.468 6  -5385866.96521        12.000           0.500
  20286794.232    -1589548.527 7  -1204922.59422        20.000           1.906
  22582633.561    -9351243.246 6  -7126061.96421        12.750           0.531
 91  6 19 17  3 59.9980000  0  6G18G 2G11G16G19G 6
  22143105.670     7013865.561 6   5455405.33821        17.000           0.906
  21471395.420   -15270765.580 7 -11801741.12422        23.000           2.125
  22388553.826   -10057315.498 6  -7756808.57621        18.500           1.063
  22767712.529    -7005655.539 5  -5391632.50021        11.750           0.469
  20287262.686    -1587088.489 6  -1203005.68822        19.500           1.844
  22573625.443    -9398599.204 6  -7162962.67821        12.750           0.594
 91  6 19 17  4 14.9980000  0  6G18G 2G11G16G19G 6
  22150138.584     7050829.716 6   5484208.54421        17.250           1.031
  21462242.123   -15318872.451 7 -11839226.98122        22.750           2.188
  22384927.006   -10076376.381 6  -7771661.21821        18.500           1.031
  22766332.186    -7012908.742 6  -5397284.34521        12.000           0.500
  20287743.811    -1584555.576 7  -1201032.00022        20.000           1.875
  22564618.076    -9445922.199 6  -7199837.71321        13.000           0.625
 91  6 19 17  4 29.9980000  0  6G18G 2G11G16G19G 6
  22157188.311     7087868.556 6   5513069.94721        17.250           1.125
  21453102.514   -15366893.982 7 -11876646.33522        22.750           2.094
  22381330.857   -10095272.552 6  -7786385.51121        18.500           1.125
  22764980.561    -7020013.368 6  -5402820.44221        12.000           0.469
  20288241.561    -1581946.872 6  -1198999.25522        19.500           1.781
  22555620.967    -9493209.377 6  -7236684.83121        12.750           0.625
 91  6 19 17  4 44.9980000  0  6G18G 2G11G16G19G 6
  22164243.600     7124939.997 6   5541956.74321        17.250           0.969
  21443973.897   -15414872.355 7 -11914032.06122        23.000           2.094
  22377758.436   -10114046.078 6  -7801014.24321        18.500           1.156
  22763647.482    -7027012.100 6  -5408274.02321        12.000           0.438
  20288742.897    -1579304.558 6  -1196940.31522        19.750           1.844
  22546619.225    -9540502.907 6  -7273536.89821        13.000           0.656
 91  6 19 17  4 59.9980000  0  6G18G 2G11G16G19G 6
  22171301.443     7162042.503 6   5570867.75321        16.750           0.969
  21434851.107   -15462808.427 7 -11951384.82822        22.750           2.094
  22374208.904   -10132697.899 6  -7815548.13421        18.500           1.219
  22762337.022    -7033905.581 6  -5413645.57221        12.000           0.438
  20289253.107    -1576629.666 6  -1194855.99122        19.250           1.813
  22537619.897    -9587803.640 6  -7310394.58021        13.000           0.656
 91  6 19 17  5 14.9980000  0  6G18G 2G11G16G19G 6
  22178371.686     7199186.900 6   5599811.39821        16.500           0.938
  21425739.709   -15510691.103 7 -11988695.98422        22.750           2.094
  22370686.107   -10151216.960 6  -7829978.57721        18.750           1.156
  22761046.631    -7040683.071 5  -5418926.74821        11.500           0.438
  20289770.100    -1573911.075 7  -1192737.61022        20.000           1.781
  22528621.022    -9635100.780 6  -7347249.45421        13.250           0.625
 91  6 19 17  5 29.9980000  0  6G18G 2G11G16G19G 6
  22185451.717     7236385.852 6   5628797.55721        17.000           1.031
  21416640.764   -15558507.236 7 -12025955.29022        22.750           2.094
  22367187.217   -10169590.098 6  -7844295.30921        18.500           1.094
  22759780.342    -7047331.498 5  -5424107.35021        11.250           0.469
  20290299.420    -1571135.768 7  -1190575.03922        20.000           1.969
  22519621.334    -9682381.065 6  -7384091.20421        13.000           0.625
 91  6 19 17  5 44.9980000  0  6G18G 2G11G16G19G 6
  22192540.076     7273655.556 6   5657838.84821        16.250           0.938
  21407556.795   -15606240.517 7 -12063150.03822        23.000           2.250
  22363722.061   -10187800.934 6  -7858485.58121        18.500           1.156
  22758542.818    -7053834.852 6  -5429174.91821        12.000           0.469
  20290839.897    -1568287.636 6  -1188355.72322        19.750           1.906
  22510631.115    -9729628.259 6  -7420907.17421        12.500           0.625
 91  6 19 17  5 59.9980000  0  6G18G 2G11G16G19G 6
  22199645.545     7310984.491 6   5686926.29321        16.750           1.000
  21398486.318   -15653901.827 7 -12100288.70422        23.000           2.219
  22360286.373   -10205860.484 6  -7872557.96921        18.750           1.125
  22757330.131    -7060204.438 5  -5434138.25221        11.500           0.406
  20291393.295    -1565377.595 7  -1186088.16822        20.000           1.844
  22501646.592    -9776853.445 6  -7457705.98421        13.000           0.563
 91  6 19 17  6 14.9980000  0  6G18G 2G11G16G19G 6
  22206759.115     7348367.200 6   5716055.63621        16.750           0.906
  21389431.420   -15701496.185 7 -12137375.19822        23.500           2.188
  22356876.818   -10223773.764 6  -7886516.38121        18.750           1.125
  22756141.014    -7066445.667 5  -5439001.57321        11.000           0.531
  20291958.404    -1562410.890 7  -1183776.46022        20.000           1.938
  22492660.795    -9824061.794 6  -7494491.68021        12.750           0.688
 91  6 19 17  6 29.9980000  0  6G18G 2G11G16G19G 6
  22213885.779     7385822.237 6   5745241.34721        16.750           0.938
  21380390.272   -15749004.835 7 -12174394.90422        23.500           2.219
  22353500.834   -10241522.111 6  -7900346.27121        19.250           1.188
  22754984.084    -7072539.711 5  -5443750.18921        11.000           0.406
  20292540.170    -1559368.791 6  -1181405.99622        18.500           1.938
  22483682.647    -9871234.610 6  -7531249.68221        12.750           0.688
 91  6 19 17  6 44.9980000  0  6G18G 2G11G16G19G 6
  22221017.107     7423300.759 6   5774445.35521        16.000           0.969
  21371355.678   -15796476.558 7 -12211385.84022        23.250           2.219
  22350144.357   -10259154.064 6  -7914085.46321        19.250           1.125
  22753844.654    -7078535.609 5  -5448422.33521        11.250           0.563
  20293121.647    -1556300.168 6  -1179014.86622        19.750           1.875
  22474704.529    -9918420.619 6  -7568017.97121        12.750           0.625
 91  6 19 17  6 59.9980000  0  6G18G 2G11G16G19G 6
  22228160.162     7460845.382 6   5803700.86821        16.000           1.000
  21362335.982   -15843868.204 7 -12248314.37022        23.250           2.375
  22346819.647   -10276626.446 6  -7927700.31321        19.250           1.094
  22752727.982    -7084390.476 5  -5452984.58521        10.750           0.531
  20293718.943    -1553161.967 6  -1176569.52022        18.500           1.938
  22465731.748    -9965576.822 6  -7604763.03921        13.250           0.625
 91  6 19 17  7 14.9980000  0  6G18G 2G11G16G19G 6
  22235314.334     7498421.459 6   5832980.88521        16.750           0.813
  21353327.264   -15891214.120 7 -12285207.27622        23.000           2.375
  22343518.951   -10293973.762 6  -7941217.71221        19.250           1.125
  22751633.061    -7090138.837 5  -5457463.83821        10.750           0.469
  20294320.568    -1549988.474 6  -1174096.68222        19.500           1.938
  22456758.811   -10012737.563 6  -7641511.63421        13.500           0.563
 91  6 19 17  7 29.9980000  0  6G18G 2G11G16G19G 6
  22242475.147     7536054.267 6   5862305.11221        17.000           0.938
  21344331.389   -15938488.745 7 -12322044.62922        23.500           2.313
  22340245.772   -10311170.471 6  -7954617.75821        19.000           1.125
  22750565.045    -7095755.074 5  -5461840.14221        11.000           0.500
  20294940.459    -1546754.337 6  -1171576.57822        18.250           1.875
  22447789.045   -10059877.396 6  -7678243.95721        13.250           0.656
 91  6 19 17  7 44.9980000  0  6G18G 2G11G16G19G 6
  22249649.467     7573751.102 6   5891679.22421        16.750           0.969
  21335351.240   -15985684.138 7                        23.250
  22337003.818   -10328208.664 6  -7967894.28221        19.000           1.188
  22749526.818    -7101231.549 5  -5466107.54721        11.000           0.625
  20295564.842    -1543451.777 6  -1169003.16522        19.500           1.906
  22438821.537   -10106988.448 6                        13.500
 91  6 19 17  7 59.9980000  0  6G18G 2G11G16G19G 6
  22256835.834     7611536.624 6   5921122.44821        16.250           0.875
  21326390.404   -16032775.498 7                        23.250
  22333796.326   -10345063.376 6  -7981027.84221        19.000           1.156
  22748512.904    -7106543.703 5  -5470246.90321        11.000           0.469
  20296211.186    -1540055.887 6  -1166357.02522        19.500           1.813
  22429867.365   -10154045.920 6                        13.250
 91  6 19 17  8 14.9980000  0  6G18G 2G11G16G19G 6
  22264036.865     7649368.509 6   5950601.79221        16.750           0.875
  21317440.350   -16079804.882 7                        23.000
  22330616.732   -10361776.748 6  -7994051.26721        19.250           1.156
  22747526.318    -7111734.165 5  -5474291.42821        10.750           0.469
  20296867.154    -1536608.849 6  -1163671.03322        19.250           1.875
  22420915.342   -10201091.919 6                        13.500
 91  6 19 17  8 29.9980000  0  6G18G 2G11G16G19G 6
  22271252.631     7687277.427 6   5980141.17121        16.500           0.875
  21308508.357   -16126741.346 7                        23.250
  22327468.928   -10378317.828 6  -8006940.43321        19.250           1.156
  22746567.256    -7116771.986 5  -5478217.01721        11.000           0.563
  20297540.326    -1533079.891 6  -1160921.20822        19.000           2.000
  22411971.475   -10248095.633 6                        13.750
 91  6 19 17  8 44.9980000  0  6G18G 2G11G16G19G 6
  22278472.115     7725218.185 6   6009705.35721        16.000           0.813
  21299587.240   -16173629.752 7 -12505271.30922        23.250           2.281
  22324345.467   -10394731.555 6  -8019730.35921        19.250           1.219
  22745626.756    -7121702.234 5  -5482058.79621        10.750           0.688
  20298218.576    -1529513.926 6  -1158142.54322        19.750           1.969
  22403025.842   -10295101.961 6  -7861536.17821        13.500           0.781
 91  6 19 17  8 59.9980000  0  6G18G 2G11G16G19G 6
  22285698.576     7763208.681 6   6039308.30921        15.500           0.875
  21290676.318   -16220451.514 7 -12541755.79022        23.000           2.313
  22321250.404   -10410999.303 6  -8032406.53621        19.250           1.188
  22744714.256    -7126506.625 5  -5485802.48321        10.500           0.563
  20298908.014    -1525892.610 6  -1155320.75222        19.500           1.969
  22394083.365   -10342092.389 6  -7898152.08021        13.250           0.719
 91  6 19 17  9 14.9980000  0  6G18G 2G11G16G19G 6
  22292939.178     7801245.978 6   6068947.71021        15.750           0.750
  21281778.693   -16267209.103 7 -12578190.24922        22.750           2.375
  22318181.342   -10427123.643 6  -8044970.97321        19.000           1.219
  22743827.209    -7131187.923 5  -5489450.26121        10.500           0.531
  20299605.818    -1522218.444 6  -1152457.77322        19.750           1.875
  22385143.795   -10389069.652 6  -7934757.70921        13.250           0.719
 91  6 19 17  9 29.9980000  0  6G18G 2G11G16G19G 6
  22300186.123     7839337.603 6   6098629.45321        15.750           0.875
  21272894.732   -16313895.112 7 -12614568.94622        23.000           2.375
  22315143.162   -10443097.234 6  -8057417.93521        19.000           1.250
  22742956.490    -7135739.095 5  -5492996.64621        10.000           0.500
  20300317.615    -1518484.167 6  -1149547.95622        19.500           1.938
  22376205.639   -10436026.389 6  -7971347.33821        13.250           0.781
 91  6 19 17  9 44.9980000  0  6G18G 2G11G16G19G 6
  22307441.725     7877466.966 6   6128340.60421        16.000           0.781
  21264022.045   -16360525.701 7 -12650904.45122        23.000           2.469
  22312127.490   -10458936.090 6  -8069759.92021        19.000           1.188
  22742112.717    -7140176.344 5  -5496454.25021        10.000           0.625
  20301035.295    -1514705.861 6  -1146603.83622        19.750           1.844
  22367270.639   -10482978.569 6  -8007933.43121        13.000           0.594
 91  6 19 17  9 59.9980000  0  6G18G 2G11G16G19G 6
  22314711.529     7915655.766 6   6158098.06921        16.250           0.813
  21255162.272   -16407078.789 7 -12687179.56822        23.000           2.469
  22309142.592   -10474618.248 6  -8081979.79921        19.000           1.219
  22741294.357    -7144477.659 5  -5499805.94121        10.250           0.594
  20301768.568    -1510861.503 6  -1143608.24522        19.000           1.875
  22358344.209   -10529904.337 6  -8044498.94221        13.500           0.688
 91  6 19 17 10 14.9980000  0  6G18G 2G11G16G19G 6
  22321988.732     7953909.497 6   6187906.12921        16.250           0.813
  21246318.693   -16453548.515 7 -12723389.72622        23.000           2.406
  22306190.482   -10490137.885 6  -8094073.03921        19.250           1.188
  22740503.279    -7148637.576 5  -5503047.44521        10.500           0.563
  20302513.365    -1506945.373 6  -1140556.72622        19.500           1.969
  22349422.225   -10576797.810 6  -8081039.28321        13.500           0.625
 91  6 19 17 10 29.9980000  0  6G18G 2G11G16G19G 6
  22329280.186     7992215.715 6   6217755.09821        16.500           0.750
  21237490.420   -16499947.003 7 -12759544.37922        23.250           2.313
  22303263.928   -10505507.084 6  -8106049.05021        18.750           1.250
  22739731.326    -7152668.383 5  -5506188.35921        10.250           0.563
  20303269.654    -1502969.665 6  -1137458.77822        18.750           1.969
  22340497.482   -10623671.163 6  -8117563.94221        13.250           0.656
 91  6 19 17 10 44.9980000  0  6G18G 2G11G16G19G 6
  22336579.631     8030582.572 6   6247651.31021        16.250           0.688
  21228675.842   -16546265.720 7 -12795636.87122        23.250           2.406
  22300370.803   -10520717.393 6  -8117901.24721        19.250           1.281
  22738994.779    -7156561.634 5  -5509222.06221        10.250           0.438
  20304038.553    -1498925.727 6  -1134307.66622        19.500           2.000
  22331584.881   -10670515.954 6  -8154066.35821        13.500           0.781
 91  6 19 17 10 59.9980000  0  6G18G 2G11G16G19G 6
  22343888.037     8068978.146 6   6277569.89921        16.000           0.719
  21219869.865   -16592536.142 7 -12831691.73123        23.250           2.500
  22297500.334   -10535800.513 6  -8129654.33821        19.000           1.219
  22738273.568    -7160349.374 5  -5512173.55921        10.250           0.469
  20304816.225    -1494845.495 6  -1131128.27722        18.750           1.906
  22322672.217   -10717363.856 6  -8190571.19821        13.250           0.719
 91  6 19 17 11 14.9980000  0  6G18G 2G11G16G19G 6
  22351209.084     8107456.347 6   6307552.87021        16.000           0.719
  21211085.443   -16638704.039 7 -12867666.69922        23.250           2.469
  22294664.389   -10550701.973 6  -8141265.88421        18.750           1.094
  22737585.326    -7163977.708 5  -5515000.84421        10.500           0.500
  20305610.014    -1490674.791 6  -1127878.39222        19.250           2.000
  22313762.225   -10764160.562 6  -8227036.12721        13.250           0.781
 91  6 19 17 11 29.9980000  0  6G18G 2G11G16G19G 6
  22358541.982     8145984.785 6   6337574.98821        16.000           0.750
  21202312.647   -16684801.541 7 -12903586.81123        23.250           2.531
  22291857.248   -10565453.915 6  -8152760.91721        19.000           1.188
  22736917.811    -7167478.837 5  -5517729.02121        10.500           0.500
  20306416.303    -1486445.765 6  -1124583.05922        18.250           1.813
  22304864.912   -10810938.372 6  -8263486.34521        13.250           0.625
 91  6 19 17 11 44.9980000  0  6G18G 2G11G16G19G 6
  22365877.436     8184550.326 6   6367626.01621        15.250           0.813
  21193552.232   -16730841.548 7 -12939462.13523        23.500           2.500
  22289076.475   -10580069.400 6  -8164149.62921        19.000           1.250
  22736273.615    -7170865.884 5  -5520368.29621        10.750           0.563
  20307226.764    -1482171.353 6  -1121252.36622        19.250           1.938
  22295960.787   -10857710.230 6  -8299931.93121        13.500           0.656
 91  6 19 17 11 59.9980000  0  6G18G 2G11G16G19G 6
  22373230.115     8223175.036 6   6397723.14821        15.250           0.844
  21184807.287   -16776801.417 7 -12975275.00423        23.750           2.594
  22286325.826   -10594525.846 6  -8175414.40421        19.250           1.188
  22735654.639    -7174116.415 5  -5522901.20321        10.500           0.406
  20308054.342    -1477829.115 6  -1117868.81122        18.500           1.938
  22287070.662   -10904453.566 6  -8336355.29921        14.000           0.594
 91  6 19 17 12 14.9980000  0  6G18G 2G11G16G19G 6
  22380590.686     8261855.349 6   6427863.60221        15.750           0.656
  21176076.014   -16822684.422 7 -13011027.97823        23.750           2.500
  22283604.186   -10608826.509 6  -8186557.78921        18.750           1.156
  22735059.139    -7177233.939 5  -5525330.44421        10.500           0.469
  20308892.647    -1473422.122 6  -1114434.80622        19.250           1.969
  22278177.022   -10951171.505 6  -8372758.86321        13.750           0.719
 91  6 19 17 12 29.9980000  0  6G18G 2G11G16G19G 6
  22387959.834     8300575.177 6   6458034.85621        15.500           0.688
  21167354.662   -16868506.359 7 -13046733.36623        23.750           2.500
  22280909.256   -10622987.233 6  -8197592.12621        19.250           1.313
  22734489.951    -7180234.598 5  -5527668.63121        10.750           0.500
  20309739.615    -1468966.559 6  -1110962.95122        18.500           1.938
  22269293.061   -10997880.131 6  -8409155.16621        14.000           0.750
 91  6 19 17 12 44.9980000  0  6G18G 2G11G16G19G 6
  22395338.037     8339351.447 6   6488250.08721        15.250           0.781
  21158649.803   -16914250.090 7 -13082377.81823        23.500           2.563
  22278244.662   -10636990.758 6  -8208503.98121        19.000           1.281
  22733946.326    -7183101.327 5  -5529902.46621        10.500           0.531
  20310599.967    -1464445.114 6  -1107439.76022        19.000           1.938
  22260405.107   -11044562.224 6  -8445530.81521        14.000           0.781
 91  6 19 17 12 59.9980000  0  6G18G 2G11G16G19G 6
  22402728.436     8378190.833 6   6518514.49121        14.750           0.781
  21149960.982   -16959908.307 7 -13117955.63622        23.250           2.469
  22275610.592   -10650829.874 6  -8219287.73421        19.250           1.281
  22733425.756    -7185827.194 5  -5532026.53421        11.250           0.438
  20311473.764    -1459850.575 6  -1103859.61422        19.000           1.875
  22251528.607   -11091210.530 6  -8481880.12321        14.000           0.625
 91  6 19 17 13 14.9980000  0  6G18G 2G11G16G19G 6
  22410130.068     8417084.087 6   6548820.87721        15.000           0.688
  21141286.772   -17005490.287 7 -13153474.04723        23.250           2.531
  22273007.404   -10664513.816 6  -8229950.55521        19.250           1.344
  22732931.342    -7188421.452 5  -5534048.05421        11.000           0.406
  20312361.459    -1455192.176 6  -1100229.70722        19.500           1.906
  22242659.475   -11137834.309 6  -8518210.32321        13.750           0.656
 91  6 19 17 13 29.9980000  0  6G18G 2G11G16G19G 6
  22417539.193     8456024.708 6   6579164.16421        15.000           0.813
  21132628.154   -17051002.143 7 -13188937.81823        23.500           2.625
  22270431.959   -10678048.794 6  -8240497.30521        19.000           1.313
  22732461.881    -7190890.607 5  -5535972.08321        11.500           0.563
  20313259.232    -1450476.221 6  -1096554.95522        19.000           1.969
  22233787.990   -11184439.778 6  -8554526.25021        13.750           0.719
 91  6 19 17 13 44.9980000  0  6G18G 2G11G16G19G 6
  22424958.990     8495020.795 6   6609550.69021        14.500           0.813
  21123982.631   -17096435.337 7 -13224340.28823        23.500           2.500
  22267886.412   -10691426.355 6  -8250921.39521        19.000           1.313
  22732017.084    -7193226.416 6  -5537792.21321        12.000           0.469
  20314168.842    -1445694.385 6  -1092828.86322        19.750           1.938
  22224922.459   -11231018.517 6  -8590821.35221        13.750           0.719
 91  6 19 17 13 59.9980000  0  6G18G 2G11G16G19G 6
  22432385.881     8534048.140 6   6639961.55321        15.000           0.750
  21115346.053   -17141813.726 7 -13259700.05823        23.500           2.625
  22265367.107   -10704670.504 6  -8261241.52521        19.000           1.250
  22731594.779    -7195453.028 6  -5539527.25321        12.000           0.438
  20315085.959    -1440870.569 6  -1089070.05922        19.000           2.031
  22216061.342   -11277594.506 6  -8627114.31221        13.500           0.719
 91  6 19 17 14 14.9980000  0  6G18G 2G11G16G19G 6
  22439827.826     8573153.648 6   6670433.33121        15.250           0.750
  21106730.147   -17187089.844 7 -13294980.13723        23.500           2.531
  22262880.740   -10717733.815 6  -8271420.74021        19.250           1.250
  22731201.420    -7197523.331 6  -5541140.49121        12.000           0.563
  20316022.147    -1435957.490 6  -1085241.70322        19.500           1.875
  22207208.951   -11324120.297 6  -8663368.16121        13.500           0.688
 91  6 19 17 14 29.9980000  0  6G18G 2G11G16G19G 6
  22447278.193     8612300.696 6   6700937.47821        14.750           0.844
  21098127.092   -17232300.304 7 -13330209.05123        23.750           2.563
  22260421.615   -10730652.830 6  -8281487.52521        19.000           1.250
  22730831.131    -7199474.074 6  -5542660.57021        12.000           0.406
  20316966.928    -1430991.758 6  -1081372.31622        19.000           1.844
  22198359.318   -11370632.447 6  -8699611.36821        14.000           0.688
 91  6 19 17 14 44.9980000  0  6G18G 2G11G16G19G 6
  22454735.412     8651495.496 6   6731478.82721        14.750           0.875
  21089537.897   -17277438.763 7 -13365381.86123        23.500           2.531
  22257991.529   -10743421.244 6  -8291436.95121        19.250           1.156
  22730480.100    -7201299.077 6  -5544082.66621        12.000           0.500
  20317922.561    -1425967.117 6  -1077457.02422        19.500           1.875
  22189510.029   -11417124.760 6  -8735839.11921        14.250           0.688
 91  6 19 17 14 59.9980000  0  6G18G 2G11G16G19G 6
  22462206.186     8690758.981 6   6762073.69721        14.750           0.719
  21080965.107   -17322483.373 7 -13400481.54323        23.500           2.625
  22255595.889   -10756017.225 6  -8301252.01421        18.750           1.313
  22730162.982    -7202976.841 6  -5545390.04121        12.250           0.500
  20318894.639    -1420861.756 6  -1073478.83722        19.250           1.875
  22180669.834   -11463575.273 6  -8772034.30421        14.000           0.656
 91  6 19 17 15 14.9980000  0  6G18G 2G11G16G19G 6
  22469690.029     8730075.260 6   6792709.72021        14.250           0.781
  21072409.975   -17367449.812 7 -13435520.31623        23.750           2.563
  22253227.928   -10768456.549 6  -8310945.00721        18.750           1.313
  22729870.131    -7204523.268 6  -5546595.07421        12.000           0.594
  20319878.006    -1415691.288 6  -1069449.92222        19.750           1.844
  22171836.998   -11509999.905 6  -8808209.32621        14.250           0.813
 91  6 19 17 15 29.9980000  0  6G18G 2G11G16G19G 6
  22477178.092     8769426.195 6   6823372.72421        14.500           0.688
  21063864.248   -17412355.930 7 -13470512.08423        23.750           2.625
  22250886.639   -10780757.170 6  -8320529.91621        18.750           1.344
  22729595.670    -7205956.545 6  -5547711.94221        12.000           0.438
  20320872.498    -1410473.667 6  -1065384.25922        19.500           1.906
  22163002.607   -11556416.472 6  -8844378.06521        14.250           0.625
 91  6 19 17 15 44.9980000  0  6G18G 2G11G16G19G 6
  22484676.553     8808834.428 6   6854080.39021        14.500           0.781
  21055334.545   -17457178.838 7 -13505439.01423        23.750           2.563
  22248577.756   -10792896.269 6  -8329988.97121        19.250           1.188
  22729350.990    -7207253.920 6  -5548722.90321        12.000           0.563
  20321875.631    -1405186.150 6  -1061264.13522        19.500           1.938
  22154176.303   -11602802.218 6  -8880522.78121        14.250           0.813
 91  6 19 17 15 59.9980000  0  6G18G 2G11G16G19G 6
  22492184.561     8848290.288 6   6884825.16821        14.750           0.781
  21046819.154   -17501927.837 7 -13540308.35623        23.750           2.594
  22246294.975   -10804883.294 6  -8339329.51821        18.750           1.188
  22729127.389    -7208425.308 6  -5549635.70121        12.000           0.500
  20322894.014    -1399838.403 6  -1057097.07522        19.500           1.875
  22145353.647   -11649166.394 6  -8916650.69121        14.000           0.750
 91  6 19 17 16 14.9980000  0  6G18G 2G11G16G19G 6
  22499702.475     8887783.094 6   6915598.73921        15.000           0.719
  21038315.779   -17546613.322 7 -13575128.20123        24.000           2.688
  22244042.834   -10816728.437 6  -8348559.51021        19.000           1.156
  22728925.053    -7209480.993 5  -5550458.33521        11.500           0.500
  20323921.482    -1394440.733 6  -1052891.11522        19.500           1.906
  22136533.076   -11695519.411 6  -8952769.91121        14.000           0.875
 91  6 19 17 16 29.9980000  0  6G18G 2G11G16G19G 6
  22507227.264     8927334.538 6   6946418.00021        14.750           0.656
  21029828.795   -17591213.458 7 -13609881.54523        24.000           2.688
  22241818.889   -10828409.949 6  -8357662.00721        19.000           1.313
  22728749.670    -7210399.479 5  -5551174.05621        11.750           0.438
  20324963.568    -1388971.263 6  -1048629.20422        19.500           1.906
  22127720.592   -11741839.436 6  -8988863.41021        14.250           0.813
 91  6 19 17 16 44.9980000  0  6G18G 2G11G16G19G 6
  22514766.014     8966950.025 6   6977287.15221        14.250           0.656
  21021358.482   -17635722.338 7 -13644563.77623        24.250           2.531
  22239628.201   -10839922.005 6  -8366632.45521        18.750           1.250
  22728603.404    -7211174.697 5  -5551778.15221        11.500           0.469
  20326018.686    -1383423.972 6  -1044306.66022        19.500           1.813
  22118914.865   -11788120.637 6  -9024926.67221        14.500           0.813
 91  6 19 17 16 59.9980000  0  6G18G 2G11G16G19G 6
  22522319.123     9006630.174 6   7008206.69121        14.500           0.625
  21012906.334   -17680138.813 7 -13679174.00223        24.000           2.688
  22237469.436   -10851263.506 6  -8375470.00621        19.000           1.281
  22728482.975    -7211806.180 5  -5552270.23621        11.250           0.563
  20327089.529    -1377797.938 6  -1039922.75422        19.500           1.906
  22110113.240   -11834361.845 6  -9060958.76321        14.500           0.750
 91  6 19 17 17 14.9980000  0  6G18G 2G11G16G19G 6
  22529876.045     9046350.957 6   7039157.90421        14.500           0.656
  21004467.123   -17724486.616 7 -13713730.72123        23.750           2.563
  22235341.943   -10862458.467 6  -8384193.36721        19.250           1.219
  22728386.068    -7212318.015 5  -5552669.09421        11.250           0.625
  20328170.373    -1372117.260 6  -1035496.27422        19.750           1.844
  22101314.279   -11880587.149 6  -9096978.46321        14.250           0.781
 91  6 19 17 17 29.9980000  0  6G18G 2G11G16G19G 6
  22537446.279     9086110.300 6   7070139.16721        14.500           0.625
  20996041.904   -17768767.540 7 -13748235.32523        24.250           2.625
  22233237.631   -10873508.670 6  -8392803.93021        19.000           1.281
  22728311.139    -7212712.279 5  -5552976.34221        11.000           0.500
  20329261.967    -1366383.530 6  -1031028.44822        19.250           1.875
  22092522.545   -11926798.250 6  -9132987.09621        14.500           0.844
 91  6 19 17 17 44.9980000  0  6G18G 2G11G16G19G 6
  22545015.115     9125908.588 6   7101150.76921        14.000           0.781
  20987627.490   -17812980.893 7 -13782687.27723        24.250           2.688
  22231162.857   -10884413.359 6  -8401301.09521        19.000           1.250
  22728259.748    -7212988.507 5  -5553191.59421        10.750           0.469
  20330362.412    -1360596.129 6  -1026518.80222        19.750           1.875
  22083733.897   -11972994.429 6  -9168984.09521        14.500           0.750
 91  6 19 17 17 59.9980000  0  6G18G 2G11G16G19G 6
  22552598.264     9165751.121 6   7132196.84421        13.500           0.750
  20979228.381   -17857121.005 7 -13817082.15723        24.000           2.688
  22229115.748   -10895166.897 6  -8409680.48821        19.250           1.250
  22728226.670    -7213141.229 5                        11.000
  20331474.928    -1354749.458 7  -1021962.97422        20.000           1.813
  22074943.951   -12019170.036 6  -9204965.08521        14.500           0.750
 91  6 19 17 18 14.9980000  0  6G18G 2G11G16G19G 6
  22560183.928     9205624.580 6   7163267.02621        13.750           0.719
  20970840.482   -17901200.970 7 -13851430.16823        23.750           2.688
  22227097.029   -10905782.422 6  -8417952.33421        19.750           1.250
  22728222.186    -7213183.654 5                        11.250
  20332596.537    -1348856.690 6  -1017371.22322        19.750           1.906
  22066159.631   -12065338.227 6  -9240940.27921        14.750           0.813
 91  6 19 17 18 29.9980000  0  6G18G 2G11G16G19G 6
  22567783.037     9245556.042 6   7194382.38821        13.500           0.656
  20962467.303   -17945193.329 7 -13885709.91723        24.000           2.719
  22225106.311   -10916232.495 6  -8426095.25821        19.250           1.281
  22728236.217    -7213088.733 5                        11.250
  20333730.654    -1342890.435 6  -1012722.19822        19.500           1.813
  22057381.975   -12111471.475 6  -9276888.25321        15.000           0.750
 91  6 19 17 18 44.9980000  0  6G18G 2G11G16G19G 6
  22575391.967     9285531.025 6   7225531.67921        14.000           0.719
  20954111.264   -17989112.564 7 -13919932.68323        23.500           2.719
  22223147.897   -10926531.799 6  -8434120.70421        19.500           1.188
  22728280.975    -7212870.978 5                        11.000
  20334878.826    -1336865.189 6  -1008027.22522        19.500           1.813
  22048604.732   -12157584.404 6  -9312820.37821        15.000           0.781
 91  6 19 17 18 59.9980000  0  6G18G 2G11G16G19G 6
  22583006.982     9325553.790 6   7256718.20121        13.500           0.625
  20945766.678   -18032953.512 7 -13954094.44223        23.750           2.781
  22221217.826   -10936675.088 6  -8442024.58221        19.750           1.219
  22728344.850    -7212525.727 5                        11.250
  20336039.443    -1330776.001 6  -1003282.42222        18.500           1.844
  22039838.201   -12203671.819 6  -9348732.62921        15.000           0.719
 91  6 19 17 19 14.9980000  0  6G18G 2G11G16G19G 6
  22590630.545     9365621.316 6   7287939.60221        13.500           0.813
  20937439.334   -18076719.144 7 -13988197.52623        23.750           2.781
  22219315.357   -10946665.491 6  -8449809.32521        19.750           1.250
  22728435.037    -7212056.084 5  -5552465.14721        11.250           0.438
  20337208.522    -1324625.687 7   -998489.98422        20.000           1.813
  22031068.904   -12249736.743 6  -9384627.35821        14.750           0.781
 91  6 19 17 19 29.9980000  0  6G18G 2G11G16G19G 6
  22598265.420     9405740.446 6   7319201.21121        13.500           0.656
  20929127.014   -18120402.199 7 -14022236.25923        24.250           2.844
  22217446.240   -10956495.830 7  -8457469.34221        20.000           1.281
  22728550.850    -7211455.373 5  -5551997.08321        11.500           0.563
  20338392.725    -1318407.171 6   -993644.40222        18.500           1.875
  22022311.897   -12295772.013 6  -9420498.98121        15.000           0.844
 91  6 19 17 19 44.9980000  0  6G18G 2G11G16G19G 6
  22605911.303     9445910.837 6   7350502.76521        14.000           0.688
  20920831.350   -18164002.849 7 -14056210.78123        24.250           2.781
  22215606.022   -10966166.395 6  -8465004.85621        19.500           1.250
  22728689.436    -7210723.614 5  -5551426.90721        11.500           0.438
  20339588.053    -1312120.586 6   -988745.78222        19.750           1.750
  22013552.701   -12341777.719 6  -9456347.57321        14.750           0.813
 91  6 19 17 19 59.9970000  0  6G18G 2G11G16G19G 6
  22613566.243     9486131.624 6   7381843.58221        14.000           0.688
  20912549.595   -18207515.990 7 -14090117.11023        24.250           2.813
  22213795.993   -10975674.432 7  -8472413.72621        20.000           1.156
  22728854.517    -7209859.086 5  -5550753.27921        11.500           0.438
  20340800.243    -1305764.441 6   -983792.95822        18.250           1.750
  22004806.876   -12387748.790 6  -9492169.16321        14.250           0.813
 91  6 19 17 20 14.9970000  0  6G18G 2G11G16G19G 6
  22621225.735     9526398.764 6   7413220.53221        14.000           0.625
  20904283.829   -18250956.205 7 -14123966.62023        24.500           2.813
  22212015.829   -10985030.167 6  -8479703.92821        19.750           1.219
  22729040.376    -7208871.017 5  -5549983.37321        11.000           0.406
  20342017.188    -1299346.865 6   -978792.26622        19.500           1.813
  21996060.845   -12433700.214 6  -9527975.44121        14.750           1.000
 91  6 19 17 20 29.9970000  0  6G18G 2G11G16G19G 6
  22628892.642     9566699.350 6   7444623.54321        13.500           0.656
  20896029.790   -18294330.465 7 -14157764.73023        24.750           2.781
  22210261.649   -10994242.759 6  -8486882.57321        19.750           1.219
  22729251.735    -7207769.354 5  -5549124.95521        11.250           0.531
  20343248.251    -1292877.992 6   -973751.60422        19.250           1.781
  21987318.407   -12479638.680 6  -9563771.63221        14.250           1.000
 91  6 19 17 20 44.9970000  0  6G18G 2G11G16G19G 6
  22636572.813     9607055.018 6   7476069.46421        13.000           0.625
  20887792.571   -18337616.817 7 -14191494.34623        24.750           2.844
  22208541.845   -11003290.264 7  -8493932.59321        20.000           1.188
  22729489.376    -7206532.314 5  -5548161.05921        11.500           0.406
  20344494.024    -1286335.831 6   -968653.83522        19.500           1.813
  21978586.767   -12525542.293 6  -9599540.66121        14.250           0.906
 91  6 19 17 20 59.9970000  0  6G18G 2G11G16G19G 6
  22644264.235     9647470.098 6   7507561.68321        12.750           0.750
  20879573.329   -18380810.886 7 -14225152.04823        24.750           2.781
  22206852.196   -11012168.465 6  -8500850.68221        19.750           1.188
  22729749.978    -7205156.040 5  -5547088.65621        11.500           0.438
  20345753.735    -1279716.197 6   -963495.69222        19.000           1.875
  21969858.728   -12571406.707 6  -9635279.14821        14.750           1.000
 91  6 19 17 21 14.9970000  0  6G18G 2G11G16G19G 6
  22651967.040     9687935.909 6   7539093.42021        12.750           0.656
  20871370.149   -18423920.778 7 -14258744.16223        24.750           2.781
  22205193.579   -11020885.602 6  -8507643.26921        19.750           1.250
  22730036.782    -7203648.657 5  -5545914.09821        11.250           0.531
  20347028.845    -1273027.330 6   -958283.60522        19.750           1.813
  21961134.470   -12617240.212 6  -9670993.54821        15.000           0.875
 91  6 19 17 21 29.9970000  0  6G18G 2G11G16G19G 6
  22659678.149     9728452.265 6   7570664.55321        12.750           0.688
  20863182.392   -18466946.734 7 -14292270.87423        24.750           2.844
  22203564.493   -11029441.757 6  -8514310.41621        19.500           1.219
  22730350.337    -7202010.663 5  -5544637.75721        11.500           0.469
  20348312.806    -1266269.421 6   -953017.71722        19.000           1.875
  21952419.149   -12663042.822 6  -9706683.87521        15.250           0.938
 91  6 19 17 21 44.9970000  0  6G18G 2G11G16G19G 6
  22667395.938     9769010.726 6   7602268.48921        13.500           0.688
  20855009.134   -18509896.850 7 -14325738.48523        24.750           2.813
  22201965.360   -11037845.334 6  -8520858.66921        19.250           1.219
  22730685.126    -7200250.370 5  -5543266.12721        11.500           0.531
  20349608.860    -1259450.741 6   -947704.48022        19.000           1.844
  21943707.954   -12708822.640 6  -9742356.44721        15.500           0.969
 91  6 19 17 21 59.9970000  0  6G18G 2G11G16G19G 6
  22675123.884     9809637.107 6   7633925.36621        13.250           0.688
  20846855.478   -18552744.864 7 -14359126.53523        25.000           2.750
  22200400.243   -11046070.173 6  -8527267.65021        19.250           1.219
  22731045.407    -7198342.079 5  -5541779.16021        11.000           0.563
  20350925.392    -1252545.052 6   -942323.44322        19.000           1.969
  21935008.681   -12754553.530 6  -9777990.88921        16.250           1.000
 91  6 19 17 22 14.9970000  0  6G18G 2G11G16G19G 6
  22682866.720     9850322.561 6   7665628.26621        13.250           0.656
  20838718.478   -18595499.284 7 -14392441.65823        24.750           2.719
  22198867.337   -11054124.703 6  -8533543.91721        19.250           1.219
  22731435.376    -7196294.699 5  -5540183.83321        10.750           0.531
  20352254.056    -1245560.762 6   -936881.15922        19.750           1.875
  21926313.790   -12800244.049 6  -9813593.87521        16.000           0.969
 91  6 19 17 22 29.9970000  0  6G18G 2G11G16G19G 6
  22690619.274     9891044.433 6   7697359.53521        13.000           0.688
  20830596.298   -18638182.419 7 -14425701.23223        24.500           2.781
  22197363.774   -11062031.370 6  -8539704.96421        19.750           1.125
  22731849.228    -7194130.621 5  -5538497.56121        11.000           0.531
  20353594.853    -1238520.261 6   -931395.07322        19.000           2.000
  21917621.743   -12845916.505 6  -9849182.78921        16.000           0.906
 91  6 19 17 22 44.9970000  0  6G18G 2G11G16G19G 6
  22698372.962     9931804.290 6   7729120.40421        12.750           0.625
  20822488.657   -18680792.054 7 -14458903.53323        24.750           2.719
  22195887.103   -11069788.216 6  -8545749.26921        19.500           1.250
  22732281.634    -7191848.085 5  -5536718.99521        10.750           0.563
  20354943.087    -1231421.659 6   -925863.70922        19.750           1.969
  21908934.454   -12891568.826 6  -9884756.01121        16.250           0.938
 91  6 19 17 22 59.9970000  0  6G18G 2G11G16G19G 6
  22706147.735     9972652.450 6   7760950.08321        12.500           0.656
  20814403.157   -18723277.804 7 -14492009.30623        25.000           2.750
  22194448.837   -11077344.760 6  -8551637.50121        19.250           1.219
  22732750.048    -7189396.602 5  -5534808.77721        10.500           0.469
  20356315.657    -1224214.403 6   -920247.68422        19.500           1.938
  21900261.251   -12937150.472 6  -9920274.15921        16.000           0.938
 91  6 19 17 23 14.9970000  0  6G18G 2G11G16G19G 6
  22713933.642    10013571.025 6   7792834.61921        12.000           0.594
  20806338.923   -18765657.208 7 -14525032.20623        24.500           2.688
  22193045.626   -11084718.675 6  -8557383.42321        19.250           1.219
  22733244.829    -7186794.178 5  -5532780.94521        10.750           0.500
  20357703.220    -1216916.104 7   -914560.71122        20.000           1.875
  21891594.915   -12982679.016 6  -9955750.93221        16.000           0.906
 91  6 19 17 23 29.9970000  0  6G18G 2G11G16G19G 6
  22721725.642    10054527.034 6   7824748.34421        12.000           0.625
  20798288.024   -18807963.061 7 -14557997.79623        24.500           2.813
  22191670.626   -11091942.898 6  -8563012.69721        19.500           1.219
  22733761.056    -7184073.825 5  -5530661.21321        10.750           0.625
  20359105.368    -1209559.641 6   -908828.43022        19.500           1.844
  21882936.673   -13028187.338 6  -9991211.95121        15.750           0.938
 91  6 19 17 23 44.9970000  0  6G18G 2G11G16G19G 6
  22729523.728    10095494.844 5   7856671.24421        11.750           0.531
  20790247.345   -18850220.479 7 -14590925.64323        25.000           2.844
  22190321.642   -11099042.656 6  -8568544.99521        19.500           1.125
  22734297.368    -7181261.339 5  -5528469.68321        10.750           0.375
  20360509.720    -1202170.295 7   -903070.51622        20.250           1.844
  21874275.306   -13073700.681 6 -10026676.88321        15.500           0.969
 91  6 19 17 23 59.9970000  0  6G18G 2G11G16G19G 6
  22737322.376    10136496.402 5   7888620.45221        11.500           0.531
  20782219.532   -18892407.252 7 -14623798.44523        25.000           2.844
  22188996.860   -11105995.727 6  -8573962.98721        19.000           1.188
  22734856.899    -7178334.360 5  -5526188.95121        11.250           0.406
  20361929.665    -1194725.725 6   -897269.56822        19.500           1.906
  21865615.110   -13119196.657 6 -10062128.26821        15.250           0.906
 91  6 19 17 24 14.9970000  0  6G18G 2G11G16G19G 6
  22745137.392    10177545.630 5   7920606.80121        11.750           0.594
  20774209.313   -18934509.313 7 -14656605.23423        25.000           2.813
  22187704.813   -11112788.019 6  -8579255.68821        19.000           1.156
  22735435.321    -7175278.977 5  -5523808.16021        10.750           0.469
  20363356.556    -1187211.818 7   -891414.59722        20.000           2.000
  21856962.501   -13164661.202 6 -10097555.18021        15.500           0.781
 91  6 19 17 24 29.9970000  0  6G18G 2G11G16G19G 6
  22752951.563    10218636.217 5   7952625.39121        11.250           0.594
  20766211.509   -18976532.367 7 -14689350.45323        25.250           2.844
  22186441.579   -11119425.584 6  -8584427.83021        18.750           1.125
  22736041.267    -7172101.506 5  -5521332.23421        11.250           0.406
  20364799.415    -1179634.690 7   -885510.36322        20.000           1.813
  21848320.157   -13210100.255 6 -10132962.21121        15.750           0.844
 91  6 19 17 24 44.9970000  0  6G18G 2G11G16G19G 6
  22760780.688    10259754.303 6   7984665.39721        12.000           0.625
  20758226.329   -19018490.259 7 -14722044.91023        25.000           2.906
  22185205.845   -11125922.180 6  -8589490.12121        18.750           1.156
  22736663.540    -7168816.046 5  -5518772.15821        11.250           0.438
  20366248.610    -1172008.051 7   -879567.54722        20.250           1.906
  21839674.126   -13255527.366 6 -10168359.95321        15.500           0.938
 91  6 19 17 24 59.9970000  0  6G18G 2G11G16G19G 6
  22768613.798    10300924.619 5   8016746.11321        11.750           0.594
  20750259.306   -19060357.717 7 -14754668.89323        24.750           2.938
  22184002.001   -11132252.641 6  -8594422.96921        19.250           1.188
  22737314.743    -7165397.490 5  -5516108.36521        11.250           0.438
  20367715.767    -1164306.755 6   -873566.55522        19.750           1.844
  21831033.868   -13300917.484 6 -10203728.86121        15.500           0.844
 91  6 19 17 25 14.9970000  0  6G18G 2G11G16G19G 6
  22776457.829    10342137.154 6   8048859.72421        12.000           0.594
  20742309.165   -19102144.284 7 -14787229.84323        25.000           3.063
  22182824.985   -11138426.633 6  -8599233.88721        18.750           1.219
  22737988.821    -7161855.474 5  -5513348.38521        10.750           0.438
  20369193.798    -1156540.230 7   -867514.73722        20.250           1.813
  21822402.337   -13346280.063 6 -10239076.31421        15.750           0.906
 91  6 19 17 25 29.9970000  0  6G18G 2G11G16G19G 6
  22784303.524    10383370.646 6   8080989.66121        12.000           0.469
  20734367.243   -19143871.034 7 -14819744.18323        25.000           2.969
  22181677.485   -11144465.424 6  -8603939.44121        19.000           1.219
  22738681.860    -7158211.693 5  -5510509.09921        10.500           0.406
  20370681.095    -1148729.708 7   -861428.63222        20.000           1.844
  21813776.274   -13391636.296 6 -10274418.81721        15.750           0.906
 91  6 19 17 25 44.9970000  0  6G18G 2G11G16G19G 6
  22792162.517    10424672.055 6   8113172.53021        12.000           0.531
  20726447.813   -19185490.558 7 -14852174.97423        25.000           3.063
  22180561.774   -11150321.820 6  -8608502.89521        18.750           1.219
  22739405.571    -7154418.982 5  -5507553.75721        10.750           0.500
  20372184.774    -1140828.037 7   -855271.50222        20.000           1.938
  21805150.571   -13436938.920 6 -10309719.54021        15.500           0.969
 91  6 19 17 25 59.9970000  0  6G18G 2G11G16G19G 6
  22800034.407    10466038.140 6   8145405.78921        12.000           0.500
  20718547.899   -19227006.008 7 -14884524.66423        25.000           2.938
  22179482.079   -11155998.823 6  -8612926.54121        19.000           1.188
  22740155.642    -7150480.965 5  -5504485.20721        11.000           0.406
  20373705.087    -1132838.162 6   -849045.64622        19.750           1.969
  21796541.837   -13482190.779 6 -10344980.72421        15.750           0.906
 91  6 19 17 26 14.9970000  0  6G18G 2G11G16G19G 6
  22807913.306    10507448.330 5   8177673.40821        11.750           0.469
  20710663.360   -19268437.543 7 -14916808.96823        24.750           2.969
  22178433.188   -11161516.888 6  -8617226.34221        19.500           1.250
  22740927.478    -7146417.781 5  -5501319.11121        10.750           0.531
  20375236.837    -1124780.368 6   -842766.86422        19.750           1.938
  21787935.853   -13527412.272 6 -10380218.23121        16.000           0.938
 91  6 19 17 26 29.9970000  0  6G18G 2G11G16G19G 6
  22815802.735    10548900.448 5   8209973.70921        11.000           0.563
  20702795.673   -19309787.007 7 -14949029.32023        24.750           3.000
  22177412.126   -11166877.846 6  -8621403.72821        19.250           1.188
  22741724.603    -7142231.464 5  -5498057.06121        10.750           0.469
  20376785.345    -1116656.614 6   -836436.68522        19.250           1.906
  21779337.259   -13572605.142 6 -10415433.44121        16.250           0.906
 91  6 19 17 26 44.9970000  0  6G18G 2G11G16G19G 6
  22823703.274    10590397.592 6   8242309.08121        12.000           0.438
  20694942.759   -19351050.818 7 -14981182.92323        24.750           3.063
  22176422.188   -11172078.165 6  -8625455.93521        19.250           1.188
  22742540.329    -7137918.915 5  -5494696.67521        10.750           0.406
  20378342.142    -1108463.352 6   -830052.34322        19.750           1.938
  21770741.376   -13617765.845 6 -10450623.58621        15.750           1.031
 91  6 19 17 26 59.9970000  0  6G18G 2G11G16G19G 6
  22831604.173    10631930.575 5   8274672.38421        11.500           0.625
  20687104.634   -19392238.126 7 -15013276.92123        24.750           3.094
  22175460.071   -11177127.152 6  -8629390.22421        19.000           1.250
  22743387.071    -7133489.490 5  -5491245.19921        10.750           0.531
  20379914.767    -1100209.661 6   -823620.91422        19.250           2.000
  21762153.696   -13662903.485 6 -10485795.76221        16.250           1.031
 91  6 19 17 27 14.9970000  0  6G18G 2G11G16G19G 6
  22839517.220    10673516.522 6   8307076.95721        12.000           0.500
  20679285.509   -19433331.359 7 -15045297.60823        24.500           3.031
  22174533.353   -11182007.345 6  -8633192.98121        19.500           1.313
  22744255.485    -7128925.998 5  -5487689.25421        10.750           0.406
  20381498.259    -1091878.228 6   -817128.89522        19.250           1.938
  21753569.407   -13708000.454 6 -10520936.24021        16.000           1.031
 91  6 19 17 27 29.9970000  0  6G18G 2G11G16G19G 6
  22847440.110    10715142.953 6   8339513.07121        12.000           0.469
  20671480.634   -19474342.706 7 -15077254.49423        24.500           3.125
  22173634.423   -11186731.064 6  -8636873.81121        19.500           1.281
  22745150.837    -7124240.835 5  -5484038.50121        10.750           0.469
  20383095.970    -1083481.316 6   -810585.86922        18.750           1.969
  21744996.212   -13753069.083 6 -10556054.63121        16.000           1.063
 91  6 19 17 27 44.9970000  0  6G18G 2G11G16G19G 6
  22855370.892    10756828.010 5   8371994.89221        11.750           0.500
  20663696.743   -19515253.521 7 -15109133.04323        24.250           3.031
  22172768.493   -11191279.795 6  -8640418.29521        19.250           1.219
  22746066.134    -7119415.539 5  -5480278.54921        10.750           0.500
  20384711.134    -1075000.136 6   -803977.17822        19.250           1.938
  21736427.806   -13798090.717 6 -10591136.42121        16.500           0.875
 91  6 19 17 27 59.9970000  0  6G18G 2G11G16G19G 6
  22863313.431    10798550.444 6   8404505.80421        12.000           0.438
  20655926.618   -19556084.983 7 -15140949.75523        24.000           3.031
  22171932.946   -11195674.718 6  -8643842.92221        19.250           1.188
  22747008.321    -7114471.725 5  -5476426.25721        11.000           0.469
  20386337.345    -1066455.897 6   -797319.34222        18.750           2.000
  21727864.806   -13843086.526 6 -10626198.07421        17.000           0.906
 91  6 19 17 28 14.9970000  0  6G18G 2G11G16G19G 6
  22871255.118    10840297.368 5   8437035.81921        11.250           0.531
  20648168.462   -19596849.274 7 -15172714.12823        24.250           2.969
  22171123.493   -11199928.183 6  -8647157.32021        19.250           1.219
  22747972.220    -7109421.800 5  -5472491.29021        11.250           0.531
  20387970.743    -1057860.823 6   -790621.90522        19.000           1.938
  21719306.024   -13888068.556 6 -10661248.99621        16.750           0.844
 91  6 19 17 28 29.9970000  0  6G18G 2G11G16G19G 6
  22879202.259    10882062.969 5   8469580.37621        11.750           0.531
  20640423.353   -19637552.132 7 -15204430.63223        24.500           3.063
  22170340.134   -11204046.060 6  -8650366.07821        19.000           1.250
  22748946.657    -7104272.058 5  -5468478.53321        10.750           0.500
  20389617.181    -1049220.882 6   -783889.50422        19.000           2.031
  21710749.267   -13933042.744 6 -10696293.81221        16.750           0.969
 91  6 19 17 28 44.9970000  0  6G18G 2G11G16G19G 6
  22887157.774    10923870.262 5   8502157.43721        11.500           0.500
  20632694.876   -19678170.383 7 -15236081.20723        24.500           3.063
  22169586.696   -11208005.257 6  -8653451.16821        19.000           1.188
  22749950.337    -7098999.369 5  -5464369.97321        10.750           0.438
  20391274.618    -1040512.962 6   -777104.12322        19.250           1.938
  21702194.704   -13977985.776 6 -10731314.34021        16.500           0.875
 91  6 19 17 28 59.9970000  0  6G18G 2G11G16G19G 6
  22895124.306    10965737.014 5   8534780.81721        11.500           0.500
  20624984.806   -19718685.813 7 -15267651.65923        24.750           3.125
  22168867.024   -11211787.727 6  -8656398.56621        19.500           1.156
  22750980.149    -7093586.099 5  -5460151.87221        10.500           0.375
  20392946.220    -1031718.830 6   -770251.56922        18.750           2.000
  21693650.470   -14022879.566 6 -10766296.50121        15.750           1.031
 91  6 19 17 29 14.9970000  0  6G18G 2G11G16G19G 6
  22903098.173    11007642.586 5   8567434.43421        11.250           0.500
  20617290.157   -19759118.965 7 -15299158.00223        24.500           2.969
  22168177.532   -11215414.089 6  -8659224.31621        19.750           1.156
  22752037.228    -7088052.885 5  -5455840.31521        10.750           0.438
  20394632.665    -1022858.962 6   -763347.79822        19.250           1.938
  21685111.548   -14067744.570 6 -10801256.22921        15.500           1.031
 91  6 19 17 29 29.9970000  0  6G18G 2G11G16G19G 6
  22911082.556    11049587.413 6   8600118.64921        12.000           0.594
  20609612.423   -19799468.967 7 -15330599.55823        24.750           3.000
  22167516.368   -11218883.605 6  -8661927.85221        19.500           1.156
  22753110.907    -7082398.992 5  -5451434.71721        10.500           0.500
  20396331.001    -1013932.768 6   -756392.34422        18.750           1.969
  21676580.376   -14112579.979 6 -10836192.89421        15.250           1.000
 91  6 19 17 29 44.9970000  0  6G18G 2G11G16G19G 6
  22919074.134    11091588.303 5   8632846.55521        11.250           0.594
  20601953.493   -19839718.557 7 -15361962.86423        25.000           3.000
  22166888.806   -11222179.164 6  -8664495.83221        19.250           1.188
  22754213.212    -7076607.635 5  -5446922.00321        10.750           0.531
  20398046.524    -1004922.997 6   -749371.76422        19.250           1.938
  21668057.774   -14157368.543 6 -10871093.05821        15.000           1.125
 91  6 19 17 29 59.9970000  0  6G18G 2G11G16G19G 6
  22927073.063    11133629.322 5   8665605.71821        11.250           0.563
  20594308.618   -19879883.415 7 -15393260.14323        24.750           2.906
  22166293.017   -11225316.411 6  -8666940.45321        19.500           1.156
  22755336.399    -7070694.550 5  -5442314.43321        10.500           0.469
  20399774.001     -995845.115 6   -742298.10822        18.750           1.969
  21659541.649   -14202125.737 6 -10905968.77921        15.250           0.969
 91  6 19 17 30 14.9970000  0  6G18G 2G11G16G19G 6
  22935080.181    11175704.376 5   8698391.41121        11.250           0.563
  20586681.071   -19919969.081 7 -15424495.71223        24.750           2.969
  22165725.579   -11228301.291 6  -8669266.34421        19.500           1.156
  22756484.860    -7064666.109 5  -5437616.98321        10.250           0.438
  20401511.274     -986704.906 6   -735175.88322        18.750           1.906
  21651029.431   -14246857.386 6 -10940824.59821        16.000           0.969
 91  6 19 17 30 29.9970000  0  6G18G 2G11G16G19G 6
  22943094.821    11217818.602 5   8731207.63121        10.750           0.531
  20579069.243   -19959970.178 7 -15455665.38623        25.250           3.000
  22165186.071   -11231128.435 6  -8671469.32021        19.250           1.188
  22757655.837    -7058517.222 5  -5432825.66721        10.250           0.438
  20403264.829     -977497.004 6   -728000.91622        19.250           2.063
  21642522.165   -14291557.975 6 -10975656.21521        16.000           1.000
 91  6 19 17 30 44.9970000  0  6G18G 2G11G16G19G 6
  22951117.149    11259969.129 5   8764052.14021        10.000           0.375
  20571474.142   -19999889.310 7 -15486771.19623        25.750           3.000
  22164677.235   -11233800.601 6  -8673551.53521        19.000           1.156
  22758850.954    -7052250.502 5  -5427942.54221        10.500           0.500
  20405030.079     -968224.032 6   -720775.24122        19.250           1.969
  21634021.524   -14336230.101 6 -11010465.64621        16.000           1.000
 91  6 19 17 30 59.9970000  0  6G18G 2G11G16G19G 6
  22959140.095    11302133.271 5   8796907.26221         9.750           0.344
  20563888.985   -20039749.234 7 -15517830.86623        26.000           3.063
  22164193.415   -11236340.613 6  -8675530.78121        19.000           1.188
  22760058.501    -7045888.693 5  -5422985.31821        10.000           0.469
  20406801.728     -958908.816 6   -713516.64722        19.500           1.906
  21625522.235   -14380896.457 6 -11045270.58621        16.000           1.031
 91  6 19 17 31 14.9970000  0  6G18G 2G11G16G19G 6
  22967164.829    11344326.188 5   8829784.78821         9.500           0.438
  20556317.306   -20079534.102 7 -15548832.05223        26.000           2.969
  22163740.142   -11238732.641 6  -8677394.70821        19.250           1.281
  22761291.243    -7039416.392 5  -5417941.99121        10.000           0.406
  20408586.071     -949535.515 6   -706212.79122        19.250           1.969
  21617027.970   -14425541.167 6 -11080058.65521        16.500           0.938
 91  6 19 17 31 29.9970000  0  6G18G 2G11G16G19G 6
  22975201.103    11386529.245 5   8862670.22421        10.250           0.344
  20548756.360   -20119262.117 7 -15579788.93923        26.000           3.125
  22163309.626   -11240995.164 6  -8679157.72921        18.750           1.250
  22762539.181    -7032852.353 5  -5412827.17321        10.000           0.438
  20410380.188     -940122.456 6   -698877.95622        18.000           1.938
  21608534.446   -14470182.474 6 -11114844.08021        16.500           0.969
 91  6 19 17 31 44.9970000  0  6G18G 2G11G16G19G 6
  22983237.165    11428760.848 5   8895577.90321        10.750           0.406
  20541211.774   -20158914.655 7 -15610687.00923        26.250           3.063
  22162907.884   -11243109.724 6  -8680805.43821        19.500           1.219
  22763806.923    -7026178.247 5  -5407626.60321         9.500           0.375
  20412181.188     -930650.962 6   -691497.58922        19.250           2.000
  21600042.353   -14514801.778 6 -11149612.35721        16.000           0.969
 91  6 19 17 31 59.9970000  0  6G18G 2G11G16G19G 6
  22991279.696    11471032.059 5   8928516.45321        10.000           0.375
  20533683.188   -20198480.539 7 -15641517.55523        26.000           3.125
  22162535.017   -11245065.223 6  -8682329.21121        19.000           1.281
  22765101.798    -7019383.018 5  -5402331.65121         9.750           0.406
  20413999.321     -921109.982 6   -684063.08022        18.250           1.938
  21591555.048   -14559387.875 6 -11184354.76121        16.250           0.906
 91  6 19 17 32 14.9970000  0  6G18G 2G11G16G19G 6
  22999332.454    11513361.532 5   8961500.39521        10.000           0.469
  20526173.673   -20237940.818 7 -15672265.81423        26.000           3.063
  22162194.446   -11246842.744 6  -8683714.31021        18.500           1.250
  22766426.282    -7012448.012 5  -5396927.77021        10.000           0.344
  20415828.884     -911480.510 6   -676559.61822        19.500           1.969
  21583083.337   -14603921.786 6 -11219056.49321        16.500           0.969
 91  6 19 17 32 29.9970000  0  6G18G 2G11G16G19G 6
  23007401.532    11555724.593 5   8994510.49221        10.750           0.406
  20518679.384   -20277319.928 7 -15702950.82123        26.000           3.063
  22161887.298   -11248466.761 6  -8684979.78921        19.000           1.219
  22767765.040    -7005397.812 5  -5391434.12621        10.000           0.375
  20417675.649     -901786.997 6   -669006.24922        18.250           1.938
  21574614.118   -14648427.772 6 -11253736.46721        16.500           1.031
 91  6 19 17 32 44.9970000  0  6G18G 2G11G16G19G 6
  23015464.993    11598119.158 5   9027545.15421        10.250           0.469
  20511202.032   -20316619.301 7 -15733573.70723        26.000           3.031
  22161606.032   -11249939.027 6  -8686127.02821        18.750           1.313
  22769125.181    -6998234.574 5  -5385852.40721        10.000           0.313
  20419529.212     -892031.164 6   -661404.31622        19.250           1.875
  21566148.743   -14692907.430 6 -11288395.93421        16.750           1.000
 91  6 19 17 32 59.9970000  0  6G18G 2G11G16G19G 6
  23023541.774    11640562.459 5   9060617.78421        10.500           0.406
  20503741.485   -20355821.307 7 -15764120.71323        26.000           3.031
  22161357.079   -11251242.049 6  -8687142.37421        18.250           1.250
  22770516.024    -6990940.828 5  -5380168.99221        10.500           0.281
  20421401.149     -882195.275 6   -653740.00922        19.000           1.813
  21557693.712   -14737343.163 6 -11323021.16721        16.500           1.063
 91  6 19 17 33 14.9970000  0  6G18G 2G11G16G19G 6
  23031632.556    11683064.042 5   9093735.83821        10.750           0.406
  20496301.688   -20394916.471 7 -15794584.47223        26.000           3.031
  22161144.642   -11252366.496 6  -8688018.57221        18.500           1.219
  22771932.899    -6983507.635 5  -5374376.91621        10.250           0.406
  20423289.204     -872270.012 6   -646006.05122        19.500           1.938
  21549248.298   -14781725.329 6 -11357604.65721        16.250           0.906
 91  6 19 17 33 29.9970000  0  6G18G 2G11G16G19G 6
  23039719.587    11725588.984 5   9126872.08021        10.500           0.406
  20488876.712   -20433939.056 7 -15824991.66923        25.750           2.844
  22160958.017   -11253346.901 6  -8688782.53621        18.750           1.219
  22773361.751    -6975969.347 5  -5368502.96321        10.000           0.375
  20425189.087     -862289.630 6   -638229.14722        18.750           1.844
  21540805.626   -14826088.479 6 -11392173.32721        16.500           1.094
 91  6 19 17 33 44.9970000  0  6G18G 2G11G16G19G 6
  23047821.774    11768142.811 5   9160030.83821        10.750           0.344
  20481464.923   -20472883.297 7 -15855337.81923        25.750           3.031
  22160801.204   -11254177.450 6  -8689429.73021        18.750           1.219
  22774820.657    -6968320.273 5  -5362542.66421        10.000           0.438
  20427099.329     -852248.321 6   -630404.77022        19.250           1.875
  21532369.931   -14870426.642 6 -11426722.52721        17.000           0.969
 91  6 19 17 33 59.9970000  0  6G18G 2G11G16G19G 6
  23055923.071    11810739.465 5   9193222.96621        10.000           0.344
  20474072.368   -20511734.896 7 -15885611.78623        26.250           3.125
  22160673.735   -11254844.004 6  -8689949.13321        19.000           1.313
  22776296.735    -6960546.700 5  -5356485.34921         9.750           0.469
  20429023.845     -842131.854 6   -622521.82122        18.750           1.969
  21523937.493   -14914725.569 6 -11461241.15421        17.000           1.156
 91  6 19 17 34 14.9970000  0  6G18G 2G11G16G19G 6
  23064037.563    11853372.660 5   9226443.58321        10.500           0.281
  20466696.001   -20550499.869 7 -15915818.25223        26.250           3.000
  22160576.571   -11255352.758 6  -8690345.56921        18.000           1.313
  22777799.142    -6952654.902 5  -5350335.93521         9.500           0.438
  20430962.157     -831946.428 6   -614585.14322        19.250           1.844
  21515514.407   -14958991.243 6 -11495733.87821        17.000           1.094
 91  6 19 17 34 29.9970000  0  6G18G 2G11G16G19G 6
  23072158.032    11896042.569 5   9259692.79121        10.750           0.375
  20459334.423   -20589177.968 7 -15945957.01923        25.750           3.000
  22160510.274   -11255703.639 6  -8690618.99021        18.250           1.281
  22779320.548    -6944645.121 5  -5344094.56921         9.250           0.313
  20432914.329     -821691.718 6   -606594.47922        18.750           1.875
  21507099.735   -15003223.350 6 -11530200.43921        17.500           1.000
 91  6 19 17 34 44.9970000  0  6G18G 2G11G16G19G 6
  23080282.704    11938731.308 5   9292956.69221        11.000           0.344
  20451988.142   -20627786.733 7 -15976041.76123        25.750           3.031
  22160468.587   -11255914.158 6                        18.000
  22780870.720    -6936534.891 5  -5337774.93621         9.750           0.313
  20434875.704     -811385.153 6   -598563.40922        19.250           1.844
  21498683.188   -15047439.281 6 -11564654.39721        17.750           1.063
 91  6 19 17 34 59.9970000  0  6G18G 2G11G16G19G 6
  23088407.642    11981440.936 5   9326236.85621        11.000           0.375
  20444654.501   -20666323.854 7 -16006070.68023        25.750           3.094
  22160457.329   -11255982.266 6                        18.250
  22782432.743    -6928322.136 5  -5331375.40321        10.000           0.313
  20436849.978     -801024.465 6   -590490.16122        18.750           1.875
  21490273.228   -15091636.723 6 -11599093.94721        17.250           1.031
 91  6 19 17 35 14.9970000  0  6G18G 2G11G16G19G 6
  23096539.954    12024173.607 5   9359534.96021        10.500           0.344
  20437335.415   -20704786.680 7 -16036041.70223        26.000           3.125
  22160472.181   -11255905.526 6                        18.500
  22784010.228    -6920004.865 5  -5324894.45321         9.750           0.344
  20438830.962     -790607.193 6   -582372.82222        19.250           1.875
  21481868.438   -15135813.132 6 -11633517.11221        17.250           0.969
 91  6 19 17 35 29.9970000  0  6G18G 2G11G16G19G 6
  23104681.446    12066947.693 5   9392865.34921        10.250           0.375
  20430034.313   -20743156.533 7 -16065940.28323        26.000           3.188
  22160515.345   -11255665.262 6                        18.250
  22785617.228    -6911564.475 5  -5318317.56121         9.500           0.281
  20440826.970     -780114.644 6   -574196.82622        19.000           1.906
  21473468.696   -15179949.812 6 -11667909.30521        17.500           0.969
 91  6 19 17 35 44.9970000  0  6G18G 2G11G16G19G 6
  23112827.735    12109763.173 5   9426227.98521        10.250           0.406
  20422750.884   -20781433.246 7 -16095766.28623        26.000           3.188
  22160592.790   -11255261.530 6                        18.750
  22787246.798    -6903001.137 5  -5311644.84721         9.750           0.313
  20442835.438     -769546.817 6   -565962.17422        19.000           1.844
  21465076.556   -15224046.539 6 -11702270.37821        17.500           1.031
 91  6 19 17 35 59.9970000  0  6G18G 2G11G16G19G 6
  23120981.899    12152608.431 5   9459613.82821         9.750           0.469
  20415482.321   -20819628.026 7 -16125528.44223        26.250           3.156
  22160699.126   -11254705.675 6  -8689841.40321        18.500           1.219
  22788894.821    -6894326.382 5  -5304885.31221         9.500           0.344
  20444862.165     -758914.880 6   -557677.57622        19.000           1.969
  21456689.563   -15268114.467 6 -11736609.01621        17.500           1.000
 91  6 19 17 36 14.9970000  0  6G18G 2G11G16G19G 6
  23129140.915    12195474.982 5   9493016.25621        10.000           0.469
  20408226.806   -20857748.771 7 -16155232.91123        25.750           3.313
  22160833.978   -11254005.788 6  -8689296.04621        18.250           1.125
  22790570.118    -6885548.486 5  -5298045.42821         9.750           0.375
  20446895.071     -748226.824 6   -549349.23422        19.250           1.969
  21448310.587   -15312161.544 6 -11770931.39921        18.000           1.000
 91  6 19 17 36 29.9970000  0  6G18G 2G11G16G19G 6
  23137300.759    12238378.101 5   9526447.18821         9.000           0.406
  20400990.548   -20895780.014 7 -16184867.63323        25.750           3.281
  22160995.806   -11253146.463 6  -8688626.45021        18.500           1.188
  22792266.298    -6876652.218 5  -5291113.28821        10.250           0.313
  20448944.735     -737467.045 6   -540965.00122        18.750           1.813
  21439935.610   -15356172.231 6 -11805225.42621        18.250           1.063
 91  6 19 17 36 44.9970000  0  6G18G 2G11G16G19G 6
  23145470.665    12281320.486 5   9559908.70621         9.250           0.531
  20393770.095   -20933719.208 7 -16214430.63523        25.750           3.188
  22161189.353   -11252125.335 6  -8687830.77521        18.000           1.219
  22793980.392    -6867635.440 5  -5284087.27121        10.000           0.375
  20451003.126     -726633.158 6   -532523.02522        19.250           1.938
  21431567.751   -15400143.898 6 -11839489.04721        18.250           1.094
 91  6 19 17 36 59.9970000  0  6G18G 2G11G16G19G 6
  23153648.024    12324278.812 5   9593382.64521         9.750           0.531
  20386565.188   -20971588.938 7 -16243939.50923        25.250           3.375
  22161411.712   -11250965.061 6  -8686926.69121        18.250           1.188
  22795715.462    -6858520.901 5  -5276985.05221         9.750           0.406
  20453076.907     -715747.604 6   -524040.79222        19.250           1.875
  21423203.907   -15444099.103 6 -11873739.84121        18.500           1.094
 91  6 19 17 37 14.9970000  0  6G18G 2G11G16G19G 6
  23161827.782    12367253.505 5   9626869.35621         9.500           0.438
  20379370.907   -21009388.528 7 -16273393.72023        25.250           3.344
  22161659.540   -11249665.235 6  -8685913.84221        18.750           1.156
  22797466.024    -6849308.407 5  -5269806.51721        10.000           0.375
  20455155.751     -704810.020 6   -515518.01422        19.000           1.969
  21414842.384   -15488037.087 6 -11907977.22021        18.500           1.094
 91  6 19 17 37 29.9970000  0  6G18G 2G11G16G19G 6
  23170017.478    12410280.521 5   9660396.82021        10.250           0.406
  20372198.563   -21047081.879 7 -16302765.15523        25.000           3.281
  22161940.212   -11248189.869 6  -8684764.21421        18.500           1.156
  22799245.556    -6839962.124 5  -5262523.73121         9.750           0.406
  20457255.907     -693784.155 6   -506926.44522        18.750           1.969
  21406491.540   -15531921.826 6 -11942173.10521        18.250           1.219
 91  6 19 17 37 44.9970000  0  6G18G 2G11G16G19G 6
  23178212.470    12453352.601 5   9693959.40921         9.750           0.469
  20365044.603   -21084675.692 7 -16332059.02823        25.000           3.344
  22162252.517   -11246545.945 6  -8683483.24221        18.500           1.156
  22801048.228    -6830489.041 5  -5255142.12921         9.750           0.406
  20459368.610     -682676.885 6   -498271.44322        19.250           1.875
  21398149.743   -15575760.060 6 -11976332.75421        18.250           1.219
 91  6 19 17 37 59.9970000  0  6G18G 2G11G16G19G 6
  23186411.188    12496454.178 5   9727544.98921         9.000           0.500
  20357906.610   -21122185.566 7 -16361287.48923        25.500           3.281
  22162593.438   -11244749.102 6  -8682083.11521        17.750           1.125
  22802870.782    -6820905.123 5  -5247674.15921         9.750           0.469
  20461495.868     -671503.802 6   -489565.16722        19.000           1.969
  21389812.962   -15619567.223 6 -12010468.18621        18.250           1.219
 91  6 19 17 38 14.9970000  0  6G18G 2G11G16G19G 6
  23194625.282    12539591.494 5   9761158.38221         9.000           0.375
  20350786.103   -21159604.790 7 -16390445.31823        25.750           3.313
  22162966.274   -11242792.886 6  -8680558.80321        17.750           1.156
  22804717.157    -6811204.089 5  -5240114.94821         9.500           0.469
  20463635.110     -660258.148 6   -480802.33222        19.250           1.906
  21381482.938   -15663336.664 6 -12044574.22821        17.750           1.188
 91  6 19 17 38 29.9970000  0  6G18G 2G11G16G19G 6
  23202843.454    12582775.081 5   9794807.85921         8.750           0.344
  20343685.095   -21196922.440 7 -16419524.00023        26.000           3.219
  22163369.884   -11240666.517 6  -8678901.90321        18.000           1.063
  22806589.032    -6801375.260 5  -5232456.14721         9.750           0.344
  20465792.087     -648929.227 6   -471974.62222        18.750           2.000
  21373162.220   -15707057.389 6 -12078642.31521        17.750           1.063
 91  6 19 17 38 44.9970000  0  6G18G 2G11G16G19G 6
  23211058.649    12625968.454 5   9828464.95521         8.500           0.406
  20336597.313   -21234174.727 7 -16448551.74923        26.250           3.344
  22163801.048   -11238406.334 6  -8677140.72221        18.250           1.188
  22808475.188    -6791455.031 5  -5224726.12221         9.500           0.344
  20467955.860     -637553.214 6   -463110.21522        19.250           1.813
  21364844.009   -15750765.609 6 -12112700.65121        17.750           1.063
 91  6 19 17 38 59.9970000  0  6G18G 2G11G16G19G 6
  23219286.978    12669189.502 5   9862143.60921         8.500           0.344
  20329523.501   -21271343.382 7 -16477514.33123        26.250           3.250
  22164260.282   -11235994.288 6  -8675261.20021        18.250           1.188
  22810384.767    -6781425.515 5  -5216910.93821         9.500           0.313
  20470133.938     -626111.760 6   -454194.81122        18.500           1.781
  21356534.103   -15794443.031 6 -12146734.99021        17.750           1.188
 91  6 19 17 39 14.9970000  0  6G18G 2G11G16G19G 6
  23227515.493    12712440.734 5   9895845.78821         9.000           0.406
  20322465.673   -21308425.825 7 -16506409.73223        26.000           3.313
  22164748.860   -11233427.962 6  -8673261.48321        18.500           1.125
  22812313.657    -6771284.455 5  -5209008.85521         9.250           0.438
  20472322.298     -614602.241 6   -445226.37022        19.000           1.875
  21348229.673   -15838086.915 6 -12180743.19621        17.500           1.219
 91  6 19 17 39 29.9970000  0  6G18G 2G11G16G19G 6
  23235755.712    12755729.002 5   9929576.83721         9.500           0.281
  20315428.712   -21345414.683 7 -16535232.21123        26.250           3.250
  22165267.204   -11230700.172 6  -8671135.93721        18.250           1.094
  22814268.970    -6761024.741 5  -5201014.28921         9.250           0.438
  20474527.845     -603017.517 6   -436199.32622        18.500           1.781
  21339930.509   -15881690.025 6 -12214719.63521        17.250           1.125
 91  6 19 17 39 44.9970000  0  6G18G 2G11G16G19G 6
  23244003.353    12799077.972 5   9963355.17521         9.500           0.313
  20308411.993   -21382286.036 7 -16563963.12623        26.750           3.250
  22165822.712   -11227787.135 6  -8668866.04821        18.750           1.125
  22816250.235    -6750622.675 5  -5192908.82421         9.250           0.406
  20476750.556     -591333.689 6   -427095.05922        19.000           1.813
  21331643.985   -15925228.303 6 -12248645.55321        17.000           1.063
 91  6 19 17 39 59.9970000  0  6G18G 2G11G16G19G 6
  23252250.110    12842430.366 5   9997136.18521         9.750           0.375
  20301405.829   -21419096.925 7 -16592646.92823        27.000           3.188
  22166401.993   -11224745.921 6  -8666496.28521        18.750           1.156
  22818241.993    -6740135.673 5  -5184737.15921         9.250           0.469
  20478982.392     -579607.698 6   -417957.93722        18.250           1.906
  21323364.157   -15968758.763 6 -12282565.37021        17.250           1.188
 91  6 19 17 40 14.9970000  0  6G18G 2G11G16G19G 6
  23260508.868    12885811.681 5  10030939.74621        10.000           0.375
  20294418.970   -21455821.587 7 -16621263.54223        26.750           3.219
  22167008.024   -11221550.912 6  -8664006.67621        18.250           1.188
  22820259.954    -6729538.502 5  -5176479.66721         9.500           0.344
  20481227.649     -567813.977 6   -408768.04322        18.750           1.875
  21315084.892   -16012255.434 6 -12316458.87721        17.750           1.125
 91  6 19 17 40 29.9970000  0  6G18G 2G11G16G19G 6
  23268768.337    12929236.709 5  10064777.35421        10.000           0.375
  20287449.462   -21492444.958 7 -16649801.23023        27.000           3.156
  22167648.165   -11218187.392 6  -8661385.76121        18.000           1.094
  22822300.720    -6718816.579 5  -5168124.95121         9.750           0.344
  20483488.196     -555937.504 6   -399513.66822        18.500           1.938
  21306818.267   -16055703.428 6 -12350314.44521        17.750           1.125
 91  6 19 17 40 44.9970000  0  6G18G 2G11G16G19G 6
  23277038.235    12972685.979 5  10098633.84621        10.000           0.406
  20280496.220   -21528985.992 7 -16678274.75723        27.000           3.188
  22168317.571   -11214674.375 6  -8658648.35521        18.500           1.188
  22824358.399    -6707988.774 5  -5159687.72021         9.750           0.406
  20485758.540     -543996.984 6   -390209.38622        18.750           1.938
  21298554.220   -16099121.522 6 -12384146.71221        17.500           1.219
 91  6 19 17 40 59.9970000  0  6G18G 2G11G16G19G 6
  23285310.134    13016156.366 5  10132506.80021        10.250           0.344
  20273556.985   -21565447.710 7 -16706686.47723        26.750           3.219
  22169013.298   -11211015.123 6  -8655797.00921        18.250           1.219
  22826441.142    -6697058.410 5  -5151170.58821         9.750           0.438
  20488042.868     -531995.650 6   -380857.71422        18.500           1.969
  21290298.353   -16142512.760 6 -12417958.05521        17.750           1.156
 91  6 19 17 41 14.9970000  0  6G18G 2G11G16G19G 6
  23293583.806    13059642.256 5  10166391.84321        10.000           0.438
  20266632.829   -21601835.162 7 -16735040.32923        27.000           3.219
  22169737.188   -11207214.960 6  -8652835.84621        18.750           1.188
  22828539.110    -6686031.236 5  -5142578.02521         9.500           0.406
  20490336.548     -519938.675 6   -371462.67822        18.500           1.875
  21282044.610   -16185882.310 6 -12451752.48821        18.000           1.188
 91  6 19 17 41 29.9970000  0  6G18G 2G11G16G19G 6
  23301861.868    13103144.981 5  10200290.00021         9.500           0.250
  20259723.454   -21638146.788 7 -16763335.09523        27.250           3.125
  22170487.478   -11203272.395 6  -8649763.71921        18.500           1.156
  22830653.876    -6674905.979 5  -5133909.01721         9.750           0.406
  20492642.103     -507824.555 6   -362023.11922        18.250           1.938
  21273798.438   -16229228.497 6 -12485528.72921        18.250           1.156
 91  6 19 17 41 44.9970000  0  6G18G 2G11G16G19G 6
  23310147.798    13146672.993 5  10234207.86421         9.000           0.281
  20252829.267   -21674374.030 7 -16791564.11223        27.000           3.094
  22171265.259   -11199178.979 6  -8646574.06621        18.250           1.188
  22832791.735    -6663674.161 5  -5125156.97521         9.750           0.469
  20494959.126     -495644.570 6   -352532.23222        18.250           1.906
  21265553.798   -16272542.546 6 -12519279.92421        18.250           1.219
 91  6 19 17 41 59.9970000  0  6G18G 2G11G16G19G 6
  23318432.228    13190215.217 5  10268136.81121         8.750           0.188
  20245948.813   -21710527.507 7 -16819735.64523        27.000           3.125
  22172071.985   -11194945.713 6  -8643275.42321        18.250           1.156
  22834947.829    -6652346.948 5  -5116330.60221        10.000           0.313
  20497290.165     -483409.602 6   -342998.50122        18.250           1.906
  21257318.399   -16315835.217 6 -12553014.45921        18.250           1.219
 91  6 19 17 42 14.9970000  0  6G18G 2G11G16G19G 6
  23326726.821    13233789.499 5  10302090.72021         8.500           0.156
  20239087.446   -21746589.396 7 -16847835.81223        27.000           3.188
  22172908.595   -11190554.712 6  -8639853.87521        18.750           1.156
  22837127.259    -6640906.548 5  -5107416.03321         9.750           0.375
  20499630.884     -471101.643 6   -333407.89622        18.500           2.000
  21249085.540   -16359088.492 6 -12586718.30121        18.500           1.219
 91  6 19 17 42 29.9970000  0  6G18G 2G11G16G19G 6
  23335025.212    13277404.939 5  10336076.67821         8.250           0.281
  20232244.798   -21782550.168 7 -16875857.18423        26.750           3.125
  22173774.056   -11185996.744 6  -8636302.22721        18.250           1.125
  22839324.610    -6629343.992 5  -5098406.27321         9.750           0.469
  20501990.103     -458711.217 6   -323753.03422        18.000           1.875
  21240862.360   -16402292.750 6 -12620383.94121        18.500           1.125
 91  6 19 17 42 44.9970000  0  6G18G 2G11G16G19G 6
  23343330.821    13321037.857 5  10370076.28921         8.000           0.313
  20225415.774   -21818433.168 7 -16903817.96123        27.000           3.188
  22174669.579   -11181295.214 6  -8632638.71421        18.250           1.188
  22841543.673    -6617682.752 5  -5089319.63621         9.750           0.375
  20504358.478     -446261.557 6   -314052.01122        18.750           1.813
  21232648.345   -16445471.188 6 -12654029.46421        18.000           1.219
 91  6 19 17 42 59.9970000  0  6G18G 2G11G16G19G 6
  23351640.415    13364707.655 5  10404104.62021         8.250           0.250
  20218605.532   -21854218.657 7 -16931702.75123        26.750           3.156
  22175594.415   -11176430.581 6  -8628848.10221        18.250           1.063
  22843784.962    -6605903.488 5  -5080141.00921         9.500           0.250
  20506741.813     -433733.039 6   -304289.54222        18.500           1.938
  21224441.017   -16488604.193 6 -12687639.58321        18.250           1.125
 91  6 19 17 43 14.9970000  0  6G18G 2G11G16G19G 6
  23359953.110    13408399.629 5  10438150.23721         8.000           0.281
  20211812.110   -21889920.884 7 -16959522.66123        26.750           3.250
  22176548.220   -11171417.449 6  -8624941.78621        18.000           1.156
  22846047.657    -6594020.955 5  -5070881.92521         9.250           0.500
  20509138.103     -421140.104 6   -294476.87322        18.250           1.906
  21216238.610   -16531706.079 6 -12721225.46121        18.500           1.219
 91  6 19 17 43 29.9970000  0  6G18G 2G11G16G19G 6
  23368270.345    13452106.961 5  10472207.83521         8.000           0.250
  20205032.845   -21925546.573 7 -16987282.93123        27.000           3.188
  22177530.649   -11166262.570 6  -8620925.00621        18.500           1.156
  22848326.259    -6582041.828 5  -5061547.55821         9.250           0.438
  20511546.298     -408489.416 6   -284619.20822        18.500           1.906
  21208039.665   -16574783.422 6 -12754792.20221        18.500           1.219
 91  6 19 17 43 44.9970000  0  6G18G 2G11G16G19G 6
  23376590.274    13495833.191 5  10506280.12921         8.000           0.281
  20198269.915   -21961091.797 7 -17014980.50223        26.750           3.188
  22178540.087   -11160962.335 6  -8616794.96921        18.250           1.156
  22850625.142    -6569962.757 5  -5052135.33621         9.500           0.469
  20513962.509     -395777.239 6   -274713.63122        18.500           1.813
  21199846.915   -16617832.281 6 -12788336.76221        18.000           1.219
 91  6 19 17 43 59.9970000  0  6G18G 2G11G16G19G 6
  23384915.673    13539590.303 5  10540376.50021         7.500           0.250
  20191522.399   -21996544.192 7 -17042605.73623        27.000           3.219
  22179577.157   -11155504.498 6  -8612542.12621        18.250           1.094
  22852947.735    -6557771.764 5  -5042635.89821         9.500           0.531
  20516400.243     -382991.060 6   -264750.38622        17.500           1.969
  21191662.673   -16660840.223 6 -12821849.43221        18.000           1.188
 91  6 19 17 44 14.9970000  0  6G18G 2G11G16G19G 6
  23393254.110    13583385.275 5  10574502.36921         8.000           0.219
  20184794.579   -22031896.465 7 -17070152.95623        27.000           3.250
  22180647.884   -11149882.087 6  -8608161.04021        18.250           1.094
  22855284.009    -6545461.862 5  -5033043.79121         9.250           0.406
  20518845.767     -370123.803 6   -254723.96722        18.500           1.906
  21183488.306   -16703800.064 6 -12855324.61321        18.500           1.188
 91  6 19 17 44 29.9970000  0  6G18G 2G11G16G19G 6
  23401586.493    13627199.830 4  10608643.50521         7.000           0.281
  20178083.681   -22067166.775 7 -17097636.30723        27.000           3.156
  22181745.181   -11144113.230 6  -8603665.84521        18.000           1.219
  22857650.196    -6533051.401 5  -5023373.33421         9.500           0.500
  20521308.220     -357193.346 6   -244648.29422        17.500           2.000
  21175318.845   -16746729.550 6 -12888776.15521        18.750           1.281
 91  6 19 17 44 44.9970000  0  6G18G 2G11G16G19G 6
  23409932.767    13671025.011 5  10642792.91021         8.500           0.313
  20171385.540   -22102363.877 7 -17125062.61223        26.750           3.156
  22182869.829   -11138206.750 6  -8599063.39921        17.750           1.219
  22860026.876    -6520549.318 5  -5013631.48421         9.000           0.313
  20523776.665     -344208.508 6   -234530.25322        18.500           1.906
  21167153.821   -16789637.402 6 -12922210.83221        18.750           1.156
 91  6 19 17 44 59.9970000  0  6G18G 2G11G16G19G 6
  23418268.681    13714869.771 4  10676957.58621         7.250           0.219
  20164703.970   -22137478.369 7 -17152424.54523        27.000           3.125
  22184021.806   -11132153.554 6  -8594346.63921        18.000           1.156
  22862428.884    -6507946.736 5  -5003811.31421         9.500           0.406
  20526263.743     -331159.917 6   -224362.52222        17.250           2.000
  21158995.024   -16832514.224 6 -12955621.33321        19.250           1.188
 91  6 19 17 45 14.9970000  0  6G18G 2G11G16G19G 6
  23426621.603    13758728.288 5  10711132.98221         8.250           0.375
  20158036.813   -22172515.998 7 -17179726.58923        27.000           3.125
  22185199.509   -11125959.686 6  -8589520.27021        17.250           1.094
  22864840.517    -6495249.832 5  -4993917.65821         9.500           0.406
  20528754.845     -318053.395 6   -214149.67022        18.250           1.906
  21150841.134   -16875365.740 6 -12989012.12321        19.500           1.250
 91  6 19 17 45 29.9970000  0  6G18G 2G11G16G19G 6
  23434965.462    13802612.559 5  10745328.43321         7.500           0.375
  20151386.618   -22207464.269 7 -17206959.00823        26.500           3.250
  22186407.688   -11119612.864 6  -8584574.70921        17.500           1.125
  22867283.431    -6482446.425 5  -4983941.00121         9.750           0.375
  20531262.774     -304876.559 6   -203882.02422        18.250           1.938
  21142693.821   -16918179.505 6 -13022373.49221        19.500           1.094
 91  6 19 17 45 44.9970000  0  6G18G 2G11G16G19G 6
  23443331.220    13846539.582 5  10779557.16821         7.750           0.281
  20144756.040   -22242305.767 7 -17234108.21623        26.750           3.125
  22187648.704   -11113095.668 6  -8579496.38521        17.750           1.094
  22869738.720    -6469519.568 5  -4973868.14621         9.750           0.344
  20533785.985     -291612.071 6   -193546.06622        18.250           1.844
  21134558.079   -16960937.939 7 -13055691.73921        20.000           1.188
 91  6 19 17 45 59.9970000  0  6G18G 2G11G16G19G 6
  23451687.306    13890469.575 4  10813788.26721         7.250           0.250
  20138137.853   -22277080.048 7 -17261205.05323        26.750           3.031
  22188914.040   -11106447.884 6  -8574316.30821        18.000           1.031
  22872214.048    -6456508.963 5  -4963730.04021         9.750           0.406
  20536320.665     -278299.397 6   -183172.56522        18.000           1.813
  21126425.173   -17003680.555 6 -13088997.66021        19.750           1.281
 91  6 19 17 46 14.9970000  0  6G18G 2G11G16G19G 6
  23460051.524    13934427.759 4  10848041.31421         7.000           0.344
  20131537.798   -22311761.525 7 -17288229.57423        26.750           3.063
  22190207.681   -11099644.210 6  -8569014.75221        17.750           1.156
  22874709.587    -6443389.364 5  -4953507.00921         9.500           0.344
  20538866.751     -264913.057 6   -172741.66622        18.250           1.906
  21118299.454   -17046381.717 6 -13122271.28821        19.500           1.250
 91  6 19 17 46 29.9970000  0  6G18G 2G11G16G19G 6
  23468419.063    13978402.797 5  10882307.49421         7.500           0.250
  20124955.665   -22346361.620 7 -17315190.68023        26.750           3.125
  22191528.360   -11092696.280 6  -8563600.79921        17.500           1.125
  22877227.798    -6430172.324 5  -4943208.04021         9.750           0.250
  20541428.048     -251464.517 6   -162262.29922        18.250           1.906
  21110178.056   -17089052.747 6 -13155521.42921        19.750           1.250
 91  6 19 17 46 44.9970000  0  5G 2G11G16G19G 6
  20118386.298   -22380879.491 7 -17342087.71523        26.250           3.156
  22192879.110   -11085603.385 6  -8558073.88521        17.750           1.156
  22879762.024    -6416857.318 5  -4932832.73821         9.250           0.469
  20543997.228     -237952.808 6   -151733.70722        18.500           1.844
  21102063.329   -17131692.765 6 -13188747.39521        19.250           1.344
 91  6 19 17 46 59.9970000  0  5G 2G11G16G19G 6
  20111833.056   -22415311.774 7 -17368918.05923        26.250           3.125
  22194257.610   -11078362.361 6  -8552431.55821        17.500           1.156
  22882312.556    -6403441.439 5  -4922378.84721         9.000           0.313
  20546582.188     -224374.562 6   -141153.27022        18.000           1.875
  21093956.649   -17174298.322 6 -13221946.51621        19.000           1.344
 91  6 19 17 47 14.9970000  0  5G 2G11G16G19G 6
  20105298.017   -22449654.765 7 -17395678.82323        26.250           3.156
  22195666.040   -11070969.757 6  -8546671.10121        17.750           1.094
  22884888.610    -6389921.384 5  -4911843.74621         9.250           0.375
  20549178.274     -210726.314 6   -130518.28622        18.000           1.844
  21085856.853   -17216865.693 6 -13255115.88521        19.500           1.375
 91  6 19 17 47 29.9970000  0  5G 2G11G16G19G 6
  20098780.126   -22483913.976 7 -17422374.30323        26.500           3.188
  22197100.563   -11063431.458 6  -8540797.11821        17.500           1.156
  22887478.579    -6376303.148 5                         8.750
  20551789.860     -197013.657 6                        17.750
  21077762.446   -17259400.389 6 -13288259.79021        19.250           1.313
 91  6 19 17 47 44.9970000  0  5G 2G11G16G19G 6
  20092274.938   -22518091.619 7 -17449006.22223        26.750           3.125
  22198559.212   -11055749.682 6  -8534811.34021        17.250           1.156
  22890086.798    -6362588.976 5                         8.750
  20554408.392     -183238.733 6                        18.250
  21069674.220   -17301904.457 6 -13321379.83921        19.000           1.219
 91  6 19 17 47 59.9970000  0  5G 2G11G16G19G 6
  20085790.837   -22552171.328 7 -17475561.83723        27.000           3.156
  22200052.806   -11047908.190 6  -8528701.10621        17.500           1.094
  22892718.079    -6348762.983 5                         8.750
  20557045.728     -169385.111 6                        17.500
  21061592.954   -17344361.438 6 -13354463.18121        19.000           1.250
 91  6 19 17 48 14.9970000  0  5G 2G11G16G19G 6
  20079321.970   -22586159.774 7 -17502046.33323        26.750           3.188
  22201572.603   -11039913.906 6  -8522471.81021        17.000           1.125
  22895371.134    -6334832.351 5                         8.750
  20559694.712     -155459.442 6    -87453.24622        17.750           1.875
  21053524.126   -17386777.904 6 -13387514.96921        19.000           1.344
 91  6 19 17 48 29.9970000  0  5G 2G11G16G19G 6
  20072870.962   -22620064.872 7 -17528465.88423        27.000           3.031
  22203121.642   -11031774.960 6  -8516129.78921        17.250           1.063
  22898039.579    -6320805.280 5                         9.250
  20562359.431     -141469.744 6    -76552.20122        17.500           1.563
  21045456.728   -17429161.821 6 -13420541.38421        18.750           1.156
 91  6 19 17 48 44.9970000  0  5G 2G11G16G19G 6
  20066435.282   -22653879.564 7 -17554814.99123        26.750           3.156
  22204701.228   -11023484.525 6  -8509669.72921        17.250           1.031
  22900729.040    -6306674.757 5                         9.000
  20565032.665     -127408.982 6                        18.000
  21037400.478   -17471506.052 6 -13453536.87921        19.000           1.250
 91  6 19 17 48 59.9970000  0  5G 2G11G16G19G 6
  20060017.313   -22687611.559 7 -17581099.65723        26.750           3.188
  22206304.782   -11015050.457 6  -8503097.74421        17.500           1.094
  22903438.188    -6292448.824 5                         9.250
  20567723.017     -113284.820 6    -54589.96322        17.500           1.844
  21029346.579   -17513818.187 6 -13486507.36021        19.250           1.250
 91  6 19 17 49 14.9970000  0  5G 2G11G16G19G 6
  20053610.173   -22721273.662 7 -17607329.85923        26.750           3.188
  22207935.220   -11006485.692 6  -8496423.91921        17.750           1.031
  22906158.782    -6278140.874 5        -0.27431         9.250           0.563
  20570419.634      -99109.950 6    -43544.62322        18.000           1.688
  21021300.595   -17556110.753 6 -13519462.59821        19.500           1.219
 91  6 19 17 49 29.9970000  0  5G 2G11G16G19G 6
  20047222.517   -22754842.460 7 -17633487.36023        26.750           3.156
  22209595.712   -10997767.077 6  -8489630.21721        17.750           1.000
  22908900.392    -6263727.720 5     11230.72121         9.000           0.438
  20573129.274      -84861.034 6    -32441.58922        17.750           1.750
  21013260.493   -17598360.455 6 -13552384.43121        19.750           1.156
 91  6 19 17 49 44.9970000  0  5G 2G11G16G19G 6
  20040853.048   -22788322.361 7 -17659575.58823        26.500           3.250
  22211283.157   -10988899.386 6  -8482720.34621        17.750           1.031
  22911661.813    -6249214.150 5     22539.96721         8.750           0.438
  20575856.157      -70542.800 6    -21284.53922        18.250           1.813
  21005226.392   -17640571.690 6 -13585276.29221        19.750           1.188
 91  6 19 17 49 59.9970000  0  5G 2G11G16G19G 6
  20034497.540   -22821715.007 7 -17685595.82723        26.750           3.156
  22212996.540   -10979884.558 6  -8475695.81921        17.750           0.969
  22914442.173    -6234602.292 5     33925.80621         9.000           0.281
  20578591.165      -56156.823 6    -10074.70922        17.750           1.875
  20997203.087   -17682745.913 7 -13618139.32021        20.500           1.250
 91  6 19 17 50 14.9970000  0  5G 2G11G16G19G 6
  20028159.345   -22855020.731 7 -17711548.33123        26.750           3.156
  22214740.774   -10970723.097 6  -8468557.03221        17.500           1.031
  22917242.923    -6219892.597 5     45387.88821         8.750           0.344
  20581343.063      -41703.463 6      1187.62622        17.750           1.813
  20989183.235   -17724883.639 6 -13650973.89821        19.750           1.344
 91  6 19 17 50 29.9970000  0  5G 2G11G16G19G 6
  20021841.142   -22888229.453 7 -17737425.25123        26.500           3.156
  22216514.392   -10961404.925 6  -8461296.14521        17.500           0.906
  22920062.048    -6205075.305 5     56933.79621         9.000           0.500
  20584108.587      -27172.519 6     12510.42222        18.000           1.750
  20981173.282   -17766974.428 7 -13683771.90721        20.250           1.281
 91  6 19 17 50 44.9970000  0  5G 2G11G16G19G 6
  20015537.204   -22921352.294 7 -17763235.25023        26.250           3.156
  22218314.673   -10951941.409 6  -8453921.99121        17.750           0.906
  22922898.884    -6190162.027 5     68554.49621         8.750           0.469
  20586885.360      -12575.142 6     23884.98322        18.250           1.781
  20973170.813   -17809029.329 7 -13716541.95721        20.500           1.375
 91  6 19 17 50 59.9970000  0  5G 2G11G16G19G 6
  20009249.181   -22954397.224 7 -17788984.54423        26.250           3.125
  22220141.345   -10942340.548 6  -8446440.80621        17.750           1.031
  22925752.009    -6175160.710 5     80243.80821         8.500           0.344
  20589675.540        2080.746 6     35305.13222        17.750           1.688
  20965174.001   -17851056.187 7 -13749290.14921        20.500           1.344
 91  6 19 17 51 14.9960000  0  5G 2G11G16G19G 6
  20002977.848   -22987348.712 7 -17814661.01723        26.250           3.000
  22221998.277   -10932590.056 6  -8438843.04821        18.250           0.969
  22928625.840    -6160059.710 5     92010.78721         8.250           0.313
  20592476.535       16807.484 6     46780.49222        18.500           1.719
  20957184.059   -17893038.866 7 -13782003.91321        20.000           1.281
 91  6 19 17 51 29.9960000  0  5G 2G11G16G19G 6
  19996720.520   -23020235.719 7 -17840287.25023        26.500           3.125
  22223877.324   -10922713.461 6  -8431147.01121        17.750           1.063
  22931510.551    -6144882.024 5    103837.55121         8.250           0.375
  20595288.824       31582.243 6     58293.27222        17.750           1.625
  20949198.621   -17935007.525 7 -13814706.75321        20.000           1.469
 91  6 19 17 51 44.9960000  0  5G 2G11G16G19G 6
  19990480.277   -23053026.374 7 -17865838.40423        26.250           3.250
  22225785.926   -10912681.936 6  -8423330.26221        17.500           1.063
  22934425.277    -6129599.046 5    115746.32421         8.500           0.375
  20598114.207       46433.775 6     69865.87022        18.500           1.594
  20941221.457   -17976929.545 7 -13847373.25621        20.000           1.438
 91  6 19 17 51 59.9960000  0  5G 2G11G16G19G 6
  19984254.520   -23085741.522 7 -17891330.72323        26.750           3.094
  22227720.785   -10902516.554 6  -8415409.20521        17.750           1.031
  22937347.840    -6114231.956 5    127720.65221         8.500           0.313
  20600950.879       61341.140 6     81481.98022        17.750           1.656
  20933249.285   -18018825.823 7 -13880019.69221        20.000           1.344
 91  6 19 17 52 14.9960000  0  5G 2G11G16G19G 6
  19978046.371   -23118366.756 7 -17916752.97423        26.750           3.031
  22229682.137   -10892203.042 6  -8407372.71821        17.500           0.938
  22940290.473    -6098766.715 5    139771.45921         8.250           0.375
  20603800.707       76318.980 6     93153.00022        18.250           1.594
  20925283.848   -18060681.701 6 -13912634.64921        19.750           1.469
 91  6 19 17 52 29.9960000  0  5G 2G11G16G19G 6
  19971853.652   -23150908.210 7 -17942109.94723        27.000           3.125
  22231672.684   -10881747.878 6  -8399225.85821        17.750           1.063
  22943254.262    -6083209.982 5    151893.56121         8.500           0.344
  20606663.160       91361.001 6    104874.03322        18.500           1.656
  20917325.746   -18102503.258 6 -13945222.86822        19.500           1.500
 91  6 19 17 52 44.9960000  0  5G 2G11G16G19G 6
  19965678.309   -23183361.495 7 -17967398.21423        26.750           3.094
  22233691.926   -10871146.915 6  -8390965.38621        17.750           1.125
  22946228.723    -6067557.660 5    164090.13921         8.750           0.406
  20609538.184      106471.600 6    116648.50022        18.500           1.625
  20909374.856   -18144286.088 6 -13977780.90521        19.250           1.469
 91  6 19 17 52 59.9960000  0  5G 2G11G16G19G 6
  19959517.606   -23215735.587 7 -17992624.77623        27.000           2.969
  22235732.621   -10860409.262 6  -8382598.40021        16.750           0.969
  22949224.668    -6051818.853 5    176354.11621         8.250           0.344
  20612427.676      121641.677 6    128469.31622        18.250           1.531
  20901429.715   -18186039.028 6 -14010315.66021        19.250           1.406
 91  6 19 17 53 14.9960000  0  5G 2G11G16G19G 6
  19953375.043   -23248016.299 7 -18017778.57023        27.000           3.188
  22237804.965   -10849520.838 6  -8374113.92821        16.750           0.969
  22952239.621    -6035979.858 5    188696.16121         8.000           0.313
  20615325.582      136885.276 6    140347.42321        18.500           1.469
  20893491.621   -18227747.759 6 -14042815.95821        19.500           1.406
 91  6 19 17 53 29.9960000  0  5G 2G11G16G19G 6
  19947247.832   -23280215.016 7 -18042868.47423        27.000           3.188
  22239902.684   -10838493.452 6  -8365521.17921        17.000           1.063
  22955268.434    -6020052.387 5    201107.14221         8.000           0.281
  20618241.449      152191.189 6    152274.07722        18.500           1.563
  20885561.074   -18269423.718 6 -14075290.72622        19.500           1.531
 91  6 19 17 53 44.9960000  0  5G 2G11G16G19G 6
  19941139.957   -23312315.342 7 -18067881.70723        27.250           3.188
  22242031.457   -10827310.904 6  -8356807.52121        17.000           1.063
  22958324.535    -6004020.232 5    213599.70021         7.750           0.344
  20621166.684      167575.890 6    164262.13022        18.500           1.531
  20877639.356   -18311050.380 6 -14107727.07622        19.750           1.625
 91  6 19 17 53 59.9960000  0  5G 2G11G16G19G 6
  19935048.863   -23344324.637 7 -18092824.01023        27.250           3.188
  22244189.629   -10815980.612 6  -8347978.73821        17.500           0.969
  22961389.184    -5987891.018 5    226167.89221         7.500           0.313
  20624106.527      183031.870 6    176305.72622        18.250           1.563
  20869726.598   -18352634.793 6 -14140130.51021        19.750           1.344
 91  6 19 17 54 14.9960000  0  5G 2G11G16G19G 6
  19928974.387   -23376240.054 7 -18117693.15923        26.750           3.250
  22246372.832   -10804500.101 6  -8339032.90821        17.500           0.938
  22964478.121    -5971662.611 5    238813.35721         7.750           0.313
  20627064.395      198561.975 6    188407.08322        18.500           1.563
  20861822.762   -18394174.263 6 -14172498.91921        19.750           1.469
 91  6 19 17 54 29.9960000  0  5G 2G11G16G19G 6
  19922920.270   -23408055.798 7 -18142484.64423        27.000           3.188
  22248585.895   -10792863.839 6  -8329965.70321        17.250           1.000
  22967587.613    -5955329.546 5    251540.39721         8.000           0.375
  20630034.582      214171.863 6    200570.60922        18.250           1.594
  20853926.402   -18435662.912 7 -14204827.72821        20.000           1.375
 91  6 19 17 54 44.9960000  0  5G 2G11G16G19G 6
  19916883.559   -23439785.653 7 -18167209.20223        27.000           3.250
  22250828.207   -10781085.687 6  -8320787.94621        17.750           0.906
  22970712.707    -5938906.116 5    264337.83421         7.750           0.313
  20633018.738      229847.855 6    212785.63922        18.250           1.625
  20846038.652   -18477114.386 7 -14237127.57021        20.000           1.438
 91  6 19 17 54 59.9960000  0  5G 2G11G16G19G 6
  19910860.660   -23471428.615 7 -18191866.04923        26.250           3.188
  22253097.035   -10769164.984 6  -8311499.09921        18.000           1.000
  22973859.066    -5922391.309 5    277206.49521         8.250           0.344
  20636014.215      245590.891 6    225052.91522        18.000           1.531
  20838158.895   -18518527.551 6 -14269397.55621        19.750           1.375
 91  6 19 17 55 14.9960000  0  5G 2G11G16G19G 6
  19904858.457   -23502976.004 7 -18216448.42423        26.250           3.031
  22255393.020   -10757093.108 6  -8302092.46621        18.000           0.875
  22977021.684    -5905776.705 5    290152.89421         8.000           0.250
  20639024.613      261409.725 6    237379.24622        18.250           1.781
  20830286.121   -18559893.574 7 -14301630.81621        20.000           1.438
 91  6 19 17 55 29.9960000  0  5G 2G11G16G19G 6
  19898869.309   -23534446.443 7 -18240970.84323        27.000           3.250
  22257716.770   -10744888.982 6  -8292582.77121        17.750           0.969
  22980198.559    -5889081.114 5    303162.39921         8.000           0.406
  20642044.965      277285.728 6    249750.13022        18.250           1.688
  20822421.176   -18601230.897 7 -14333841.70622        20.250           1.500
 91  6 19 17 55 44.9960000  0  5G 2G11G16G19G 6
  19892896.957   -23565830.355 7 -18265425.83223        26.750           3.188
  22260065.957   -10732543.251 6  -8282962.73821        18.250           0.969
  22983389.496    -5872295.468 5    316242.11221         8.000           0.281
  20645078.902      293228.493 6    262173.03722        18.250           1.625
  20814561.207   -18642529.840 6 -14366022.69021        19.750           1.469
 91  6 19 17 55 59.9960000  0  5G 2G11G16G19G 6
  19886945.527   -23597110.471 7 -18289799.94223        26.750           3.219
  22262444.879   -10720039.055 6  -8273219.22321        18.000           0.906
  22986602.957    -5855403.051 5    329404.99521         7.750           0.438
  20648127.762      309255.139 6    274661.30622        18.250           1.625
  20806711.559   -18683773.410 6 -14398160.52622        19.750           1.500
 91  6 19 17 56 14.9960000  0  5G 2G11G16G19G 6
  19881007.660   -23628311.452 7 -18314112.39323        27.000           3.219
  22264850.246   -10707401.195 6  -8263371.56421        18.000           0.906
  22989836.293    -5838428.787 5    342631.66921         8.000           0.375
  20651187.816      325341.072 6    287195.77822        18.000           1.656
  20798870.246   -18724985.811 7 -14430274.07522        20.000           1.531
 91  6 19 17 56 29.9960000  0  5G 2G11G16G19G 6
  19875083.856   -23659442.938 7 -18338370.68823        27.000           3.219
  22267278.707   -10694639.460 6  -8253427.36921        17.750           0.875
  22993077.981    -5821382.811 5    355914.20621         8.000           0.281
  20654262.121      341476.637 6    299768.91822        17.000           1.719
  20791032.660   -18766176.698 7 -14462370.85522        20.500           1.531
 91  6 19 17 56 44.9960000  0  5G 2G11G16G19G 6
  19869173.684   -23690499.578 7 -18362570.66623        27.000           3.125
  22269731.168   -10681748.908 6  -8243382.79921        17.500           0.938
  22996335.426    -5804259.915 5    369256.68121         8.250           0.250
  20657339.152      357667.059 6    312384.81222        18.000           1.719
  20783199.051   -18807340.739 7 -14494446.72322        20.000           1.594
 91  6 19 17 56 59.9960000  0  5G 2G11G16G19G 6
  19863280.566   -23721468.727 7 -18386702.46323        27.250           3.188
  22272210.168   -10668717.133 6  -8233228.17921        17.000           0.969
  22999613.598    -5787047.803 5    382668.68621         7.750           0.281
  20660437.738      373924.960 6    325053.28422        17.000           1.594
  20775373.699   -18848465.238 7 -14526491.77822        20.000           1.625
 91  6 19 17 57 14.9960000  0  5G 2G11G16G19G 6
  19857402.965   -23752352.377 7 -18410767.63923        27.000           3.188
  22274718.590   -10655546.411 6  -8222965.30021        17.750           0.813
  23002903.973    -5769748.864 5    396148.35121         8.500           0.281
  20663540.707      390248.264 6    337772.72122        17.750           1.625
  20767553.340   -18889552.025 7 -14558507.44221        20.000           1.469
 91  6 19 17 57 29.9960000  0  5G 2G11G16G19G 6
  19851542.801   -23783145.959 7 -18434762.63423        27.250           3.281
  22277251.559   -10642232.106 6  -8212590.53721        17.750           0.781
  23006213.176    -5752358.884 5    409698.95821         8.000           0.375
  20666662.652      406641.904 6    350546.96922        16.250           1.625
  20759744.418   -18930596.157 7 -14590489.87222        20.000           1.594
 91  6 19 17 57 44.9960000  0  5G 2G11G16G19G 6
  19845702.168   -23813843.311 7 -18458682.64323        27.750           3.188
  22279812.574   -10628768.366 6  -8202099.32821        17.250           0.875
  23009537.707    -5734871.909 5    423325.13521         7.750           0.313
  20669792.707      423111.943 6    363380.74322        17.500           1.625
  20751942.668   -18971591.582 7 -14622434.34622        20.000           1.563
 91  6 19 17 57 59.9960000  0  5G 2G11G16G19G 6
  19839877.863   -23844451.924 7 -18482533.50723        27.750           3.031
  22282401.629   -10615162.879 6  -8191497.67621        17.250           0.938
  23012881.902    -5717295.772 5    437020.80721         8.000           0.344
  20672941.582      439650.832 6    376268.16822        17.250           1.688
  20744148.184   -19012545.528 7 -14654346.49722        20.000           1.531
 91  6 19 17 58 14.9960000  0  5G 2G11G16G19G 6
  19834070.645   -23874971.574 7 -18506315.05123        27.500           3.188
  22285018.684   -10601415.761 6  -8180785.65721        17.750           0.813
  23016245.215    -5699630.652 5    450785.80121         7.750           0.344
  20676100.816      456258.688 6    389209.33822        17.500           1.656
  20736363.348   -19053457.796 7 -14686226.17222        20.000           1.531
 91  6 19 17 58 29.9960000  0  5G 2G11G16G19G 6
  19828277.035   -23905409.734 7 -18530033.09123        27.750           3.188
  22287660.027   -10587534.759 6  -8169969.30721        17.500           0.781
  23019623.277    -5681884.496 5    464613.96121         8.000           0.406
  20679273.918      472928.069 6    402198.44422        16.750           1.656
  20728585.824   -19094335.664 7 -14718079.04622        20.250           1.500
 91  6 19 17 58 44.9960000  0  5G 2G11G16G19G 6
  19822499.520   -23935770.440 7 -18553690.77723        27.500           3.188
  22290326.012   -10573524.311 6  -8159052.09221        17.500           0.813
  23023014.293    -5664061.843 5    478501.70521         8.000           0.281
  20682457.270      489654.722 6    415232.18022        17.250           1.688
  20720812.949   -19135183.380 7 -14749908.42722        20.500           1.594
 91  6 19 17 58 59.9960000  0  5G 2G11G16G19G 6
  19816739.746   -23966039.451 7 -18577277.02123        27.500           3.094
  22293019.363   -10559370.316 6  -8148023.03321        17.000           0.813
  23026421.566    -5646148.697 5    492459.95521         7.750           0.281
  20685655.457      506452.964 6    428321.69522        17.000           1.688
  20713047.277   -19175986.546 7 -14781703.09022        21.000           1.688
 91  6 19 17 59 14.9960000  0  5G 2G11G16G19G 6
  19810994.395   -23996232.061 7 -18600803.73023        27.250           3.125
  22295738.199   -10545088.270 6  -8136894.18021        16.750           0.781
  23029849.895    -5628160.737 5    506476.52121         8.250           0.375
  20688860.223      523307.537 6    441455.11622        17.500           1.656
  20705289.262   -19216760.211 7 -14813474.76422        21.000           1.656
 91  6 19 17 59 29.9960000  0  5G 2G11G16G19G 6
  19805264.606   -24026339.744 7 -18624264.25823        27.250           3.156
  22298480.231   -10530669.691 6  -8125658.94721        16.750           0.844
  23033288.832    -5610089.466 5    520557.99421         8.000           0.313
  20692081.145      540226.914 6    454639.02722        17.250           1.750
  20697536.184   -19257495.644 7 -14845216.65122        20.750           1.594
 91  6 19 17 59 44.9960000  0  5G 2G11G16G19G 6
  19799551.996   -24056360.891 7 -18647657.35823        27.500           3.188
  22301252.277   -10516113.227 6  -8114316.27921        16.250           0.781
  23036738.707    -5591933.489 5    534705.47321         7.750           0.344
  20695314.691      557212.771 6    467874.74522        18.000           1.625
  20689791.613   -19298191.059 7 -14876927.35522        21.000           1.563
 91  6 19 17 59 59.9960000  0  5G 2G11G16G19G 6
  19793858.402   -24086281.691 7 -18670972.26323        27.000           3.250
  22304049.184   -10501405.423 6  -8102855.67821        16.250           0.938
  23040216.449    -5573679.522 5    548929.31421         8.000           0.344
  20698562.449      574278.947 6    481173.04822        17.250           1.563
  20682059.152   -19338832.624 7 -14908596.09322        21.000           1.531
 91  6 19 18  0 14.9960000  0  5G 2G11G16G19G 6
  19788182.012   -24116115.271 7 -18694219.20523        27.250           3.313
  22306874.754   -10486559.698 6  -8091287.60121        16.250           0.938
  23043704.090    -5555341.086 5    563218.96121         7.500           0.406
  20701821.637      591412.118 6    494523.55221        17.500           1.469
  20674333.090   -19379433.356 7 -14940233.01022        21.250           1.594
 91  6 19 18  0 29.9960000  0  5G 2G11G16G19G 6
  19782519.527   -24145868.093 7 -18717403.21923        27.500           3.250
  22309724.559   -10471582.791 6  -8079617.30821        16.250           0.875
  23047208.363    -5536924.991 5    577569.11921         7.500           0.375
  20705094.652      608605.873 6    507921.26822        17.250           1.563
  20666612.731   -19419999.703 7 -14971843.14022        21.000           1.656
 91  6 19 18  0 44.9960000  0  5G 2G11G16G19G 6
  19776877.457   -24175519.523 7 -18740508.22523        27.250           3.281
  22312604.746   -10456454.242 6  -8067828.86221        17.000           0.906
  23050727.996    -5518411.133 5    591995.46021         7.500           0.344
  20708381.004      625880.986 6    521382.36822        17.250           1.688
  20658903.676   -19460510.759 7 -15003410.19022        21.000           1.563
 91  6 19 18  0 59.9960000  0  5G 2G11G16G19G 6
  19771251.035   -24205085.551 7 -18763546.68523        27.500           3.344
  22315508.012   -10441190.284 6  -8055934.89421        17.000           0.938
  23054269.356    -5499815.773 4    606485.31821         7.250           0.344
  20711682.121      643221.531 6    534894.46122        17.000           1.750
  20651202.426   -19500982.447 7 -15034946.55722        20.750           1.594
 91  6 19 18  1 14.9960000  0  5G 2G11G16G19G 6
  19765641.770   -24234559.533 7 -18786513.41923        27.500           3.219
  22318439.152   -10425784.432 6  -8043930.35721        17.000           0.938
  23057823.676    -5481132.384 4    621043.77321         7.250           0.375
  20714995.481      660634.204 6    548462.76222        17.500           1.594
  20643510.465   -19541407.921 7 -15066446.91122        20.500           1.563
 91  6 19 18  1 29.9960000  0  5G 2G11G16G19G 6
  19760051.793   -24263938.720 7 -18809406.28723        27.250           3.219
  22321398.512   -10410234.292 6  -8031813.39221        17.250           0.906
  23061401.059    -5462358.773 5    635672.52521         7.500           0.250
  20718323.731      678121.481 6    562089.19422        16.750           1.531
  20635826.207   -19581784.482 7 -15097909.16222        20.250           1.594
 91  6 19 18  1 44.9960000  0  5G 2G11G16G19G 6
  19754476.441   -24293231.113 7 -18832231.52323        27.750           3.188
  22324383.738   -10394548.182 6  -8019590.47321        17.250           0.906
  23064988.738    -5443503.182 5    650365.13321         7.500           0.375
  20721660.309      695675.243 6    575767.43422        17.250           1.563
  20628150.457   -19622119.998 7 -15129339.41622        20.750           1.750
 91  6 19 18  1 59.9960000  0  5G 2G11G16G19G 6
  19748918.215   -24322442.072 7 -18854993.30523        26.750           3.219
  22327393.059   -10378731.724 6  -8007265.99121        17.250           1.000
  23068591.723    -5424571.140 5    665117.35521         7.500           0.344
  20725014.129      713290.336 6    589493.46522        16.500           1.500
  20620483.754   -19662419.715 7 -15160741.78622        20.500           1.688
 91  6 19 18  2 14.9960000  0  5G 2G11G16G19G 6
  19743375.973   -24351566.988 7 -18877688.04423        27.000           3.188
  22330426.348   -10362780.589 6  -7994836.57421        17.000           0.844
  23072206.590    -5405558.514 5    679932.34521         7.750           0.344
  20728379.496      730971.227 6    603270.76721        17.000           1.469
  20612821.121   -19702678.884 7 -15192112.55722        20.500           1.656
 91  6 19 18  2 29.9960000  0  5G 2G11G16G19G 6
  19737852.926   -24380594.132 7 -18900306.59523        27.000           3.188
  22333492.645   -10346682.988 6  -7982293.02121        17.000           0.906
  23075840.832    -5386453.874 5    694819.03821         7.500           0.344
  20731759.621      748729.809 6    617108.60322        16.750           1.531
  20605170.035   -19742885.519 7 -15223442.38822        21.000           1.563
 91  6 19 18  2 44.9960000  0  5G 2G11G16G19G 6
  19732343.957   -24409539.928 7 -18922861.76123        26.250           3.156
  22336578.762   -10330455.633 6  -7969648.36721        16.750           0.813
  23079489.254    -5367273.999 4    709764.36121         7.250           0.250
  20735150.637      766549.628 6    630994.15722        17.000           1.500
  20597526.113   -19783055.878 7 -15254743.95822        21.250           1.625
 91  6 19 18  2 59.9960000  0  5G 2G11G16G19G 6
  19726850.840   -24438409.823 7 -18945357.78123        26.500           3.156
  22339690.895   -10314104.295 6  -7956907.09521        16.500           0.938
  23083154.457    -5348024.906 5    724763.60921         7.500           0.313
  20738551.606      784425.272 6    644923.21222        17.000           1.563
  20589887.707   -19823195.373 7 -15286021.47822        20.750           1.656
 91  6 19 18  3 14.9960000  0  5G 2G11G16G19G 6
  19721372.066   -24467202.551 7 -18967793.67223        26.750           3.094
  22342825.434   -10297628.118 6  -7944068.55821        16.500           0.906
  23086828.223    -5328705.841 5    739817.38721         7.500           0.375
  20741963.551      802357.727 6    658896.53922        17.250           1.563
  20582254.981   -19863302.847 7 -15317274.04822        20.750           1.656
 91  6 19 18  3 29.9960000  0  5G 2G11G16G19G 6
  19715910.801   -24495896.997 7 -18990152.98923        26.500           3.063
  22345989.082   -10281006.211 6  -7931116.45521        16.250           0.813
  23090524.129    -5309295.703 5    754942.13021         7.500           0.281
  20745392.887      820368.128 6    672930.58822        17.500           1.531
  20574633.910   -19903356.941 7 -15348485.02922        21.000           1.656
 91  6 19 18  3 44.9960000  0  5G 2G11G16G19G 6
  19710470.238   -24524486.861 7 -19012430.80523        27.250           3.031
  22349182.027   -10264232.620 6  -7918046.17821        16.500           0.844
  23094236.902    -5289788.700 5    770142.33921         7.750           0.250
  20748833.871      838462.780 6    687030.29422        17.750           1.594
  20567022.606   -19943351.266 7 -15379649.44122        21.000           1.625
 91  6 19 18  3 59.9960000  0  5G 2G11G16G19G 6
  19705045.418   -24552996.309 7 -19034645.95523        27.250           3.125
  22352399.551   -10247331.562 6  -7904876.55621        16.500           0.750
  23097961.902    -5270208.906 4    785399.29021         7.250           0.281
  20752289.035      856617.723 6    701176.98822        17.500           1.500
  20559418.762   -19983309.705 7 -15410785.87122        20.750           1.594
 91  6 19 18  4 14.9960000  0  5G 2G11G16G19G 6
  19699638.699   -24581407.360 7 -19056784.43123        27.250           3.063
  22355643.582   -10230285.459 6  -7891593.90821        16.500           0.781
  23101704.520    -5250538.898 5    800726.53521         7.500           0.375
  20755757.231      874850.695 6    715384.49122        17.500           1.594
  20551825.293   -20023214.310 7 -15441880.35522        20.750           1.719
 91  6 19 18  4 29.9960000  0  5G 2G11G16G19G 6
  19694246.684   -24609742.978 7 -19078864.13223        27.500           3.094
  22358909.582   -10213117.412 6  -7878216.25321        16.250           0.813
  23105459.473    -5230802.072 4    816105.82821         7.250           0.250
  20759238.699      893138.923 6    729635.04422        17.250           1.625
  20544237.535   -20063087.736 7 -15472950.54522        20.500           1.688
 91  6 19 18  4 44.9960000  0  5G 2G11G16G19G 6
  19688873.074   -24637981.374 7 -19100868.07123        27.000           3.094
  22362203.059   -10195805.734 6  -7864726.66421        16.250           0.813
  23109236.199    -5210977.034 5    831553.88321         7.500           0.313
  20762735.363      911504.387 6    743945.77722        17.750           1.594
  20536660.035   -20102907.867 7 -15503979.21022        20.500           1.656
 91  6 19 18  4 59.9960000  0  5G 2G11G16G19G 6
  19683513.793   -24666140.116 7 -19122809.94723        27.000           3.063
  22365523.887   -10178368.237 6  -7851139.03521        16.500           0.813
  23113019.910    -5191081.569 5    847056.80521         7.750           0.250
  20766239.371      929929.230 6    758302.78522        17.000           1.594
  20529089.660   -20142692.355 7 -15534980.09922        21.000           1.813
 91  6 19 18  5 14.9960000  0  4G 2G11G19G 6
  19678173.082   -24694209.224 7 -19144681.97623        27.500           3.094
  22368864.965   -10160795.392 6  -7837445.94421        16.250           0.781
  20769759.926      948423.369 6    772713.79022        17.500           1.625
  20521526.832   -20182431.250 7 -15565945.46422        21.250           1.813
 91  6 19 18  5 29.9960000  0  4G 2G11G19G 6
  19672849.777   -24722191.221 7 -19166486.12423        27.500           3.188
  22372235.613   -10143090.152 6  -7823649.69021        16.250           0.781
  20773289.059      966984.118 6    787176.69322        17.250           1.656
  20513973.371   -20222127.056 7 -15596877.25322        20.750           1.781
 91  6 19 18  5 44.9960000  0  4G 2G11G19G 6
  19667541.926   -24750081.917 7 -19188219.13423        27.250           2.969
  22375629.816   -10125248.564 6  -7809747.19621        16.250           0.656
  20776837.285      985615.778 6    801694.85022        17.750           1.625
  20506429.301   -20261775.380 7 -15627772.04022        21.250           1.750
 91  6 19 18  5 59.9960000  0  4G 2G11G19G 6
  19662248.699   -24777896.488 7 -19209892.82423        27.500           3.000
  22379050.231   -10107285.906 6  -7795750.36921        16.000           0.750
  20780390.473     1004303.281 6    816256.52522        17.500           1.625
  20498889.770   -20301391.078 7 -15658641.40922        21.000           1.781
 91  6 19 18  6 14.9960000  0  4G 2G11G19G 6
  19656969.723   -24805634.529 7 -19231506.88223        27.750           2.969
  22382489.879   -10089202.127 6  -7781659.15221        16.000           0.719
  20783960.863     1023046.822 6    830861.86322        17.500           1.656
  20491357.809   -20340973.816 7 -15689485.09022        20.500           1.719
 91  6 19 18  6 29.9960000  0  4G 2G11G19G 6
  19651709.387   -24833281.858 7 -19253050.25323        27.500           3.094
  22385958.856   -10070983.444 6  -7767462.80721        16.000           0.781
  20787539.012     1041860.536 6    845521.87922        17.750           1.656
  20483834.457   -20380509.360 7 -15720291.99422        20.500           1.781
 91  6 19 18  6 44.9960000  0  4G 2G11G19G 6
  19646465.527   -24860835.700 7 -19274520.77623        27.500           3.063
  22389448.926   -10052627.114 6  -7753159.22921        15.500           0.750
  20791132.270     1060747.300 6    860238.81922        17.500           1.656
  20476320.145   -20419994.624 7 -15751059.72922        20.750           1.875
 91  6 19 18  6 59.9960000  0  4G 2G11G19G 6
  19641238.566   -24888300.388 7 -19295921.83023        27.500           3.063
  22392966.652   -10034137.745 6  -7738751.96621        15.750           0.844
  20794742.402     1079702.986 6    875009.47122        17.750           1.688
  20468815.129   -20459433.700 7 -15781791.47022        21.000           1.875
 91  6 19 18  7 14.9960000  0  4G 2G11G19G 6
  19636035.293   -24915644.239 7 -19317228.73123        27.000           2.969
  22396517.840   -10015483.963 6  -7724216.58821        16.000           0.781
  20798368.582     1098759.130 6    889858.39422        17.750           1.594
  20461325.426   -20498794.900 7 -15812462.52422        21.000           1.781
 91  6 19 18  7 29.9960000  0  4G 2G11G19G 6
  19630850.059   -24942894.229 7 -19338462.48423        27.000           2.969
  22400095.684    -9996693.085 6  -7709574.38321        16.250           0.781
  20802007.660     1117888.669 6    904764.51122        17.500           1.594
  20453844.809   -20538105.087 7 -15843093.83222        20.750           1.781
 91  6 19 18  7 44.9960000  0  4G 2G11G19G 6
  19625680.301   -24970061.096 7 -19359631.46923        26.750           2.813
  22403694.715    -9977775.915 6  -7694833.77321        15.750           0.719
  20805659.106     1137080.989 6    919719.55321        17.250           1.438
  20446371.746   -20577374.620 7 -15873693.46422        21.000           1.656
 91  6 19 18  7 59.9960000  0  4G 2G11G19G 6
  19620526.113   -24997146.205 7 -19380736.74623        27.500           2.938
  22407317.715    -9958734.152 6  -7679996.08321        15.750           0.781
  20809321.457     1156334.656 6    934722.38722        17.500           1.625
  20438907.160   -20616604.896 7 -15904262.50522        21.250           1.750
 91  6 19 18  8 14.9960000  0  4G 2G11G19G 6
  19615388.629   -25024144.125 7 -19401774.08223        27.250           2.906
  22410965.168    -9939562.550 6  -7665057.20321        15.750           0.750
  20813000.473     1175655.178 6    949777.32622        17.500           1.594
  20431450.113   -20655790.228 7 -15934796.52622        21.000           1.719
 91  6 19 18  8 29.9960000  0  4G 2G11G19G 6
  19610266.043   -25051065.293 7 -19422751.61423        27.500           2.969
  22414637.082    -9920271.996 6                        15.500
  20816687.449     1195032.014 6                        17.750
  20424000.129   -20694941.039 7 -15965303.64522        21.500           1.719
 91  6 19 18  8 44.9960000  0  4G 2G11G19G 6
  19605160.731   -25077894.448 7 -19443657.44723        27.500           2.875
  22418331.676    -9900847.303 6                        15.000
  20820389.168     1214480.404 6                        17.500
  20416559.895   -20734041.894 7 -15995771.84022        21.500           1.875
 91  6 19 18  8 59.9960000  0  4G 2G11G19G 6
  19600073.043   -25104627.939 8 -19464488.73423        28.250           2.969
  22422055.004    -9881285.323 6                        15.000
  20824106.254     1234004.119 6                        16.250
  20409129.238   -20773088.957 7 -16026198.11822        21.750           1.813
 91  6 19 18  9 14.9960000  0  4G 2G11G19G 6
  19595001.387   -25131284.144 7 -19485259.80223        27.500           3.063
  22425800.981    -9861604.493 6  -7604310.81821        15.250           0.813
  20827830.012     1253584.760 6   1010501.60122        17.250           1.625
  20401705.441   -20812100.487 7 -16056596.71122        21.000           1.969
 91  6 19 18  9 29.9960000  0  4G 2G11G19G 6
  19589945.168   -25157852.276 7 -19505962.24023        27.750           2.938
  22429569.621    -9841794.528 6  -7588874.53721        14.750           0.813
  20831572.137     1273233.060 6   1025811.94322        16.250           1.531
  20394289.371   -20851065.629 7 -16086959.14822        21.000           2.000
 91  6 19 18  9 44.9960000  0  4G 2G11G19G 6
  19584904.184   -25184344.473 8 -19526605.50923        28.250           3.031
  22433363.137    -9821867.655 6  -7573347.15221        15.000           0.813
  20835317.012     1292936.801 6   1041165.48622        17.250           1.563
  20386881.332   -20889996.345 7 -16117294.76622        21.000           1.969
 91  6 19 18  9 59.9960000  0  4G 2G11G19G 6
  19579879.715   -25210748.316 7 -19547179.92723        27.750           2.844
  22437180.231    -9801811.695 6  -7557719.16221        15.000           0.750
  20839084.191     1312708.512 6   1056571.99221        16.000           1.375
  20379482.941   -20928879.980 7 -16147593.69522        20.750           1.719
 91  6 19 18 10 14.9960000  0  4G 2G11G19G 6
  19574871.566   -25237061.647 8 -19567683.81923        28.500           3.125
  22441019.465    -9781624.838 6  -7541989.17921        15.000           0.750
  20842856.613     1332550.331 6   1072033.13122        17.250           1.500
  20372092.465   -20967714.272 7 -16177854.17322        21.000           1.906
 91  6 19 18 10 29.9960000  0  4G 2G11G19G 6
  19569883.262   -25263280.536 8 -19588114.12023        28.000           3.125
  22444887.059    -9761303.366 6  -7526154.29521        14.750           0.688
  20846647.434     1352465.941 6   1087551.76922        17.750           1.563
  20364713.184   -21006495.113 7 -16208073.00622        20.750           1.844
 91  6 19 18 10 44.9960000  0  4G 2G11G19G 6
  19564908.926   -25289419.380 8 -19608482.04523        28.500           3.125
  22448776.801    -9740861.869 6  -7510225.89121        14.500           0.719
  20850447.137     1372441.145 6   1103116.83822        17.250           1.500
  20357341.090   -21045236.720 7 -16238261.26922        21.000           1.844
 91  6 19 18 10 59.9960000  0  4G 2G11G19G 6
  19559950.184   -25315473.552 8 -19628783.99723        28.250           3.125
  22452692.402    -9720296.185 6  -7494200.71821        14.500           0.813
  20854260.551     1392480.486 6   1118731.89422        17.500           1.625
  20349976.145   -21083934.465 7 -16268415.35222        21.500           1.875
 91  6 19 18 11 14.9960000  0  4G 2G11G19G 6
  19555009.246   -25341443.883 8 -19649020.61423        28.000           3.094
  22456628.152    -9699607.445 6  -7478079.67421        14.500           0.625
  20858088.199     1412583.117 6   1134396.25621        17.500           1.406
  20342621.176   -21122588.991 7 -16298535.76122        21.000           1.844
 91  6 19 18 11 29.9960000  0  4G 2G11G19G 6
  19550082.613   -25367326.592 8 -19669188.95423        28.250           3.031
  22460590.262    -9678792.209 6  -7461860.04921        14.000           0.656
  20861924.426     1432752.780 6   1150112.85922        17.250           1.531
  20335274.637   -21161196.492 7 -16328619.51822        21.750           1.875
 91  6 19 18 11 44.9960000  0  4G 2G11G19G 6
  19545175.121   -25393122.612 8 -19689289.74723        28.000           3.063
  22464573.887    -9657851.582 6  -7445542.73221        13.750           0.688
  20865775.379     1452988.545 6   1165880.96822        17.250           1.500
  20327936.090   -21199757.663 7 -16358667.18222        21.500           1.875
 91  6 19 18 11 59.9960000  0  4G 2G11G19G 6
  19540284.027   -25418823.484 8 -19709316.39523        28.250           2.969
  22468584.535    -9636777.414 6  -7429121.37021        13.750           0.500
  20869638.488     1473298.845 6   1181707.15121        16.750           1.438
  20320608.996   -21238263.877 7 -16388672.02022        21.500           1.875
 91  6 19 18 12 14.9960000  0  4G 2G11G19G 6
  19535411.910   -25444426.469 8 -19729266.77323        28.500           2.938
  22472618.746    -9615567.163 6  -7412593.96621        13.750           0.625
  20873520.363     1493686.560 6   1197593.66021        17.250           1.469
  20313293.793   -21276712.075 7 -16418631.64722        22.000           1.969
 91  6 19 18 12 29.9960000  0  4G 2G11G19G 6
  19530554.363   -25469956.456 8 -19749160.26823        28.500           3.000
  22476678.215    -9594245.862 6  -7395980.01721        14.000           0.594
  20877409.645     1514126.906 6   1213521.17922        16.500           1.531
  20305982.582   -21315126.980 7 -16448565.33622        21.750           1.813
 91  6 19 18 12 44.9960000  0  4G 2G11G19G 6
  19525715.629   -25495379.751 8 -19768970.62323        28.250           2.969
  22480761.129    -9572780.177 6  -7379253.57121        14.000           0.469
  20881315.699     1534653.328 6   1229515.77121        16.750           1.469
  20298685.090   -21353474.983 7 -16478446.89722        21.750           1.813
 91  6 19 18 12 59.9960000  0  4G 2G11G19G 6
  19520892.129   -25520723.322 8 -19788718.85723        28.750           2.969
  22484869.004    -9551197.369 6  -7362435.84221        14.500           0.625
  20885233.754     1555238.838 6   1245556.40322        16.750           1.531
  20291394.863   -21391782.807 7 -16508297.14222        22.000           1.875
 91  6 19 18 13 14.9960000  0  4G 2G11G19G 6
  19516084.887   -25545990.348 8 -19808407.44923        28.750           2.906
  22488998.598    -9529501.106 6  -7345529.69821        13.750           0.594
  20889158.176     1575880.303 6   1261640.63821        16.750           1.438
  20284112.488   -21430053.599 7 -16538118.53722        22.250           1.844
